[[{"header":{"parameterUnit":"m.s-1","parameterCategory":1,"la1":30.6,"la2":29.2853,"lo1":-89.7004,"lo2":-87.6739,"dy":0.0162,"dx":0.0183,"nx":112,"ny":82,"refTime":"2026-05-04T12:00:00:Z","depth":0,"parameterNumber":2,"parameterNumberName":"U-component_of_WINDS"},"data":[0.0,0.0,0.0,0.0,0.0,0.0,0.0,0.0,0.0,0.0,0.0,0.0,0.0,0.0,0.0,0.0,0.0,0.0,0.0,0.0,0.0,0.0,0.0,0.0,0.0,0.0,0.0,0.0,0.0,0.0,0.0,0.0,0.0,0.0,0.0,0.0,0.0,0.0,0.0,0.0,0.0,0.0,0.0,0.0,0.0,0.0,0.0,0.0,0.0,0.0,0.0,0.0,0.0,0.0,0.0,0.0,0.0,0.0,0.0,0.0,0.0,0.0,0.0,0.0,0.0,0.0,0.0,0.0,0.0,0.0,0.0,0.0,0.0,0.0,0.0,0.0,0.0,0.0,0.0,0.0,0.0,0.0,0.0,0.0,0.0,0.0,0.0,0.0,0.0,0.0,2.4066,2.6584,2.9164,3.0748,3.0823,3.0225,2.9078,2.7195,0.0,0.0,0.0,0.0,0.0,0.0,0.0,0.0,0.0,0.0,0.0,0.0,0.0,0.0,0.0,0.0,0.0,0.0,0.0,0.0,0.0,0.0,0.0,0.0,0.0,0.0,0.0,0.0,0.0,0.0,0.0,0.0,0.0,0.0,0.0,0.0,0.0,0.0,0.0,0.0,0.0,0.0,0.0,0.0,0.0,0.0,0.0,0.0,0.0,0.0,0.0,0.0,0.0,0.0,0.0,0.0,0.0,0.0,0.0,0.0,0.0,0.0,0.0,0.0,0.0,0.0,0.0,0.0,0.0,0.0,0.0,0.0,0.0,0.0,0.0,0.0,0.0,0.0,0.0,0.0,0.0,0.0,0.0,0.0,0.0,0.0,0.0,0.0,0.0,0.0,0.0,0.0,0.0,0.0,0.0,0.0,0.0,0.0,0.0,0.0,0.0,0.0,0.0,0.0,2.342,2.6956,2.8549,2.9639,3.0114,2.9321,2.8524,2.7908,0.0,0.0,0.0,0.0,0.0,0.0,0.0,0.0,0.0,0.0,0.0,0.0,0.0,0.0,0.0,0.0,0.0,0.0,0.0,0.0,0.0,0.0,0.0,0.0,0.0,0.0,0.0,0.0,0.0,0.0,0.0,0.0,0.0,0.0,0.0,0.0,0.0,0.0,0.0,0.0,0.0,0.0,0.0,0.0,0.0,0.0,0.0,0.0,0.0,0.0,0.0,0.0,0.0,0.0,0.0,0.0,0.0,0.0,0.0,0.0,0.0,0.0,0.0,0.0,0.0,0.0,0.0,0.0,0.0,0.0,0.0,0.0,0.0,0.0,0.0,0.0,0.0,0.0,0.0,0.0,0.0,0.0,0.0,0.0,0.0,0.0,0.0,0.0,0.0,0.0,0.0,0.0,0.0,0.0,0.0,0.0,0.0,0.0,0.0,0.0,0.0,0.0,0.0,2.3089,2.4437,2.7513,2.8555,2.9316,2.996,2.9157,2.8318,2.7681,2.6033,0.0,0.0,0.0,0.0,0.0,0.0,0.0,0.0,0.0,0.0,0.0,0.0,0.0,0.0,0.0,0.0,0.0,0.0,0.0,0.0,0.0,0.0,0.0,0.0,0.0,0.0,0.0,0.0,0.0,0.0,0.0,0.0,0.0,0.0,0.0,0.0,0.0,0.0,0.0,0.0,0.0,0.0,0.0,0.0,0.0,0.0,0.0,0.0,0.0,0.0,0.0,0.0,0.0,0.0,0.0,0.0,0.0,0.0,0.0,0.0,0.0,0.0,0.0,0.0,0.0,0.0,0.0,0.0,0.0,0.0,0.0,0.0,0.0,0.0,0.0,0.0,0.0,0.0,0.0,0.0,0.0,0.0,0.0,0.0,0.0,0.0,0.0,0.0,0.0,0.0,0.0,0.0,0.0,0.0,0.0,0.0,0.0,0.0,0.0,0.0,0.0,0.0,2.4188,2.5451,2.7702,2.8395,2.9015,2.9806,2.8609,2.7755,2.7387,2.5408,0.0,0.0,0.0,0.0,0.0,0.0,0.0,0.0,0.0,0.0,0.0,0.0,0.0,0.0,0.0,0.0,0.0,0.0,0.0,0.0,0.0,0.0,0.0,0.0,0.0,0.0,0.0,0.0,0.0,0.0,0.0,0.0,0.0,0.0,0.0,0.0,0.0,0.0,0.0,0.0,0.0,0.0,0.0,0.0,0.0,0.0,0.0,0.0,0.0,0.0,0.0,0.0,0.0,0.0,0.0,0.0,0.0,0.0,0.0,0.0,0.0,0.0,0.0,0.0,0.0,0.0,0.0,0.0,0.0,0.0,0.0,0.0,0.0,0.0,0.0,0.0,0.0,0.0,0.0,0.0,0.0,0.0,0.0,0.0,0.0,0.0,0.0,0.0,0.0,0.0,0.0,0.0,0.0,0.0,0.0,0.0,0.0,0.0,0.0,0.0,0.0,0.0,2.3954,2.5823,2.7105,2.7301,2.7938,2.9341,2.7176,2.6283,2.7523,2.4321,0.0,0.0,0.0,0.0,0.0,0.0,0.0,0.0,0.0,0.0,0.0,0.0,0.0,0.0,0.0,0.0,0.0,0.0,0.0,0.0,0.0,0.0,0.0,0.0,0.0,0.0,0.0,0.0,0.0,0.0,0.0,0.0,0.0,0.0,0.0,0.0,0.0,0.0,0.0,0.0,0.0,0.0,0.0,0.0,0.0,0.0,0.0,0.0,0.0,0.0,0.0,0.0,0.0,0.0,0.0,0.0,0.0,0.0,0.0,0.0,0.0,0.0,0.0,0.0,0.0,0.0,0.0,0.0,0.0,0.0,0.0,0.0,0.0,0.0,0.0,0.0,0.0,0.0,0.0,0.0,0.0,0.0,0.0,0.0,0.0,0.0,0.0,0.0,0.0,0.0,0.0,0.0,0.0,0.0,0.0,0.0,0.0,0.0,0.0,0.0,0.0,0.0,2.3279,2.4734,2.6297,2.6738,2.7269,2.7946,2.721,2.6384,2.5658,0.0,0.0,0.0,0.0,0.0,0.0,0.0,0.0,0.0,0.0,0.0,0.0,0.0,0.0,0.0,0.0,0.0,0.0,0.0,0.0,0.0,0.0,0.0,0.0,0.0,0.0,0.0,0.0,0.0,0.0,0.0,0.0,0.0,0.0,0.0,0.0,0.0,0.0,0.0,0.0,0.0,0.0,0.0,0.0,0.0,0.0,0.0,0.0,0.0,0.0,0.0,0.0,0.0,0.0,0.0,0.0,0.0,0.0,0.0,0.0,0.0,0.0,0.0,0.0,0.0,0.0,0.0,0.0,0.0,0.0,0.0,0.0,0.0,0.0,0.0,0.0,0.0,0.0,0.0,0.0,0.0,0.0,0.0,0.0,0.0,0.0,0.0,0.0,0.0,0.0,0.0,0.0,0.0,0.0,0.0,0.0,0.0,0.0,0.0,0.0,0.0,0.0,2.1609,2.3006,2.4515,2.6039,2.6641,2.7152,2.7742,2.705,2.607,2.491,0.0,0.0,0.0,0.0,0.0,0.0,0.0,0.0,0.0,0.0,0.0,0.0,0.0,0.0,0.0,0.0,0.0,0.0,0.0,0.0,0.0,0.0,0.0,0.0,0.0,0.0,0.0,0.0,0.0,0.0,0.0,0.0,0.0,0.0,0.0,0.0,0.0,0.0,0.0,0.0,0.0,0.0,0.0,0.0,0.0,0.0,0.0,0.0,0.0,0.0,0.0,0.0,0.0,0.0,0.0,0.0,0.0,0.0,0.0,0.0,0.0,0.0,0.0,0.0,0.0,0.0,0.0,0.0,0.0,0.0,0.0,0.0,0.0,0.0,0.0,0.0,0.0,0.0,0.0,0.0,0.0,0.0,0.0,0.0,0.0,0.0,0.0,0.0,0.0,0.0,0.0,0.0,0.0,0.0,0.0,0.0,0.0,0.0,0.0,0.0,0.0,0.0,2.1163,2.3376,2.539,2.6674,2.7027,2.7615,2.9,2.6549,2.5124,0.0,0.0,0.0,0.0,0.0,0.0,0.0,0.0,0.0,0.0,0.0,0.0,0.0,0.0,0.0,0.0,0.0,0.0,0.0,0.0,0.0,0.0,0.0,0.0,0.0,0.0,0.0,0.0,0.0,0.0,0.0,0.0,0.0,0.0,0.0,0.0,0.0,0.0,0.0,0.0,0.0,0.0,0.0,0.0,0.0,0.0,0.0,0.0,0.0,0.0,0.0,0.0,0.0,0.0,0.0,0.0,0.0,0.0,0.0,0.0,0.0,0.0,0.0,0.0,0.0,0.0,0.0,0.0,0.0,0.0,0.0,0.0,0.0,0.0,0.0,0.0,0.0,0.0,0.0,0.0,0.0,0.0,0.0,0.0,0.0,0.0,0.0,0.0,0.0,0.0,0.0,0.0,0.0,0.0,0.0,0.0,0.0,0.0,0.0,0.0,0.0,0.0,0.0,2.2057,2.3967,2.5714,2.7119,2.7429,2.7866,2.8518,2.7471,2.602,2.4395,0.0,0.0,0.0,0.0,0.0,0.0,0.0,0.0,0.0,0.0,0.0,0.0,0.0,0.0,0.0,0.0,0.0,0.0,0.0,0.0,0.0,0.0,0.0,0.0,0.0,0.0,0.0,0.0,0.0,0.0,0.0,0.0,0.0,0.0,0.0,0.0,0.0,0.0,0.0,0.0,0.0,0.0,0.0,0.0,0.0,0.0,0.0,0.0,0.0,0.0,0.0,0.0,0.0,0.0,0.0,0.0,0.0,0.0,0.0,0.0,0.0,0.0,0.0,0.0,0.0,0.0,0.0,0.0,0.0,0.0,0.0,0.0,0.0,0.0,0.0,0.0,0.0,0.0,0.0,0.0,0.0,0.0,0.0,0.0,0.0,0.0,0.0,0.0,0.0,0.0,0.0,0.0,0.0,0.0,0.0,0.0,0.0,0.0,0.0,0.0,0.0,0.0,2.2375,2.3973,2.5419,2.6785,2.7358,2.7868,2.8428,2.7929,2.6559,2.4268,0.0,0.0,0.0,0.0,0.0,0.0,0.0,0.0,0.0,0.0,0.0,0.0,0.0,0.0,0.0,0.0,0.0,0.0,0.0,0.0,0.0,0.0,0.0,0.0,0.0,0.0,0.0,0.0,0.0,0.0,0.0,0.0,0.0,0.0,0.0,0.0,0.0,0.0,0.0,0.0,0.0,0.0,0.0,0.0,0.0,0.0,0.0,0.0,0.0,0.0,0.0,0.0,0.0,0.0,0.0,0.0,0.0,0.0,0.0,0.0,0.0,0.0,0.0,0.0,0.0,0.0,0.0,0.0,0.0,0.0,0.0,0.0,0.0,0.0,0.0,0.0,0.0,0.0,0.0,0.0,0.0,0.0,0.0,0.0,0.0,0.0,0.0,0.0,0.0,0.0,0.0,0.0,0.0,0.0,0.0,0.0,0.0,0.0,0.0,0.0,0.0,0.0,2.2384,2.3694,2.4871,2.6203,2.7067,2.7806,2.8607,2.8109,2.6938,2.4926,0.0,0.0,0.0,0.0,0.0,0.0,0.0,0.0,0.0,0.0,0.0,0.0,0.0,0.0,0.0,0.0,0.0,0.0,0.0,0.0,0.0,0.0,0.0,0.0,0.0,0.0,0.0,0.0,0.0,0.0,0.0,0.0,0.0,0.0,0.0,0.0,0.0,0.0,0.0,0.0,0.0,0.0,0.0,0.0,0.0,0.0,0.0,0.0,0.0,0.0,0.0,0.0,0.0,0.0,0.0,0.0,0.0,0.0,0.0,0.0,3.2829,0.0,0.0,0.0,0.0,0.0,0.0,0.0,0.0,0.0,0.0,0.0,0.0,0.0,0.0,0.0,0.0,0.0,0.0,0.0,0.0,0.0,0.0,0.0,0.0,0.0,0.0,0.0,0.0,0.0,0.0,0.0,0.0,0.0,0.0,0.0,0.0,0.0,0.0,0.0,0.0,0.0,2.3464,2.4536,2.5825,2.7711,2.8244,2.8817,2.9522,2.8837,2.7552,2.5854,2.3395,0.0,0.0,0.0,0.0,0.0,0.0,0.0,0.0,0.0,0.0,0.0,0.0,0.0,0.0,0.0,0.0,0.0,0.0,0.0,0.0,0.0,0.0,0.0,0.0,0.0,0.0,0.0,0.0,0.0,0.0,0.0,0.0,0.0,0.0,0.0,0.0,0.0,0.0,0.0,0.0,0.0,0.0,0.0,0.0,0.0,0.0,0.0,0.0,0.0,0.0,0.0,0.0,0.0,0.0,0.0,0.0,0.0,0.0,0.0,0.0,3.5039,0.0,0.0,0.0,0.0,0.0,0.0,0.0,0.0,0.0,0.0,0.0,0.0,0.0,0.0,0.0,0.0,0.0,0.0,0.0,0.0,0.0,0.0,0.0,0.0,0.0,0.0,0.0,0.0,0.0,0.0,0.0,0.0,0.0,0.0,0.0,0.0,0.0,0.0,0.0,0.0,2.3731,2.4486,2.5586,2.7589,2.8235,2.8704,2.9203,2.8796,2.7681,2.5633,2.3527,0.0,0.0,0.0,0.0,0.0,0.0,0.0,0.0,0.0,0.0,0.0,0.0,0.0,0.0,0.0,0.0,0.0,0.0,0.0,0.0,0.0,0.0,0.0,0.0,0.0,0.0,0.0,0.0,0.0,0.0,0.0,0.0,0.0,0.0,0.0,0.0,0.0,0.0,0.0,0.0,0.0,0.0,0.0,0.0,0.0,0.0,0.0,0.0,0.0,0.0,0.0,0.0,0.0,3.8588,3.9811,4.0472,4.0593,4.1108,4.1759,3.9547,3.9125,3.9832,3.7642,0.0,0.0,0.0,0.0,0.0,0.0,0.0,0.0,0.0,0.0,0.0,0.0,0.0,0.0,0.0,0.0,0.0,0.0,0.0,0.0,0.0,0.0,0.0,0.0,2.8486,2.8233,2.5104,0.0,0.0,0.0,0.0,0.0,0.0,0.0,0.0,0.0,0.0,0.0,2.3968,2.4531,2.531,2.7046,2.7855,2.8298,2.8492,2.854,2.7602,2.5314,2.3476,2.1833,0.0,0.0,0.0,0.0,0.0,0.0,0.0,0.0,0.0,0.0,0.0,0.0,0.0,0.0,0.0,0.0,0.0,0.0,0.0,0.0,0.0,0.0,0.0,0.0,0.0,0.0,0.0,0.0,0.0,0.0,0.0,0.0,3.1162,3.2228,0.0,0.0,0.0,0.0,0.0,0.0,0.0,0.0,0.0,0.0,0.0,0.0,0.0,3.647,3.8765,4.0545,4.1821,4.2612,4.3631,4.4584,4.5416,4.4191,4.4131,4.4959,4.4098,0.0,4.1093,3.9844,0.0,0.0,0.0,0.0,0.0,0.0,0.0,0.0,0.0,0.0,0.0,0.0,0.0,0.0,0.0,0.0,0.0,0.0,0.0,0.0,0.0,0.0,3.1344,2.9834,3.0053,3.031,0.0,2.6636,2.4554,2.4394,2.2367,0.0,0.0,0.0,0.0,0.0,0.0,0.0,2.5244,2.5847,2.6492,2.7339,2.8051,2.8492,2.8492,2.854,2.7781,2.5831,2.4079,2.2778,2.1983,2.0127,0.0,0.0,0.0,0.0,0.0,0.0,0.0,0.0,0.0,0.0,0.0,0.0,0.0,0.0,0.0,0.0,0.0,0.0,0.0,0.0,0.0,0.0,0.0,0.0,0.0,0.0,0.0,0.0,0.0,3.2269,3.3824,3.3975,3.4344,3.3992,0.0,0.0,0.0,0.0,0.0,0.0,0.0,0.0,0.0,4.0254,3.9924,4.0681,4.2745,4.4049,4.4858,4.5238,4.623,4.6972,4.7346,4.6827,4.6836,4.7192,4.6422,4.5563,4.452,4.2603,4.1351,4.0493,0.0,0.0,0.0,0.0,3.6941,3.6738,3.8443,3.8796,3.8423,3.8228,0.0,0.0,0.0,0.0,0.0,0.0,0.0,0.0,0.0,0.0,3.2692,3.2091,3.2154,3.2182,3.1589,2.9863,2.798,0.0,2.5297,2.3783,2.2125,0.0,0.0,0.0,0.0,2.4847,2.6171,2.6572,2.709,2.8141,2.8519,2.8447,2.7803,2.8112,2.7428,2.5182,2.394,2.3032,2.2508,2.1146,1.9842,0.0,0.0,0.0,0.0,0.0,0.0,0.0,0.0,0.0,0.0,0.0,0.0,0.0,0.0,0.0,0.0,0.0,0.0,0.0,0.0,0.0,0.0,0.0,0.0,0.0,0.0,0.0,0.0,3.4598,3.6293,3.6031,3.7048,3.6899,0.0,0.0,0.0,0.0,0.0,0.0,3.8546,3.8665,4.0308,4.3846,4.3769,4.4382,4.5876,4.6822,4.73,4.7314,4.8375,4.8914,4.8933,4.8879,4.8879,4.8839,4.7969,4.7586,4.7384,4.4793,4.3279,4.2418,4.0671,3.9903,3.9756,3.952,3.9427,3.9705,4.171,4.226,4.1931,4.0927,3.9851,3.8265,3.4701,0.0,0.0,0.0,0.0,3.3932,3.4984,3.4604,3.3933,3.3924,3.3783,3.3559,3.323,3.2344,3.1029,0.0,2.7923,2.6734,2.4501,0.0,0.0,2.4129,2.5322,2.6567,2.7371,2.7616,2.8017,2.8798,2.8843,2.8379,2.7264,2.7639,2.6911,2.4525,2.3956,2.3365,2.2677,2.1926,2.0653,1.8902,0.0,0.0,0.0,0.0,0.0,0.0,0.0,0.0,0.0,0.0,0.0,0.0,0.0,0.0,0.0,0.0,0.0,0.0,0.0,0.0,0.0,0.0,0.0,0.0,0.0,0.0,0.0,0.0,0.0,3.8904,3.9013,0.0,0.0,0.0,0.0,3.7294,3.909,4.1212,4.3618,4.3788,4.5072,4.7818,4.7049,4.7165,4.8307,4.9249,4.9713,4.9732,5.0616,5.1081,5.1101,5.0234,4.9861,4.9879,4.8996,4.8619,4.8423,4.5748,4.4354,4.3811,4.2945,4.2344,4.1942,4.1933,4.193,4.2053,4.2943,4.2735,4.2205,4.2894,4.0998,3.8215,3.7042,3.6067,0.0,0.0,3.5716,3.631,3.5956,3.5899,3.5725,3.4941,3.4414,3.4054,3.4018,3.3459,3.2507,0.0,2.9439,2.8095,2.7963,0.0,2.7203,2.7815,2.8468,2.8937,2.897,2.9494,2.96,2.9066,2.8984,2.8512,2.7287,2.723,2.6451,2.45,2.4374,2.3923,2.2957,2.1991,2.1247,2.0674,1.7994,0.0,0.0,0.0,0.0,0.0,0.0,0.0,0.0,0.0,0.0,0.0,0.0,0.0,0.0,0.0,0.0,0.0,0.0,0.0,0.0,0.0,0.0,0.0,0.0,0.0,0.0,0.0,0.0,4.0133,4.1638,0.0,4.0053,4.052,4.1051,4.1374,4.256,4.4139,4.6113,4.6248,4.7195,4.9232,4.8924,4.9203,5.017,5.0452,5.061,5.0615,5.0971,5.1148,5.1164,5.0816,5.0685,5.0658,4.9827,4.951,4.9426,4.79,4.684,4.6034,4.4595,4.3898,4.3631,4.3027,4.3095,4.3569,4.3829,4.4072,4.4069,4.3095,4.1521,3.9814,3.8757,3.7939,3.7322,3.721,3.723,3.7238,3.6949,3.6689,3.6329,3.5565,3.5001,3.4594,3.4378,3.4197,3.3745,3.2568,3.1146,2.9885,2.905,2.8621,2.8292,2.7886,2.8983,2.9748,2.9289,2.9397,2.9594,2.9794,2.8725,2.7708,2.7033,2.6644,2.5648,2.3774,2.3548,2.3341,2.2974,2.2033,2.1272,2.0731,1.884,1.7214,0.0,0.0,0.0,0.0,0.0,0.0,0.0,0.0,0.0,0.0,0.0,0.0,0.0,0.0,0.0,0.0,0.0,0.0,0.0,0.0,0.0,0.0,0.0,0.0,0.0,4.0117,4.2136,4.2068,4.3896,4.4529,4.286,4.3976,4.4831,4.4831,4.557,4.6664,4.8093,4.8125,4.8762,5.0186,5.0186,5.0468,5.1082,5.1063,5.103,5.1035,5.1089,5.1102,5.1102,5.1054,5.103,5.1013,5.0488,5.0258,5.0176,4.9419,4.8567,4.7592,4.6147,4.5346,4.4932,4.4285,4.4357,4.4769,4.4771,4.4886,4.4824,4.3542,4.2447,4.1437,4.0589,3.9768,3.9121,3.8771,3.8361,3.7893,3.7542,3.7266,3.6907,3.6172,3.5671,3.5261,3.4871,3.4875,3.4606,3.3631,3.2671,3.157,3.0272,2.9802,2.943,2.899,2.9721,3.0206,2.9768,2.9708,2.967,2.9685,2.854,2.7441,2.6553,2.6317,2.5453,2.3633,2.3441,2.3154,2.2643,2.182,2.1067,2.0366,1.847,1.6638,1.483,0.0,0.0,0.0,0.0,0.0,0.0,0.0,0.0,0.0,0.0,0.0,0.0,0.0,0.0,0.0,0.0,0.0,0.0,0.0,0.0,0.0,0.0,0.0,3.9218,4.1588,4.3747,4.4815,4.565,4.6183,4.6269,4.6986,4.7462,4.7468,4.8143,4.8895,4.9695,4.9614,4.9963,5.0861,5.09,5.095,5.108,5.1063,5.1047,5.1029,5.1029,5.1009,5.1009,5.0894,5.0836,5.0836,5.0921,5.0849,5.0644,5.0114,4.9317,4.8319,4.7579,4.6683,4.5797,4.5722,4.5708,4.5707,4.5698,4.5099,4.4352,4.4395,4.3772,4.2926,4.246,4.167,4.0741,3.9779,3.9063,3.8382,3.7685,3.7596,3.7504,3.6776,3.6367,3.6028,3.5667,3.5462,3.5179,3.4447,3.3921,3.3115,3.176,3.097,3.0703,3.1278,3.0896,0.0,3.045,3.0464,2.9964,2.8725,2.854,2.7748,2.6051,2.6376,2.5933,2.4157,2.4062,2.3369,2.1922,2.1321,2.0538,1.9499,1.6805,1.4212,1.1724,0.0,0.0,0.0,0.0,0.0,0.0,0.0,0.0,0.0,0.0,0.0,0.0,0.0,0.0,0.0,0.0,0.0,0.0,0.0,0.0,0.0,3.9213,4.0712,4.1216,4.2985,4.4595,4.558,4.6538,4.7366,4.802,4.8328,4.8701,4.9248,4.9465,4.9926,5.0676,5.0622,5.0701,5.0953,5.0934,5.081,5.068,5.0327,4.9973,4.9578,4.9485,4.9332,4.9138,4.9363,4.9447,4.9475,4.9822,5.001,5.0048,5.0202,4.9412,4.806,4.75,4.6733,4.5938,4.5877,4.5782,4.5709,4.5695,4.5531,4.5214,4.4542,4.4054,4.3541,4.2601,4.203,4.1447,4.0203,3.9743,3.9305,3.8178,3.7897,3.7774,3.7129,3.6638,3.614,3.5459,3.5809,3.5651,3.3748,3.4001,3.3893,3.1887,3.097,3.0208,2.9407,2.958,0.0,2.9093,2.903,2.9345,3.0086,2.8895,2.7856,2.7412,2.6757,2.5222,2.2531,2.2343,2.1893,2.0928,1.9749,1.8448,1.7009,1.5794,1.4317,0.0,0.0,0.0,0.0,0.0,0.0,0.0,0.0,0.0,0.0,0.0,0.0,0.0,0.0,0.0,0.0,0.0,0.0,0.0,0.0,0.0,0.0,4.1155,4.2829,4.3665,4.4943,4.6138,4.7103,4.8048,4.8955,4.9809,4.9871,5.0033,5.0472,5.041,5.0548,5.0991,5.0928,5.0861,5.0861,5.0698,5.0529,5.0392,4.9935,4.9513,4.9119,4.8952,4.8735,4.8494,4.8684,4.8735,4.8768,4.907,4.9249,4.9321,4.9682,4.9157,0.0,0.0,0.0,0.0,0.0,4.5817,4.5749,4.5742,4.5725,4.561,4.506,4.4727,4.438,4.3582,4.2944,4.2219,4.0873,4.0277,3.9693,3.8352,3.7984,3.7845,3.7223,3.6736,3.6165,3.5374,3.5544,3.54,3.3756,3.3846,0.0,3.2053,3.0999,3.0208,2.9532,2.9421,2.917,2.8675,2.8546,2.8789,2.947,2.8461,2.7696,2.7501,2.6791,0.0,0.0,0.0,2.1713,2.0214,1.9019,0.0,0.0,0.0,0.0,0.0,0.0,0.0,0.0,0.9343,0.893,0.0,0.0,0.0,0.0,0.0,0.0,0.0,0.0,0.0,0.0,0.0,0.0,0.0,0.0,0.0,0.0,4.3233,4.5071,4.5974,4.6937,4.7874,4.8786,4.9668,5.0523,5.132,5.1289,5.1203,5.1189,5.1006,5.0895,5.0895,0.0,0.0,0.0,0.0,5.0183,5.0111,4.9728,4.9389,4.9159,4.8963,4.8744,4.8447,4.8396,4.8325,4.8325,4.8497,4.8587,4.8577,4.8946,4.869,4.8088,4.812,4.7101,4.5645,4.5771,4.5802,4.5806,4.5807,0.0,0.0,4.5706,4.5531,4.5243,4.4915,4.414,4.309,4.1675,4.0725,3.9822,3.8464,3.8056,3.781,3.7203,3.6696,3.6147,3.5295,3.4988,3.4667,3.3963,3.3567,3.3054,3.212,3.1042,3.0389,3.0584,2.9685,2.8958,2.8739,2.8546,2.8325,2.788,0.0,0.0,2.6737,2.6574,2.5792,2.4064,2.3282,2.1843,1.949,1.8676,1.7647,1.631,1.5423,1.4311,1.29,1.2251,1.1322,1.0253,1.0115,0.9505,0.0,0.0,0.0,0.0,0.0,0.0,0.0,0.0,0.0,0.0,0.0,0.0,0.0,0.0,0.0,4.2717,4.4138,4.5236,4.6065,4.7489,4.8568,4.8866,4.966,5.0523,5.1316,5.1279,5.1166,5.1056,5.0962,5.0856,5.0741,5.0702,5.0584,5.0313,5.023,4.9987,4.9558,4.9209,4.881,4.8347,0.0,0.0,4.7391,4.7494,4.7367,4.715,4.7787,4.8141,4.831,4.881,4.8371,4.7273,4.7084,4.6499,4.5752,4.58,4.5792,4.5795,4.5798,4.5787,4.5765,4.5735,4.5601,4.54,4.5007,4.47,0.0,4.2327,4.139,4.0551,3.9103,3.8313,3.781,3.7411,3.6689,3.5848,3.4998,3.4873,3.4551,3.2982,3.3404,3.3528,3.2042,3.0925,3.0072,2.9442,2.8839,2.843,2.8262,2.8197,2.819,2.8257,2.7786,2.714,2.6524,2.5981,2.4743,2.2516,2.0664,1.9214,1.8111,1.7168,1.6336,1.5423,1.4446,1.3768,1.3443,1.2749,1.2058,1.1309,1.0306,0.941,0.0,0.0,0.0,0.0,0.0,0.0,0.0,0.0,0.0,0.0,0.0,3.7729,3.994,0.0,4.2225,4.3962,4.4979,4.5687,4.6093,4.7241,4.8211,4.8679,4.9873,5.0809,5.1206,5.1134,5.1018,5.0952,5.0852,5.076,5.0702,5.0702,5.0624,5.0462,5.0178,4.9884,4.9598,4.9104,4.8658,4.8269,4.8114,4.7752,4.7214,4.7107,4.6944,4.6637,4.7266,4.7614,4.7828,4.8231,4.7835,4.6984,4.6666,4.6203,4.5708,4.5786,4.5804,4.5799,4.58,4.5802,4.5797,4.5766,4.5565,4.5302,4.503,4.4808,4.4261,4.2617,4.1629,4.0756,3.9373,3.8239,3.7411,3.7167,3.6305,3.5318,3.4495,3.4212,3.3752,3.2609,3.2865,3.2974,3.1898,3.1131,3.0288,2.9111,2.8801,2.8529,2.8039,2.7934,2.794,2.8126,2.7153,2.6334,2.5968,2.5052,2.3802,2.2143,2.0698,1.9261,1.7891,1.7217,1.6533,1.578,1.471,1.4283,1.4633,1.341,1.2441,1.1646,1.0645,0.9775,0.0,0.0,0.0,0.0,0.0,0.0,0.0,3.6274,3.7109,3.9094,3.9388,4.0017,4.2405,4.3286,4.3966,4.4952,4.567,4.6096,4.6078,4.6771,4.7525,4.8165,4.978,5.0837,5.0836,5.0808,5.0797,5.08,5.0625,5.0523,5.0523,5.0565,5.0584,5.0523,5.0038,4.9757,4.9721,4.9123,4.8732,4.8495,4.8345,4.7977,4.75,4.7266,4.6954,4.6619,4.7089,4.7288,4.7347,4.7548,4.7255,4.6629,4.6321,4.5937,4.5613,4.5737,4.58,4.5806,4.5795,4.5799,4.5796,4.5809,4.5545,4.5222,4.5074,4.4764,4.4204,4.2885,4.1889,4.0891,3.9643,3.829,3.7129,3.6895,3.5882,3.4828,3.4169,3.3563,3.3039,3.2492,3.2382,3.2216,3.1667,3.1146,3.0454,2.9152,2.896,2.8685,2.7865,2.7612,2.7447,2.7387,2.6051,2.5076,2.4824,2.376,2.2819,2.2047,2.1086,1.9798,1.8118,1.7596,1.7025,1.6382,1.5357,1.4969,1.5366,1.3923,1.2628,1.1646,1.0929,1.0179,3.45,3.376,3.3805,3.6089,3.5667,3.5853,0.0,4.0174,3.9857,4.2276,4.279,4.3167,4.4245,4.4502,4.4842,4.5731,4.6003,4.608,4.6016,4.6499,4.6877,4.6892,4.8711,4.9938,4.9943,5.027,5.0452,5.0471,5.0107,4.991,4.991,5.0135,5.0135,4.991,4.983,4.9684,4.9457,4.9094,4.8874,4.882,4.882,4.8623,4.8251,4.8192,4.7793,4.7214,4.7679,4.756,4.7057,4.7085,4.6571,4.5806,4.5468,4.5438,4.5613,4.5737,4.58,4.5806,4.5795,4.5799,4.5796,4.5796,4.5613,4.5342,4.5222,4.4976,4.4557,4.3624,4.24,4.1188,4.0455,3.885,3.7358,3.6978,3.5805,3.4622,3.4119,3.3563,3.3039,3.2492,3.2461,3.221,3.1248,3.0673,3.0081,2.9183,2.875,2.8158,2.7368,2.7045,2.6539,2.5581,2.4625,2.3538,2.239,2.1924,2.1596,2.1274,1.9889,1.8874,1.8313,1.7573,1.6917,1.6329,1.5815,1.5134,1.4201,1.3968,1.2958,1.1266,1.1006,1.0233,3.6836,3.6599,3.6668,3.8084,3.8688,3.947,4.1429,4.1776,4.2093,4.3524,4.3775,4.4051,4.499,4.5098,4.5413,4.6532,4.6684,4.6611,4.6439,4.7011,4.7162,4.6459,4.7965,4.9295,4.9812,5.0402,5.0765,5.0765,5.0601,5.0296,4.9822,4.991,4.9936,4.9784,4.9655,4.942,4.9099,4.8783,4.8623,4.8623,4.8623,4.855,4.8383,4.8326,4.8151,4.7856,4.7609,4.7534,4.7568,4.6919,4.641,4.6013,4.5598,4.5496,4.5622,4.5742,4.58,4.5806,4.5795,4.5799,4.5804,4.5796,4.5613,4.5381,4.5302,4.5045,4.4648,4.3881,4.2588,4.1188,4.0329,3.8587,3.6943,3.6638,3.5369,3.4169,3.4036,3.3303,3.2641,3.2437,3.2216,3.1807,3.1131,3.0918,3.052,2.9525,2.9195,2.8988,2.8675,2.7495,2.5895,2.3758,2.3207,2.2657,2.1958,2.1363,2.0818,2.0571,1.9536,1.8443,1.7414,1.7147,1.6639,1.6005,1.5111,1.4602,1.4388,1.2971,1.1873,1.1096,1.0341,0.9557,3.7983,3.8082,3.8362,3.9472,4.0713,4.1803,4.2283,4.2972,4.3609,4.397,4.4191,4.4426,4.4876,4.5074,4.5552,4.6725,4.6865,4.6856,4.6895,4.7329,4.7308,4.643,4.7511,4.8683,4.9542,5.0373,5.0893,5.0893,5.0786,5.0398,4.9588,4.9637,4.9693,4.9693,4.9499,4.9283,4.9034,4.8604,4.8383,4.8383,4.8383,4.8383,4.8383,4.8364,4.8402,4.8421,4.7638,4.7476,4.7736,4.6814,4.6297,4.6082,4.5745,4.5671,4.5746,4.5828,4.5833,4.5806,4.5795,4.5799,4.5804,4.5796,4.5613,4.54,4.5342,4.5026,4.4576,4.3992,4.2754,4.1369,4.02,3.8496,3.6946,3.6419,3.5098,3.3917,3.3986,3.3161,3.2342,3.2231,3.1838,3.1379,3.0911,3.0747,3.0466,2.9694,2.9512,2.9421,2.9254,2.7244,2.5,2.2738,2.2221,2.1855,2.1325,2.0662,2.0048,1.9463,1.8862,1.7956,1.6607,1.6631,1.6407,1.5778,1.4684,1.4156,1.4042,1.223,1.1075,1.0554,0.9694,0.8999,3.7308,3.704,3.7599,3.9966,4.0602,4.1262,4.3592,4.4187,4.4153,4.3776,4.4443,4.4763,4.3763,4.4298,4.5181,4.5998,4.6178,4.6487,4.7262,4.7121,4.692,4.6883,4.7367,4.8032,4.885,4.9954,5.0616,5.0616,5.0288,4.978,4.898,4.9257,4.9396,4.9396,4.9396,4.9415,4.9365,4.873,4.8383,4.8383,4.8383,4.8383,4.8383,4.8383,4.8568,4.8841,4.8114,4.75,4.7019,4.6651,4.6148,4.5629,4.5673,4.5856,4.6079,4.6025,4.5903,4.5806,4.5795,4.5799,4.5804,4.5796,4.5613,4.54,4.54,4.4943,4.4327,4.4004,4.3079,4.1821,4.0287,3.8982,3.7767,3.6582,3.5111,3.3986,3.3986,3.3161,3.2287,3.1781,3.1321,3.0851,3.0372,2.9927,2.9624,2.9517,2.9265,2.8878,2.8312,2.5765,2.3616,2.2803,2.1841,2.0892,1.9944,1.9573,1.8934,1.7825,1.743,1.6977,1.6337,1.6286,1.6073,1.5625,1.4896,1.3974,1.2747,1.2083,1.089,0.9349,0.9349,0.8907,3.9093,3.9363,3.9637,4.1318,4.2202,4.2791,4.3279,4.3483,4.3326,4.2547,4.2425,4.2352,4.2034,4.2688,4.3821,4.5447,4.643,4.7226,4.7912,4.8334,4.8281,4.7579,4.8114,4.8816,4.9633,5.0035,5.0272,5.0272,5.0168,4.9763,4.8946,4.8993,4.9061,4.9061,4.9061,4.9057,4.9067,4.8604,4.8621,4.9006,4.9034,4.8974,4.8731,4.8746,4.8602,4.8334,4.7721,4.7112,4.6502,4.6224,4.5962,4.5747,4.5955,4.6052,4.61,4.6075,4.5958,4.5805,4.58,4.5804,4.5782,4.5703,4.5545,4.5381,4.53,4.4843,4.4327,4.4004,4.3098,4.1898,4.0584,3.9517,3.8353,3.653,3.5448,3.4568,3.3658,3.2895,3.2287,3.1781,3.1321,3.0851,3.0372,3.0239,3.0021,2.9561,2.8919,2.7947,2.6661,2.53,2.3899,2.2325,2.135,2.0501,1.989,1.861,1.7681,1.7344,1.6674,1.6054,1.5576,1.5734,1.5553,1.4904,1.3831,1.3336,1.3252,1.1753,1.0722,1.012,0.9864,0.9515,3.9985,4.0489,4.0921,4.2204,4.2753,4.2982,4.2857,4.2875,4.2548,4.11,4.0848,4.0763,4.0423,4.1058,4.2328,4.4512,4.5739,4.6892,4.8213,4.8733,4.8856,4.844,4.8758,4.9182,4.9633,4.993,5.0098,5.0098,5.0116,4.9763,4.8946,4.8909,4.8909,4.8909,4.8909,4.8906,4.8919,4.8711,4.876,4.9146,4.9196,4.909,4.889,4.8702,4.8478,4.8173,4.729,4.6793,4.6548,4.615,4.5955,4.597,4.6163,4.6187,4.6124,4.6105,4.6008,4.5861,4.5823,4.5803,4.5786,4.5645,4.551,4.5381,4.5256,4.4739,4.4184,4.3974,4.3188,4.2105,4.0748,3.9826,3.8735,3.6816,3.5556,3.4611,3.3763,3.2975,3.2231,3.1552,3.1204,3.0792,3.0144,2.9771,2.9457,2.9091,2.7897,2.6779,2.5815,2.5093,2.3982,2.2389,2.1382,2.0439,1.9646,1.8183,1.7153,1.6669,1.6063,1.5503,1.4969,1.5211,1.5091,1.4535,1.3512,1.3175,1.3348,1.1497,1.0722,1.0804,1.012,0.9859,4.0063,4.0485,4.1358,4.2511,4.2305,4.1913,4.2266,4.2316,4.1693,3.9519,3.9706,3.991,3.8797,3.941,4.0848,4.3222,4.4291,4.5731,4.8311,4.8456,4.8618,4.9314,4.9283,4.9113,4.8909,4.9596,5.0042,5.0042,5.0135,4.9819,4.8946,4.889,4.8874,4.8909,4.8909,4.8909,4.889,4.8934,4.893,4.893,4.8963,4.8915,4.8832,4.8353,4.8249,4.8306,4.6882,4.6545,4.6998,4.6351,4.6137,4.6197,4.6267,4.6248,4.6176,4.6123,4.6046,4.5957,4.5832,4.5793,4.5771,4.5629,4.5493,4.5342,4.5194,4.4546,4.3881,4.3849,4.332,4.239,4.0835,3.9867,3.8887,3.7369,3.555,3.4218,3.4187,3.3216,3.2048,3.1131,3.0896,3.0613,2.9727,2.8675,2.8012,2.8066,2.6483,2.5441,2.5861,2.4948,2.3874,2.2865,2.1751,2.0521,1.9291,1.8212,1.7144,1.5864,1.5708,1.533,1.4576,1.4828,1.4847,1.4603,1.396,1.3437,1.3124,1.1494,1.0901,1.1257,1.0212,0.9946,4.1237,4.1882,4.2145,4.1638,4.1865,4.1833,4.0247,3.989,3.9367,3.7503,3.6951,3.6624,3.5897,3.7851,4.0226,4.2127,4.4853,4.7325,4.9081,4.9202,4.9126,4.916,4.9046,4.8978,4.8909,4.9094,4.9206,4.9206,4.9584,4.9566,4.8946,4.866,4.866,4.8909,4.8909,4.8906,4.89,4.9311,4.9418,4.9283,4.9683,4.9334,4.8315,4.864,4.8114,4.6991,4.6819,4.6527,4.6194,4.6077,4.6077,4.6196,4.6214,4.6173,4.6114,4.6035,4.5949,4.5852,4.5815,4.5728,4.5613,4.5381,4.5182,4.4943,4.4455,4.3967,4.3572,4.3353,4.2734,4.1931,4.1121,4.0134,3.8957,3.7243,3.5745,3.4498,3.362,3.252,3.1537,3.0763,2.987,2.9149,2.8908,2.8495,2.8026,2.7497,2.6539,2.5918,2.5931,2.4696,2.3329,2.2219,2.1042,1.9811,1.8618,1.7397,1.6539,1.6178,1.5554,1.508,1.485,1.4791,1.4685,1.461,1.3655,1.3574,1.4402,1.2887,1.1927,1.1388,1.0871,1.0188,4.1735,4.2253,4.2368,4.1053,4.1142,4.0907,3.8538,3.8244,3.7922,3.5804,3.5154,3.484,3.4516,3.6381,3.8688,4.0763,4.3767,4.6542,4.8541,4.889,4.8996,4.922,4.9127,4.9012,4.8909,4.9224,4.928,4.8927,4.903,4.9049,4.8927,4.8587,4.8532,4.8909,4.8909,4.9023,4.9283,4.9239,4.9337,4.9627,4.947,4.8981,4.819,4.7965,4.7379,4.6529,0.0,4.6159,4.5959,4.6041,4.6154,4.6235,4.6216,4.6157,4.6085,4.6022,4.593,4.58,4.5805,4.5648,4.54,4.5203,4.5052,4.48,4.4175,4.3749,4.3437,4.3177,4.2462,4.1692,4.1213,4.0067,3.8656,3.752,3.6075,3.4752,3.4103,3.2913,3.1604,3.0401,2.9324,2.8522,2.8406,2.8262,2.7908,2.7108,2.6264,2.5627,2.5276,2.4299,2.3187,2.2072,2.0913,1.9841,1.888,1.7407,1.653,1.6529,1.5825,1.528,1.4821,1.4945,1.4878,1.4482,1.3878,1.3881,1.4507,1.2771,1.2072,1.2377,1.085,1.0101,4.1937,4.2137,4.2253,4.0647,4.025,3.9592,3.7103,3.7079,3.6858,3.4449,3.3899,3.3825,3.3761,3.4986,3.6849,3.9405,4.205,4.4758,4.7494,4.8133,4.8558,4.9234,4.922,4.9079,4.8909,4.954,4.9652,4.8946,4.8587,4.855,4.882,4.8495,4.8514,4.8909,4.882,4.9137,4.9803,4.9034,4.908,4.9943,4.8988,4.8426,4.8191,4.7033,4.6489,4.6455,4.5841,4.5738,4.6023,4.6148,4.6232,4.6273,4.6212,4.6151,4.6085,4.6007,4.5896,4.5766,4.5771,4.5526,4.518,4.5096,4.4943,4.4657,4.4058,4.367,4.3334,4.3087,4.2284,4.1516,4.1139,3.9665,3.8197,3.7806,3.6315,3.491,3.4987,3.3547,3.1764,3.0035,2.8999,2.8327,2.8079,2.7947,2.7603,2.6633,2.5767,2.4981,2.4276,2.3717,2.2979,2.1983,2.0971,2.0036,1.929,1.7743,1.6797,1.6698,1.6147,1.5531,1.4689,1.512,1.5106,1.4398,1.4398,1.4257,1.4142,1.2272,1.21,1.3442,1.0549,1.0019,4.2487,4.2379,4.1823,3.9869,3.9392,3.8754,3.6277,3.574,3.5238,3.3477,3.2838,3.2468,3.2012,3.3671,3.6027,3.9017,4.1605,4.4414,4.774,4.8198,4.8409,4.8915,4.8959,4.8943,4.8909,4.9039,4.9057,4.8909,4.8587,4.8421,4.8495,4.821,4.8326,4.8874,4.8458,4.876,4.9884,4.9134,4.93,5.0298,4.9516,4.8709,4.7862,4.7184,4.6557,4.5947,4.5857,0.0,4.6093,4.6177,4.6214,4.6216,4.6143,4.6074,4.6007,4.5877,4.5742,4.5629,4.5635,4.5419,4.5087,4.4973,4.4497,4.3912,4.3458,4.3105,4.277,4.2494,4.1709,4.0943,4.0896,3.9232,3.7589,3.7488,3.6013,3.4613,3.4738,3.2761,3.0595,2.9279,2.8306,2.7669,2.759,2.7255,2.6633,2.5697,2.4981,2.4276,2.335,2.2456,2.1603,2.0884,1.9904,1.8851,1.7882,1.7115,1.6585,1.6245,1.5582,1.5144,1.5011,1.4762,1.4537,1.4398,1.4243,1.4202,1.4182,1.35,1.2899,1.2317,1.1587,1.0458,4.2261,4.181,4.0998,3.9067,3.8819,3.8274,3.5143,3.4665,3.4326,3.2253,3.1721,3.1556,3.1297,3.2735,3.4664,3.678,3.9192,4.2023,4.5509,4.6398,4.7249,4.872,4.8909,4.8909,4.8909,4.8909,4.8909,4.8909,4.8587,4.8383,4.8383,4.8288,4.8439,4.8909,4.8605,4.8934,4.991,4.9252,4.916,4.9666,4.8735,4.7898,4.7103,4.6546,4.6101,4.581,4.5945,4.6038,4.6098,4.6203,4.6225,4.6195,4.6127,4.6065,4.5974,4.5781,4.561,4.5491,4.5419,4.5115,4.4745,4.4568,4.4214,4.3772,4.3321,4.2957,4.2595,4.2026,4.1356,4.0754,4.0449,3.8891,3.7429,3.7429,3.5875,3.4265,3.3877,3.2302,3.0539,2.9147,2.8287,2.7741,2.7442,2.6769,2.5975,2.5276,2.4325,2.3537,2.2767,2.1711,2.0924,2.0498,1.9747,1.8825,1.7722,1.7319,1.6802,1.6255,1.5672,1.5177,1.4748,1.4725,1.4562,1.4243,1.399,1.3894,1.3946,1.3114,1.2685,1.2626,1.137,1.0188,4.1707,4.1157,4.038,3.8635,3.8492,3.7885,3.4387,3.3947,3.366,3.1321,3.0878,3.0935,3.0975,3.1915,3.3108,3.4545,3.6635,3.9319,4.299,4.4456,4.6015,4.8404,4.8797,4.8909,4.8909,4.8909,4.8909,4.8909,4.855,4.8345,4.8383,4.8345,4.8514,4.8909,4.8857,4.9155,4.9884,4.9152,4.8859,4.9006,4.7819,4.6984,4.6549,4.5928,4.5712,4.5838,4.6027,4.6104,0.0,4.6256,4.6255,4.6164,4.6131,4.6046,4.5935,4.5735,4.5526,4.5343,4.5223,4.4872,4.443,4.4136,4.3893,4.3675,4.325,4.2882,4.2476,4.1692,4.1157,4.0659,3.9986,3.8619,3.731,3.7087,3.5597,3.4033,3.3154,3.1972,3.0683,2.9223,2.8451,2.7859,2.7304,2.6333,2.5475,2.4933,2.3829,2.2809,2.2252,2.1262,2.0547,2.044,1.9904,1.9172,1.8178,1.7606,1.6998,1.6369,1.5711,1.5085,1.4405,1.4545,1.448,1.4004,1.3737,1.3652,1.3561,1.2277,1.202,1.2705,1.0788,0.9749,4.1128,4.0926,4.0517,3.9219,3.8492,3.739,3.4823,3.3931,3.3168,3.1375,3.0855,3.0773,3.0871,3.0929,3.1596,3.3755,3.5164,3.7453,4.1662,4.3658,4.5455,4.7638,4.8479,4.8909,4.8909,4.8909,4.8909,4.8909,4.8364,4.8132,4.8383,4.8172,4.8344,4.9068,4.8911,4.9123,4.9784,4.8668,4.8438,4.9054,4.7448,4.6704,4.6759,4.6078,4.5858,4.5988,4.6065,4.6137,0.0,4.6277,4.6228,4.6099,4.6099,4.5988,4.5819,4.5795,4.5528,4.5222,4.5118,4.4814,4.4335,4.3949,4.356,4.3178,4.2864,4.2573,4.2228,4.1666,4.1157,4.0528,3.9458,3.8286,3.7131,3.5973,3.4957,3.4095,3.3352,3.1997,3.0521,2.9203,2.8376,2.7652,2.7114,2.5943,2.4921,2.4492,2.3327,2.2252,2.1655,2.1031,2.0566,2.0333,1.9696,1.9152,1.8709,1.7619,1.6886,1.6441,1.5187,1.451,1.4398,1.401,1.3763,1.3737,1.3568,1.3313,1.3137,1.2192,1.1585,1.1413,1.0361,0.9314,4.158,4.1722,4.151,4.0201,3.9382,3.8057,3.507,3.3914,3.2925,3.095,3.0568,3.0568,3.0626,3.0543,3.0858,3.197,3.2745,3.4526,3.82,3.9716,4.1903,4.5989,4.6799,4.7551,4.8869,4.8962,4.8616,4.7994,4.6905,4.6458,4.6948,4.7661,4.8181,4.8441,4.8404,4.8401,4.8485,4.7842,4.7593,4.778,4.6992,4.6417,4.6061,4.5877,4.5858,4.5988,4.6072,4.6127,0.0,4.6239,4.6149,4.6044,4.6003,4.5877,4.5712,4.5473,4.5223,4.4985,4.4714,4.4308,4.386,4.3545,4.3196,4.2864,4.275,4.2297,4.1727,4.122,4.0446,3.9578,3.8854,3.7674,3.6461,3.5073,3.4192,3.3408,3.2577,3.1562,3.0451,2.9512,2.8924,2.8248,2.6856,2.5757,2.4634,2.3508,2.2531,2.1568,2.0624,2.0235,1.9756,1.9195,1.8975,1.8576,1.7764,1.7041,1.6221,1.5228,1.4727,1.4314,1.3984,1.3822,1.3652,1.3483,1.3313,1.3137,1.3137,1.2015,1.1408,1.1322,1.0361,0.9376,4.138,4.1763,4.1631,4.056,3.9452,3.7955,3.5189,3.3785,3.253,3.0733,3.0485,3.0609,3.0485,3.0485,3.0584,3.079,3.1365,3.2804,3.5745,3.7013,3.9289,4.376,4.4633,4.5606,4.7599,4.7967,4.7716,4.682,4.576,4.5433,4.5972,4.6929,4.7518,4.7596,4.7673,4.7636,4.749,4.7053,4.6795,4.6724,4.6397,4.6013,4.558,4.5761,4.5918,4.6034,4.6099,4.6174,0.0,4.6183,4.6096,4.5983,4.5902,4.5812,4.5648,4.5284,4.5052,4.4843,4.4467,4.4017,4.3563,4.3304,4.292,4.2577,4.236,4.1931,4.1383,4.0737,3.963,3.8437,3.7863,3.689,3.5737,3.4499,3.363,3.2804,3.1942,3.1097,3.029,2.9563,2.9212,2.8525,2.6822,2.5577,2.4464,2.3058,2.2022,2.1031,1.9982,1.9678,1.9353,1.8621,1.8487,1.8086,1.7269,1.6542,1.5801,1.4803,1.4391,1.4062,1.373,1.3568,1.3483,1.3307,1.3052,1.2966,1.2966,1.158,1.0885,1.0885,0.9639,0.8649,4.0044,4.0502,4.0404,3.9833,3.8381,3.6661,3.5238,3.3478,3.1916,3.0883,3.079,3.0871,3.0733,3.0692,3.0692,3.0692,3.1539,3.2912,3.4995,3.6672,3.8589,4.0948,4.2056,4.3167,4.4617,4.5653,4.5992,4.5451,4.5334,4.549,4.5955,4.6009,4.6237,4.6682,4.6775,4.6936,4.7211,4.641,4.6114,4.6282,4.5703,4.5438,4.5507,4.5858,4.6026,4.6099,4.6164,4.6245,0.0,4.6157,4.6069,4.5986,4.5857,4.5761,4.5665,4.54,4.5118,4.4849,4.4519,4.4053,4.3563,4.3304,4.2844,4.2257,4.1525,4.141,4.1293,4.0285,3.8745,3.7251,3.66,3.5816,3.5001,3.4177,3.3367,3.2475,3.1663,3.0797,2.991,2.9327,2.9063,2.8425,2.701,2.5564,2.4329,2.3416,2.2066,2.0809,1.9756,1.9599,1.9441,1.9036,1.8247,1.7683,1.7658,1.6429,1.5696,1.5703,1.4475,1.3737,1.3737,1.3313,1.3143,1.3137,1.2875,1.2705,1.2705,1.0788,0.9923,0.984,0.7923,0.7066,3.7584,3.8548,3.9089,3.7896,3.692,3.5834,3.424,3.3152,3.2207,3.1223,3.1072,3.1072,3.0935,3.0855,3.1148,3.2168,3.2183,3.2794,3.4857,3.6112,3.7857,4.0677,4.3505,4.5387,4.5743,4.5276,4.4876,4.4669,4.3891,4.3663,4.4176,4.4211,4.4776,4.5985,4.6034,4.5986,4.5826,4.5332,4.538,4.5945,4.5591,4.5558,4.5859,4.5953,4.6054,4.6177,4.6199,4.6247,4.629,4.6102,4.5987,4.593,4.5777,4.5568,4.5323,4.5074,4.4776,4.4493,4.4023,4.349,4.3014,4.2732,4.2115,4.1321,4.075,4.0559,4.0234,3.8381,3.7144,3.6212,3.5559,3.4824,3.407,3.3311,3.2448,3.1663,3.0735,3.0292,3.0024,2.9694,2.8926,2.7927,2.6535,2.5363,2.4052,2.2726,2.2191,2.1176,1.9146,1.9291,1.8949,1.7383,1.7196,1.744,1.806,1.6609,1.5553,1.5206,1.4223,1.3568,1.3307,1.3143,1.3052,1.279,1.2705,1.2705,1.2705,1.0788,0.9209,0.7926,0.6983,0.6679,3.5693,3.6851,3.7547,3.635,3.5537,3.4712,3.3533,3.2659,3.193,3.1275,3.123,3.119,3.0716,3.0675,3.1016,3.1891,3.1759,3.2241,3.4381,3.5419,3.7092,4.0058,4.2959,4.4651,4.462,4.4218,4.3907,4.3775,4.319,4.3032,4.3493,4.3609,4.4141,4.52,4.5247,4.521,4.5074,4.4833,4.5094,4.5757,4.5545,4.5638,4.5998,4.6029,4.6078,4.6167,4.6228,4.6221,0.0,4.6037,4.5932,4.5838,4.5603,4.5381,4.5159,4.4776,4.4519,4.427,4.3656,4.3159,4.2657,4.2203,4.1286,4.0268,3.9578,3.9301,3.8929,3.7338,3.6415,3.5737,3.5052,3.4288,3.3506,3.2733,3.1869,3.1071,3.0152,2.9921,2.9831,2.9689,2.8767,2.7601,2.6473,2.5207,2.3949,2.2649,2.187,2.0727,1.8877,1.8481,1.7896,1.6445,1.6464,1.678,1.7488,1.6281,1.5304,1.5039,1.4055,1.3392,1.3143,1.2966,1.2881,1.2705,1.2705,1.2528,1.2089,1.0086,0.8368,0.6811,0.6564,0.65,0.0,3.5166,3.5545,3.5048,3.4122,3.3303,3.3035,3.2056,0.0,3.1055,3.123,3.119,3.029,3.03,3.0485,3.0507,3.0702,3.1614,3.3836,3.5037,3.6697,3.9496,4.102,4.1845,4.1908,4.2675,4.3087,4.292,4.3087,4.3356,4.3679,4.3936,4.4229,4.4487,4.4496,4.4648,4.4938,4.4857,4.5115,4.5715,4.5577,4.5688,4.6014,4.6075,4.6095,0.0,4.6245,4.6226,0.0,4.5949,4.5854,4.5757,4.5361,4.518,4.5096,4.4599,4.4346,4.4173,4.3419,4.2922,4.2462,4.1542,4.0394,3.9209,3.823,3.7847,3.7573,3.6951,3.6337,3.5672,3.5052,3.4153,3.3213,3.2464,3.1536,3.0607,2.9921,2.9599,2.9419,2.9419,2.845,2.7383,2.6637,2.5189,2.3857,2.2983,2.1325,1.9768,1.8818,1.7493,1.6528,1.6264,1.5965,1.5922,1.6394,1.5545,1.4956,1.4956,1.3802,1.3052,1.3052,1.279,1.2625,1.2643,1.2558,1.1946,1.0809,0.8893,0.7438,0.6378,0.6497,0.6519,3.0454,0.0,3.2337,3.2085,3.1666,3.1415,0.0,3.117,3.0895,3.0975,3.0935,3.0981,3.1248,3.0747,3.0843,3.255,3.2479,3.2978,3.5173,3.7551,3.9946,4.2093,4.2705,4.2905,4.2865,4.292,4.2957,4.2882,4.3142,4.3408,4.3679,4.3936,4.4229,4.4487,4.4655,4.4843,4.5137,4.5163,4.5399,4.5847,4.5723,4.5796,4.6083,4.6089,4.6134,4.6171,4.6258,0.0,4.6084,4.5959,4.5847,4.5765,4.5362,4.5052,4.4776,4.4457,4.4151,4.3814,4.3069,4.2408,4.1662,4.0068,3.9332,3.8882,3.7854,3.7175,3.6554,3.5961,3.5285,3.4735,3.4549,3.3451,3.2362,3.2218,3.0895,2.9716,2.9509,2.9353,2.9209,2.9209,2.7695,2.6449,2.6202,2.4629,2.3238,2.2911,2.1817,2.0474,1.915,1.8418,1.7658,1.6623,1.6543,1.6584,1.6744,1.5671,1.4873,1.4531,1.3633,1.3052,1.279,1.2705,1.2365,1.1772,1.0972,0.9901,0.8735,0.8057,0.7396,0.6509,0.6446,0.6426,2.9166,3.0148,3.1243,3.1106,3.1133,3.1175,3.1274,3.0949,3.0675,3.0651,3.0634,3.0692,3.0905,3.1066,3.1566,3.2608,3.3328,3.4508,3.681,3.8654,4.0477,4.2513,4.2714,4.279,4.305,4.2957,4.2957,4.305,4.3338,4.3612,4.3873,4.414,4.4402,4.4629,4.4843,4.5052,4.5201,4.5304,4.5522,4.5899,4.5827,4.5902,4.6098,4.6138,4.6178,4.6249,4.6273,0.0,4.5996,4.593,4.5815,4.5665,4.5163,4.4849,4.4669,4.424,4.3795,4.3356,4.2752,4.1757,4.0552,3.9385,3.8678,3.81,3.7207,3.6446,3.5897,3.5529,3.4905,3.4332,3.3962,3.2946,3.2001,3.1489,3.038,2.9341,2.9275,2.9118,2.8882,2.8462,2.7046,2.5797,2.5284,2.3963,2.2882,2.2618,2.1686,2.0515,1.9241,1.8269,1.7296,1.5965,1.5839,1.5727,1.5472,1.4891,1.4507,1.4384,1.3585,1.3016,1.2711,1.2825,1.2487,1.1557,0.9739,0.8555,0.7915,0.734,0.6893,0.646,0.6418,0.6377,2.9014,3.017,3.127,3.109,3.1314,3.1553,3.1384,3.0882,3.0435,3.0231,3.0368,3.0452,3.0382,3.1431,3.2303,3.2261,3.3997,3.6265,3.8695,3.9341,4.0263,4.2101,4.2221,4.236,4.2844,4.2882,4.3032,4.3267,4.3545,4.3809,4.4109,4.4335,4.4595,4.4776,4.5074,4.5203,4.5263,4.5399,4.5619,4.5905,4.5912,4.5977,4.6092,4.6167,4.6221,4.6289,0.0,0.0,4.593,4.591,4.579,4.5566,4.4988,4.4726,4.4617,4.4048,4.3513,4.2977,4.2329,4.0989,3.9506,3.8936,3.8157,3.7282,3.6446,3.574,3.5175,3.5059,3.4624,3.4045,3.3367,3.2577,3.1636,3.082,2.9935,2.9263,2.9118,2.8882,2.8474,2.7557,2.6483,2.54,2.4211,2.3299,2.2618,2.2353,2.1239,2.0051,1.9139,1.7697,1.626,1.5166,1.4734,1.4391,1.395,1.3944,1.3983,1.4287,1.3561,1.3079,1.2751,1.2733,1.2226,1.1181,0.8804,0.7607,0.7611,0.6693,0.6276,0.6295,0.6391,0.6437,2.8743,3.0371,3.1548,3.0533,3.0647,3.0884,3.0381,3.0092,2.9924,3.0017,3.006,3.0432,3.1628,3.1981,3.2536,3.4015,3.618,3.849,4.0755,4.1452,4.1978,4.2698,4.2862,4.288,4.2822,4.2862,4.3032,4.3267,4.3545,4.3809,4.4109,4.4335,4.4595,4.4776,4.5058,4.5304,4.5545,4.5733,4.5848,4.5886,4.5964,4.6026,4.6104,4.6167,4.6209,4.6221,0.0,4.6211,4.6057,4.5959,4.5859,4.5708,4.5225,4.4872,4.4572,4.4192,4.3795,4.3213,4.1669,4.0456,3.9385,3.8084,3.7519,3.7163,3.5961,3.5014,3.4225,3.3463,3.3353,3.3367,3.3213,3.1988,3.0833,3.0607,2.9704,2.887,2.887,2.8657,2.8247,2.7151,2.6152,2.5147,2.4049,2.3125,2.2353,2.2185,2.052,1.9231,1.888,1.6987,1.5657,1.5475,1.4759,1.4316,1.4223,1.4037,1.3805,1.3675,1.3519,1.3345,1.3027,1.1595,1.0515,0.9718,0.7798,0.6716,0.6529,0.6354,0.6317,0.6412,0.6429,0.6437,2.8086,2.9428,3.0749,3.1111,3.2328,3.3359,3.2985,3.2536,3.2184,3.1984,3.1876,3.215,3.3132,3.4174,3.5779,3.8654,3.9063,3.9792,4.194,4.1643,4.1543,4.2487,4.2555,4.2595,4.2824,4.29,4.3069,4.3477,4.3612,4.3873,4.4306,4.444,4.4648,4.5007,4.5144,4.5379,4.5757,4.588,4.596,4.596,4.5975,4.6037,4.6099,4.6177,4.6195,4.6208,0.0,4.6216,4.6091,4.5969,4.5852,4.5752,4.5285,4.4896,4.4501,4.345,4.2959,4.258,4.107,4.0169,3.9385,3.8149,3.7354,3.6707,3.5706,3.4714,3.3905,3.352,3.2946,3.229,3.1769,3.1044,3.0317,2.9781,2.9172,2.8803,2.8657,2.8075,2.7325,2.6318,2.5316,2.4221,2.3125,2.252,2.2176,2.1919,2.0529,1.933,1.8688,1.7109,1.5812,1.5159,1.4766,1.4502,1.4313,1.4212,1.4008,1.3743,1.3403,1.33,1.3344,1.1184,0.9914,0.9744,0.7593,0.6457,0.6361,0.6361,0.6385,0.6437,0.6437,0.6437,2.7637,2.874,3.0117,3.1716,3.333,3.471,3.5507,3.4911,3.4239,3.4354,3.4185,3.4159,3.4684,3.6361,3.8761,4.2198,4.1451,4.1117,4.3069,4.1995,4.1385,4.2465,4.2462,4.2501,4.2882,4.3032,4.3267,4.3679,4.3744,4.4017,4.4468,4.4515,4.47,4.5159,4.5206,4.5433,4.586,4.5968,4.6003,4.5991,4.6005,4.6047,4.6103,4.6147,4.6192,4.6191,4.6262,4.623,4.6138,4.5978,4.5863,4.5789,4.5362,4.4943,4.4401,4.3014,4.2378,4.2032,4.0972,4.0153,3.9437,3.8286,3.7247,3.6259,3.5593,3.4543,3.3632,3.3563,3.2533,3.1206,3.0696,3.0241,2.9781,2.8949,2.8724,2.8645,2.8419,2.7661,2.6648,2.5568,2.4553,2.3541,2.2176,2.1919,2.183,2.1553,2.0538,1.943,1.8395,1.7196,1.59,1.4783,1.4688,1.4496,1.4208,1.4106,1.4023,1.3826,1.3379,1.3257,1.342,1.1216,0.9942,0.9899,0.7822,0.6637,0.6437,0.6437,0.6437,0.6437,0.6437,0.6437,2.77,2.9141,3.0497,3.1912,3.178,3.2247,3.5715,3.5178,3.4432,3.6297,3.618,3.5847,3.6183,3.7578,3.946,4.1845,4.2492,4.3141,4.4487,4.3796,4.316,4.316,4.3304,4.325,4.292,4.3338,4.3646,4.3679,4.3936,4.4199,4.4468,4.4515,4.4648,4.5007,4.5185,4.547,4.58,4.5941,4.6005,4.5991,4.6005,4.6037,4.6095,4.6098,4.6143,4.62,4.6269,4.63,4.6269,4.6005,4.5899,4.5867,4.5594,4.5074,4.4438,4.3693,4.2884,4.2157,4.1664,4.0698,3.9385,3.8206,3.716,3.6259,3.5479,3.4206,3.2988,3.2846,3.1516,3.0254,3.0934,3.0012,2.887,2.8803,2.8486,2.8259,2.8259,2.7846,2.6917,2.521,2.4638,2.381,2.183,2.1482,2.1392,2.1087,2.0002,1.8988,1.8126,1.6749,1.554,1.4783,1.4496,1.4208,1.3931,1.3732,1.3528,1.3516,1.3454,1.3331,1.3108,1.1838,1.0667,0.9608,0.8223,0.7132,0.6437,0.6437,0.6437,0.6437,0.6437,0.6437,2.6483,2.833,3.0342,3.22,3.263,3.3417,3.672,3.7292,3.7594,3.922,3.9211,3.8814,3.8546,3.9583,4.0967,4.2466,4.3051,4.3684,4.4722,4.3959,4.3251,4.3214,4.316,4.3069,4.292,4.3232,4.3511,4.3679,4.3936,4.4258,4.4605,4.4632,4.4777,4.5096,4.5304,4.5541,4.58,4.5922,4.5997,4.6005,4.5997,4.6007,4.6037,4.6076,4.6111,4.6143,4.6208,4.6268,4.6297,4.6092,4.5978,4.5867,4.5416,4.4966,4.4474,4.3698,4.2923,4.2115,4.17,4.0685,3.9489,3.8603,3.7467,3.6322,3.5785,3.4558,3.3437,3.3534,3.206,3.0393,3.0317,2.9406,2.8578,2.8486,2.8327,2.8179,2.803,2.7278,2.6257,2.4861,2.4029,2.3096,2.1445,2.1293,2.1293,2.0997,1.9422,1.8319,1.8503,1.6365,1.4968,1.5159,1.4496,1.3925,1.3636,1.3545,1.3443,1.3249,1.325,1.3239,1.3141,1.1863,1.0685,0.9608,0.8418,0.7329,0.6437,0.6437,0.6437,0.6437,0.6437,0.6437,2.6483,2.8186,3.0156,3.2237,3.3091,3.4281,3.7505,3.856,3.9553,4.1978,4.1614,4.078,4.0546,4.0741,4.1366,4.2759,4.332,4.386,4.4741,4.387,4.3232,4.3339,4.3142,4.3069,4.3124,4.3408,4.3627,4.3855,4.4151,4.443,4.4764,4.4745,4.4876,4.5156,4.5342,4.5543,4.5771,4.5905,4.5975,4.5997,4.5997,4.5997,4.6007,4.6063,4.6105,4.6133,4.618,4.623,4.63,4.6162,4.6016,4.5828,4.5266,4.4872,4.4527,4.3856,4.3014,4.2157,4.1821,4.078,3.9542,3.8999,3.7873,3.6585,3.6228,3.5139,3.3977,3.4167,3.2492,3.0594,3.0075,2.9172,2.8351,2.8259,2.8099,2.7938,2.7788,2.6951,2.5924,2.4882,2.377,2.2658,2.1436,2.1195,2.1015,2.0348,1.8964,1.794,1.7855,1.5893,1.458,1.4771,1.4112,1.3539,1.3346,1.3346,1.3249,1.305,1.305,1.305,1.305,1.1765,1.0587,0.9608,0.8421,0.7428,0.6437,0.6437,0.6437,0.6437,0.6437,0.6437,2.8124,2.9083,3.0095,3.2025,3.2917,3.4325,3.798,3.8561,3.9642,4.435,4.3103,4.1394,4.192,4.0762,4.0423,4.2538,4.3232,4.3773,4.458,4.3816,4.3304,4.3545,4.3408,4.3408,4.3679,4.3936,4.4151,4.4289,4.4541,4.4764,4.4895,4.4895,4.4967,4.5084,4.5201,4.5419,4.568,4.5819,4.5905,4.5977,4.5997,4.5997,4.6007,4.6066,4.615,4.6202,4.6192,4.623,4.6296,4.617,4.5979,4.5752,4.5206,4.4849,4.4546,4.4151,4.3248,4.2216,4.2198,4.1041,3.9594,3.9437,3.839,3.7118,3.6799,3.5691,3.461,3.4467,3.272,3.0895,3.0683,2.9394,2.8179,2.8167,2.7846,2.7522,2.7522,2.6775,2.603,2.5359,2.4059,2.2833,2.1872,2.1177,2.0275,1.898,1.8611,1.777,1.5988,1.5425,1.4675,1.3636,1.3249,1.3147,1.3147,1.2953,1.2764,1.2764,1.2759,1.2764,1.2764,1.1473,1.0386,0.9608,0.8322,0.7232,0.6437,0.6437,0.6437,0.6437,0.6437,0.6437,2.3761,2.8369,3.151,3.2543,3.5005,3.7792,3.9924,4.0006,4.057,4.3889,4.3889,4.3118,4.2723,4.2085,4.1667,4.1868,4.2813,4.3571,4.3809,4.3626,4.3426,4.3339,4.3477,4.3545,4.3442,4.3679,4.3905,4.4151,4.4308,4.4549,4.487,4.4421,4.4189,4.4317,4.3925,4.4049,4.4774,4.4924,4.5045,4.5161,4.5725,4.6018,4.6068,4.6088,4.615,4.6192,4.6207,4.623,4.628,4.6162,4.6007,4.5854,4.5603,4.5105,4.4519,4.4402,4.3652,4.2634,4.232,4.1464,4.0397,3.9732,3.858,3.7397,3.7207,3.6165,3.4957,3.4839,3.3394,3.1669,3.082,2.9471,2.8259,2.7846,2.7603,2.7348,2.694,2.6599,2.6019,2.4659,2.379,2.2911,2.1704,2.1096,2.0275,1.898,1.8133,1.6828,1.4777,1.4669,1.4382,1.334,1.3147,1.305,1.2861,1.2861,1.2462,1.1765,1.1668,1.1965,1.2764,1.1668,1.0587,0.9608,0.8421,0.7428,0.6437,0.6437,0.6437,0.6437,0.6437,0.6437,2.5834,3.0284,3.3428,3.48,3.6897,3.9155,4.1184,4.2056,4.2951,4.4711,4.4801,4.4595,4.4637,4.3469,4.2557,4.2741,4.3176,4.3463,4.3463,4.3135,4.288,4.2864,4.2965,4.3082,4.3148,4.3592,4.4011,4.4383,4.4495,4.4681,4.5038,4.4306,4.3937,4.4077,4.3348,4.3258,4.3867,4.396,4.4073,4.4206,4.4691,4.4978,4.5085,4.5787,4.6147,4.6198,4.623,4.6264,4.6297,4.615,4.6007,4.5883,4.5713,4.5187,4.4493,4.4465,4.3698,4.2577,4.2297,4.1525,4.0546,3.9697,3.8707,3.7748,3.7358,3.643,3.535,3.481,3.3518,3.196,3.0594,2.9406,2.8351,2.7684,2.7267,2.7021,2.661,2.6196,2.5684,2.4744,2.3973,2.3105,2.1971,2.1356,2.0456,1.8788,1.7203,1.571,1.4208,1.41,1.3811,1.305,1.2953,1.2958,1.2764,1.2764,1.2365,1.1272,1.117,1.1272,1.1477,1.0485,0.96,0.9011,0.7925,0.703,0.6437,0.6437,0.6437,0.6437,0.6437,0.6437,3.0998,3.3447,3.542,3.7913,3.858,3.9316,4.1898,4.4157,4.5792,4.5971,4.5608,4.5621,4.6838,4.471,4.3176,4.4399,4.3941,4.3394,4.3376,4.2613,4.2139,4.2378,4.2307,4.2456,4.2973,4.3662,4.4298,4.4846,4.487,4.4991,4.5275,4.4418,4.3962,4.4076,4.3155,4.278,4.298,4.298,4.3051,4.3206,4.3284,4.3384,4.3559,4.5228,4.6075,4.6204,4.6261,4.63,4.6296,4.6144,4.6008,4.5871,4.5673,4.5165,4.4519,4.4438,4.355,4.236,4.2239,4.1428,4.032,3.9523,3.8849,3.8181,3.7329,3.6523,3.5706,3.4714,3.3449,3.2033,3.0279,2.9172,2.8339,2.7592,2.694,2.6445,2.6362,2.5779,2.52,2.5115,2.4176,2.3222,2.2492,2.1784,2.0529,1.8326,1.6183,1.4688,1.4298,1.3624,1.305,1.2861,1.2764,1.2764,1.2764,1.2764,1.2268,1.117,1.1072,1.0485,0.9308,0.8418,0.8021,0.8021,0.6933,0.6437,0.6437,0.6437,0.6437,0.6437,0.6437,0.6437,2.4626,3.2054,3.6282,3.762,3.9886,4.2026,4.3122,4.3814,4.4292,4.4504,4.4711,4.493,4.5204,4.4179,4.3394,4.3649,4.3539,4.334,4.3251,4.3211,4.3171,4.3222,4.3306,4.3467,4.38,4.3812,4.406,4.4693,4.4655,4.4739,4.5106,4.3823,4.3081,4.3101,4.1628,4.1294,4.215,4.215,4.226,0.0,4.314,4.3481,4.3536,4.4655,4.5579,4.6278,4.63,4.6308,4.6284,4.6111,4.5939,4.5809,4.56,4.5187,4.4701,4.4465,4.4065,4.3474,4.2541,4.1973,4.142,4.0269,3.9242,3.8351,3.7886,3.6982,3.6006,3.5335,3.423,3.2904,3.1422,2.9718,2.8211,2.7418,2.6857,2.6279,2.5611,2.5369,2.5115,2.47,2.356,2.258,2.2394,2.1069,1.9446,1.7692,1.619,1.5057,1.4394,1.401,1.3528,1.2861,1.2764,1.2764,1.2764,1.2764,1.197,1.0096,0.9899,0.911,0.7129,0.7627,0.8021,0.8021,0.6933,0.6437,0.6437,0.6437,0.6437,0.6437,0.6437,0.6437,2.0717,2.9475,3.6287,3.8534,4.0917,4.2788,4.3032,4.3228,4.34,4.3516,4.4436,4.5224,4.5224,4.4564,4.3979,4.3889,4.356,4.3269,4.316,4.2975,4.2805,4.2805,4.3121,4.3373,4.3513,4.3867,4.4258,4.4719,4.4707,4.4838,4.5218,4.4135,4.331,4.2942,4.1731,4.1143,4.1282,4.1282,4.1345,4.1526,4.1992,4.2656,4.3541,4.4894,4.5813,4.6297,4.627,4.628,4.6279,4.6068,4.5908,4.5783,4.5587,4.5207,4.4751,4.4493,4.4065,4.3471,4.2465,4.1888,4.141,4.0153,3.9348,3.8756,3.8157,3.7326,3.6352,3.5661,3.447,3.3045,3.1509,3.0037,2.8518,2.7174,2.6351,2.5779,2.5285,2.5031,2.47,2.411,2.3202,2.2306,2.1686,2.0076,1.8627,1.78,1.6574,1.5527,1.4771,1.4196,1.3619,1.2856,1.2764,1.2764,1.2764,1.2764,1.1873,0.9706,0.9608,0.8616,0.6534,0.6933,0.7229,0.7229,0.6734,0.6437,0.6437,0.6437,0.6437,0.6437,0.6437,0.6437,1.7236,2.6795,3.6085,3.9641,4.1407,4.2375,4.2462,4.2577,4.2673,4.275,4.4179,4.5407,4.5407,4.4876,4.4382,4.4236,4.367,4.3214,4.3141,4.2684,4.2381,4.2433,4.2835,4.3154,4.3259,4.4008,4.4587,4.4821,4.4895,4.5084,4.5361,4.4632,4.3857,4.3085,4.2324,4.1489,4.0635,4.0635,4.0707,4.0823,4.1125,4.2063,4.3572,4.5376,4.6228,4.6287,4.6225,4.6231,4.627,4.6035,4.5875,4.575,4.5541,4.5223,4.4843,4.4493,4.3967,4.3279,4.2408,4.1717,4.1065,3.9986,3.9385,3.899,3.8383,3.7562,3.6631,3.5869,3.4426,3.2834,3.1462,3.0215,2.8858,2.7255,2.6019,2.5274,2.5115,2.4786,2.4368,2.3764,2.3028,2.1943,2.0439,1.8996,1.7994,1.78,1.685,1.5906,1.5051,1.4286,1.3619,1.2856,1.2764,1.2764,1.2764,1.2764,1.197,0.9899,0.9706,0.8715,0.6734,0.6437,0.6337,0.6337,0.6537,0.6637,0.6637,0.6637,0.6537,0.6437,0.6437,0.6437,1.1891,2.5357,3.6164,3.9717,4.0713,4.115,4.2195,4.2032,4.1821,4.2198,4.3102,4.3809,4.3809,4.3736,4.3628,4.3541,4.3449,4.334,4.3214,4.3351,4.356,4.3801,4.3897,4.4112,4.4581,4.4553,4.4662,4.5038,4.508,4.5148,4.5298,4.4614,4.3805,4.2939,4.2245,4.1537,4.0776,4.0776,4.0804,4.0888,4.2412,4.3296,4.3649,4.5409,4.6202,4.6209,4.6205,4.6206,4.6183,4.5856,4.5731,4.5689,4.5419,4.5298,4.5151,4.4538,4.426,4.3986,4.2903,4.2015,4.1296,4.0767,3.98,3.886,3.875,3.7663,3.6446,3.6306,3.4589,3.2676,3.2263,3.0493,2.8791,2.8303,2.6976,2.5505,2.4786,2.454,2.4454,2.4206,2.2677,2.0881,1.8812,1.8272,1.7707,1.6662,1.6285,1.5717,1.4286,1.4004,1.3619,1.2856,1.2764,1.2764,1.2764,1.2764,1.217,1.0685,0.9998,0.8916,0.7531,0.6537,0.6042,0.6042,0.6936,0.7431,0.7431,0.7431,0.7033,0.6437,0.6437,0.6437,1.2054,2.1959,2.9074,3.7617,3.9974,4.0517,4.1697,4.1856,4.1796,4.2008,4.2555,4.3013,4.305,4.305,4.3105,4.3251,4.334,4.334,4.3214,4.3461,4.3777,4.406,4.4221,4.4476,4.487,4.4802,4.4808,4.5014,4.508,4.5173,4.5341,4.5131,4.441,4.3119,4.2825,4.2105,4.0878,4.0859,4.0897,4.0964,4.1739,4.2636,4.3623,4.4387,4.5304,4.6247,4.6229,4.6195,4.6172,4.5929,4.5744,4.5607,4.5419,4.5298,4.5106,4.4476,4.4173,4.3893,4.2772,4.1888,4.1133,4.072,3.9919,3.9094,3.9094,3.7953,3.6707,3.6707,3.4999,3.3017,3.2478,3.1154,2.9767,2.9144,2.7812,2.6466,2.5648,2.4878,2.41,2.3115,2.1507,1.9886,1.8711,1.8138,1.7604,1.6553,1.6601,1.611,1.4541,1.4243,1.4044,1.3263,1.3039,1.3012,1.3152,1.3034,1.2355,1.0857,1.0154,0.9011,0.7241,0.6439,0.6139,0.6437,0.7036,0.7135,0.6736,0.7332,0.7232,0.6437,0.6437,0.6437,0.7238,1.531,2.1771,3.2095,3.6761,3.9195,4.0787,4.1358,4.1584,4.1735,4.2026,4.2333,4.2616,4.275,4.2957,4.3322,4.3446,4.3446,4.3358,4.3597,4.3841,4.4091,4.443,4.4745,4.4919,4.5014,4.5042,4.5106,4.5151,4.5239,4.54,4.5531,4.4858,4.3247,4.3279,4.2557,4.0929,4.0929,4.096,4.1025,4.1473,4.2376,4.3635,4.4083,4.5021,4.63,4.623,4.6198,4.6177,4.5979,4.577,4.5592,4.5436,4.5239,4.4991,4.4421,4.4035,4.3703,4.2716,4.1785,4.0938,4.0577,3.9868,3.9148,3.9148,3.8084,3.6829,3.6753,3.5249,3.3353,3.2376,3.1615,3.0868,2.9751,2.8502,2.7231,2.6205,2.5006,2.3769,2.2598,2.1254,2.0079,1.9236,1.8617,1.7933,1.6869,1.6963,1.65,1.4779,1.4677,1.4378,1.3577,1.3313,1.3276,1.3459,1.3308,1.2692,1.1378,1.076,0.9454,0.7397,0.6586,0.6268,0.6434,0.7036,0.6936,0.6239,0.7033,0.703,0.6237,0.6237,0.6237,-0.8396,0.3904,1.7045,2.1567,2.9249,3.6488,3.9351,4.0263,4.0666,4.1313,4.1346,4.1534,4.2364,4.2884,4.3304,4.3686,4.3771,4.3771,4.3771,4.3986,4.4162,4.4192,4.4707,4.5061,4.5103,4.526,4.5381,4.5381,4.5381,4.54,4.54,4.5528,4.4851,4.3241,4.333,4.2626,4.1007,4.0987,4.1025,4.1111,4.2773,4.3606,4.3743,4.5403,4.6208,4.6307,4.6225,4.6191,4.6176,4.5966,4.5777,4.5592,4.538,4.5135,4.487,4.4448,4.4016,4.3535,4.3123,4.1961,4.0733,4.0685,3.9868,3.8805,3.8805,3.7764,3.66,3.6384,3.5163,3.3553,3.1944,3.1808,3.1656,3.0202,2.8878,2.7404,2.5562,2.4596,2.3947,2.3307,2.301,2.2164,2.0151,1.9789,1.9221,1.747,1.7193,1.6593,1.4868,1.4665,1.4372,1.3577,1.347,1.3464,1.348,1.347,1.3151,1.2525,1.1789,1.0557,0.8649,0.7629,0.6452,0.5343,0.6833,0.7332,0.6731,0.683,0.6431,0.5634,0.5634,0.5634,-1.1254,-0.5413,0.2211,1.7341,2.4012,2.8898,3.6663,3.9425,4.0549,4.1078,4.158,4.2151,4.2865,4.2865,4.2995,4.3686,4.3804,4.3804,4.3804,4.3883,4.4079,4.4402,4.4662,4.491,4.526,4.5361,4.54,4.54,4.54,4.54,4.54,4.5013,4.4251,4.3167,4.2757,4.2085,4.1066,4.1066,4.107,4.1117,4.1722,4.2627,4.3726,4.4297,4.5184,4.6241,4.6118,4.6091,4.6131,4.6017,4.5722,4.5339,4.5266,4.4985,4.4605,4.4258,4.3836,4.3403,4.2865,4.1768,4.0607,4.0463,3.9456,3.8343,3.8343,3.7488,3.6492,3.6478,3.5792,3.4583,3.3036,3.2709,3.2262,3.0302,2.8999,2.7875,2.6744,2.5318,2.4228,2.4006,2.3458,2.251,2.1075,2.05,1.9568,1.7677,1.7545,1.7255,1.6112,1.5159,1.4633,1.4439,1.3357,1.2705,1.3062,1.2831,1.2326,1.1801,1.1164,1.0237,0.8924,0.7666,0.6567,0.5943,0.6447,0.6611,0.6534,0.7226,0.7129,0.6339,0.5837,0.5636,-1.5984,-1.2715,-0.7782,0.6858,1.5603,2.2701,3.0647,3.5959,3.9576,4.0873,4.156,4.2149,4.3014,4.294,4.3051,4.3832,4.3947,4.3947,4.3947,4.3947,4.4116,4.4495,4.4643,4.4872,4.5222,4.5419,4.5495,4.5495,4.5495,4.5513,4.5512,4.4761,4.3863,4.2827,4.2101,4.1519,4.1108,4.1108,4.1108,4.1108,4.1404,4.2301,4.3715,4.3923,4.482,4.615,4.6017,4.6008,4.6049,4.5986,4.5645,4.5189,4.5186,4.4868,4.4401,4.4128,4.3693,4.3141,4.2714,4.1639,4.0334,4.0052,3.9086,3.7985,3.787,3.7183,3.6481,3.6466,3.6188,3.5453,3.349,3.2671,3.1902,3.0156,2.9206,2.8379,2.7495,2.5873,2.4678,2.4834,2.4373,2.3404,2.2039,2.1362,2.0419,1.8409,1.8282,1.8101,1.7252,1.6287,1.5535,1.49,1.3688,1.2919,1.2753,1.2416,1.201,1.1585,1.1156,1.0428,0.9304,0.8338,0.7404,0.6716,0.6918,0.696,0.6637,0.7132,0.7036,0.6545,0.5737,0.5336,0.0,0.0,0.0,-1.0149,0.3748,1.7772,2.1023,2.9389,3.7281,4.016,4.0917,4.1429,4.2663,4.3105,4.3493,4.4207,4.4314,4.4285,4.4285,4.4285,4.4344,4.4383,4.4764,4.5007,4.5007,4.5438,4.5709,4.5709,4.5709,4.5706,4.57,4.4851,4.3689,4.2214,4.1396,4.1022,4.1111,4.1091,4.1091,4.1111,4.195,4.2837,4.3725,4.4501,4.5312,4.6095,4.5956,4.5925,4.5986,4.5912,4.5619,4.517,4.5123,4.4764,4.4285,4.414,4.3523,4.2772,4.2732,4.149,3.9935,3.9613,3.8728,3.7828,3.7492,3.7033,3.6601,3.635,3.6399,3.5835,3.3264,3.1527,3.0402,2.9976,2.9452,2.8806,2.7778,2.6303,2.5215,2.5654,2.5732,2.503,2.2894,2.2484,2.1785,1.968,1.9272,1.8952,1.8094,1.7989,1.7134,1.49,1.4572,1.404,1.2545,1.2441,1.2327,1.2001,1.2005,1.1372,0.9796,0.9685,0.8991,0.7542,0.8357,0.818,0.7235,0.6439,0.6042,0.5942,0.5138,0.4937,-2.3688,0.0,0.0,0.0,0.0,0.0,0.9448,1.9293,2.7249,2.9247,3.5018,4.0293,4.2187,4.258,4.3028,4.4242,4.4354,4.4285,4.4285,4.4285,4.4373,4.4605,4.4838,4.5074,4.5263,4.5547,4.5703,4.5703,4.5703,4.57,4.57,4.4311,4.282,4.1313,4.1044,4.0986,4.1103,4.111,4.1092,4.1092,4.1346,4.2245,4.3691,4.3786,4.4628,4.6022,4.5833,4.5742,4.5703,4.5742,4.5454,4.4973,4.4862,4.4474,4.3992,4.3897,4.3373,4.2675,4.2364,4.1108,3.9562,3.9246,3.8294,3.732,3.773,3.7576,3.7208,3.6939,3.6896,3.6311,3.3744,3.1982,3.0796,3.0656,2.9441,2.8121,2.784,2.6345,2.5179,2.5887,2.5528,2.4726,2.332,2.24,2.1489,2.0078,1.9153,1.8527,1.8311,1.7351,1.6611,1.6193,1.5001,1.3819,1.2861,1.3285,1.2852,1.1131,1.1882,1.1751,1.051,0.9847,0.9151,0.863,0.8727,0.8491,0.8035,0.7836,0.7138,0.5942,0.5138,0.4834,-2.324,-2.3533,-2.2583,-1.6777,0.0,0.0,0.4681,1.491,2.3927,2.9602,3.4871,3.9134,4.1354,4.1609,4.1946,4.3372,4.3801,4.4065,4.4495,4.4551,4.4613,4.4796,4.4976,4.5159,4.5341,4.5584,4.57,4.57,4.5746,4.5481,4.478,4.3813,4.2562,4.0994,4.0929,4.0989,4.1093,4.1093,4.1092,4.1108,4.1108,4.1811,4.3157,4.3333,4.4136,4.5422,4.5561,4.5582,4.551,4.5565,4.5284,4.48,4.4587,4.4213,4.3749,4.3701,4.325,4.2616,4.218,4.1098,3.9834,3.9049,3.8084,3.732,3.7576,3.7483,3.7248,3.7026,3.6514,3.5548,3.3785,3.2314,3.1229,3.0871,2.9441,2.8028,2.8028,2.6522,2.5216,2.5518,2.5226,2.4529,2.3529,2.282,2.1802,2.0285,1.9561,1.8945,1.8422,1.7681,1.7041,1.6617,1.5648,1.4567,1.3496,1.3383,1.2847,1.1446,1.1555,1.1341,1.0692,1.0249,0.9761,0.9537,0.9421,0.9259,0.8931,0.8531,0.7537,0.5942,0.5138,0.4834,-2.2698,-2.3036,-2.3322,-2.2855,-1.5931,0.0,0.1923,1.1504,2.145,3.1812,3.4062,3.5205,3.8466,3.8711,3.9203,4.1609,4.2677,4.3585,4.4688,4.487,4.4919,4.4967,4.5113,4.522,4.5277,4.553,4.5715,4.5715,4.5819,4.5163,4.3482,4.3404,4.2655,4.1057,4.1003,4.103,4.1103,4.1105,4.1099,4.1104,4.1202,4.1693,4.2568,4.3229,4.397,4.4761,4.5276,4.5457,4.5381,4.5302,4.5033,4.465,4.4346,4.3949,4.3563,4.3479,4.3142,4.2577,4.2032,4.1258,4.0268,3.887,3.7994,3.7496,3.7246,3.7104,3.6895,3.6691,3.5442,3.4043,3.3382,3.2376,3.1371,3.0758,2.9441,2.8319,2.8319,2.6713,2.5197,2.502,2.4833,2.4538,2.3529,2.3329,2.2518,2.0688,2.0285,1.9872,1.8833,1.852,1.8101,1.6922,1.6611,1.5861,1.4561,1.3593,1.2847,1.263,1.166,1.1017,1.0907,1.0781,1.0505,1.0168,1.0123,0.9945,0.9426,0.8531,0.7437,0.6142,0.5236,0.4834,-2.3405,-2.3491,-2.3245,-2.2804,-2.0835,0.0,-1.4279,-0.7142,-0.0154,0.3862,0.9858,1.709,2.5925,2.7457,3.002,3.8026,4.0887,4.2682,4.4334,4.477,4.4895,4.4919,4.509,4.5201,4.522,4.5565,4.5781,4.5781,4.5841,4.5168,4.3482,4.3404,4.2665,4.1039,4.1,4.1035,4.1109,4.1097,4.109,4.1111,4.1803,4.2607,4.348,4.4084,4.4783,4.5479,4.5435,4.5339,4.5194,4.4663,4.4482,4.4519,4.4346,4.3906,4.3338,4.3268,4.292,4.2378,4.1707,4.0775,3.9664,3.8358,3.7531,3.703,3.707,3.664,3.6069,3.5569,3.4193,3.2789,3.2537,3.1977,3.1205,3.0487,2.9268,2.8319,2.8319,2.6713,2.5294,2.5197,2.4726,2.4251,2.4044,2.3238,2.2526,2.2123,2.1302,2.068,2.0475,1.9642,1.9332,1.9945,1.8401,1.7246,1.6877,1.6692,1.5749,1.3917,1.3599,1.3063,1.2096,1.0983,1.0383,1.0164,0.988,0.9394,0.863,0.7138,0.6639,0.6939,0.5436,0.4834,-2.3039,-2.3152,-2.2871,-2.2389,-2.1504,0.0,0.0,-0.9104,-0.4153,0.1276,0.578,1.0539,1.6324,1.7244,1.9027,2.476,3.0508,3.483,3.6439,4.1552,4.5154,4.5154,4.5241,4.5302,4.53,4.5531,4.5731,4.5854,4.5975,4.5298,4.3587,4.3506,4.274,4.1097,4.1029,4.103,4.1096,4.11,4.1096,4.1106,4.1974,4.2612,4.3039,4.4031,4.4692,4.5008,4.517,4.5213,4.5106,4.4516,4.4271,4.4165,4.3875,4.349,4.3105,4.3069,4.2673,4.2074,4.1464,4.0504,3.9356,3.8173,3.7338,3.6693,3.6375,3.586,3.5328,3.5049,3.4259,3.3257,3.25,3.2052,3.1536,3.0476,2.9371,2.8516,2.8516,2.72,2.6061,2.6061,2.5684,2.5109,2.435,2.3746,2.3138,2.2627,2.2013,2.1497,2.0987,2.0364,2.0261,2.0885,1.996,1.9013,1.8366,1.7857,1.6797,1.5102,1.3922,1.3014,1.2378,1.1117,1.0091,0.9511,0.9562,0.9031,0.7836,0.7039,0.6639,0.6539,0.5336,0.4834,-2.2363,-2.245,-2.2347,-2.1924,-2.0785,-1.7879,0.0,0.0,0.0,0.1883,0.3526,0.4454,0.6946,0.7285,0.8187,1.1209,1.8584,2.4257,2.5146,3.364,4.1014,4.442,4.5016,4.5151,4.511,4.5111,4.5349,4.5875,4.5773,4.5071,4.3663,4.3602,4.2838,4.115,4.1054,4.1041,4.1091,4.1086,4.1159,4.1348,4.2206,4.2656,4.2797,4.4059,4.4577,4.4485,4.4872,4.4972,4.4838,4.4409,4.402,4.3721,4.332,4.3069,4.2844,4.2844,4.2436,4.1778,4.1258,4.0329,3.9166,3.806,3.7024,3.6006,3.5331,3.4804,3.4461,3.4427,3.4339,3.4004,3.2809,3.2488,3.2227,3.0913,2.9909,2.936,2.936,2.8402,2.7453,2.7453,2.7274,2.6522,2.4913,2.4637,2.4332,2.3411,2.315,2.2824,2.1878,2.1525,2.1281,2.1391,2.1151,2.0546,1.9553,1.8435,1.7417,1.6287,1.403,1.2646,1.2553,1.1102,0.9859,0.8925,0.9195,0.863,0.7238,0.7039,0.6639,0.5942,0.5138,0.4834,-2.2074,-2.191,-2.1459,-2.1581,-2.0699,-1.9186,-1.6858,0.0,-1.6663,-1.4832,0.0,-1.2368,-0.488,0.0,0.0,0.6822,1.1407,1.3718,1.2791,1.6554,2.5239,4.0877,4.3692,4.423,4.3988,4.3635,4.4119,4.5869,4.4637,4.375,4.3604,4.3591,4.2837,4.115,4.1092,4.1089,4.11,4.1033,4.1395,4.2171,4.2985,4.3744,4.4453,4.5153,4.5334,4.5074,4.49,4.4557,4.4106,4.3749,4.3437,4.3177,4.3212,4.2977,4.2631,4.2631,4.2234,4.1648,4.1105,4.015,3.8966,3.779,3.6151,3.4447,3.3716,3.3315,3.3171,3.3027,3.3289,3.3632,3.3356,3.33,3.3031,3.2227,3.1877,3.1625,3.1625,3.0742,2.9965,2.9965,2.9488,2.8397,2.6532,2.6264,2.6167,2.6061,2.5638,2.5244,2.4837,2.3563,2.277,2.3205,2.1812,2.0648,2.0224,1.9463,1.8499,1.747,1.5209,1.3821,1.3704,1.1245,0.9855,0.9462,0.884,0.8134,0.7238,0.6439,0.6042,0.5942,0.5138,0.4834,-2.0839,-2.0744,-2.0486,-2.0362,-1.9787,-1.9077,-1.8583,-1.8186,-1.7901,-1.7842,0.0,0.0,0.0,0.0,0.0,0.0,-0.0931,0.3286,0.3422,0.9374,1.8525,3.1637,3.4165,3.6858,4.1987,4.2431,4.2982,4.433,4.3898,4.3585,4.3656,4.3656,4.3102,4.1894,4.1338,4.1031,4.1032,4.0976,4.1371,4.2247,4.3112,4.3815,4.4432,4.5079,4.5188,4.4909,4.4707,4.4505,4.424,4.3689,4.3387,4.3212,4.2828,4.2613,4.2508,4.221,4.1709,4.1111,4.0446,3.9232,3.7716,3.6368,3.5044,3.3851,3.3157,3.2987,3.2981,3.2475,3.2946,3.3527,3.3079,3.297,3.2797,3.2077,3.1989,3.1989,3.1989,3.1689,3.13,3.13,3.0909,3.0348,2.9556,2.8358,2.7348,2.6999,2.675,2.652,2.6224,2.5208,2.4437,2.422,2.3386,2.2355,2.1271,2.0569,1.9746,1.861,1.5704,1.3309,1.184,1.0531,0.9601,0.8931,0.8531,0.7733,0.6539,0.6142,0.5741,0.5338,0.4935,0.4431,-1.9754,-1.9634,-1.9424,-1.9403,-1.8873,-1.8436,-1.8717,-1.8056,-1.749,-1.7983,-1.7086,0.0,0.0,0.0,-1.6579,-1.6635,0.0,-0.6676,-0.6213,-0.0105,0.8837,2.0926,2.5294,3.0107,3.7178,3.9616,4.1368,4.2827,4.2656,4.2831,4.3668,4.3469,4.3054,4.2422,4.1501,4.1031,4.1002,4.0927,4.1451,4.2518,4.3128,4.3802,4.4528,4.4978,4.4979,4.4643,4.4505,4.4354,4.4188,4.3508,4.3177,4.2996,4.2356,4.2181,4.2222,4.1874,4.1356,4.0689,4.0136,3.8728,3.6995,3.5608,3.4624,3.3919,3.3241,3.3238,3.3443,3.2922,3.3577,3.4275,3.3771,3.37,3.353,3.276,3.2907,3.3079,3.2587,3.2661,3.2747,3.2587,3.2401,3.2202,3.2115,3.0281,2.8648,2.8204,2.7838,2.7536,2.7284,2.6622,2.5773,2.4888,2.4667,2.3763,2.2068,2.1285,2.004,1.7948,1.5392,1.278,1.0346,1.0059,0.947,0.8496,0.8292,0.7472,0.6042,0.5438,0.4935,0.4331,0.4331,0.3927,-1.9174,-1.8734,-1.8297,-1.9288,-1.8404,-1.744,-1.7677,-1.7821,-1.7887,-1.7823,-1.7742,-1.7685,-1.7499,-1.7091,-1.6949,-1.7552,-1.6517,0.0,0.0,-1.5954,-0.8148,0.9748,1.9885,2.6251,2.8415,3.4213,3.8997,4.1834,4.0539,4.0809,4.3544,4.291,4.2435,4.2402,4.1543,4.1061,4.0994,4.0936,4.1698,4.3247,4.322,4.3936,4.5266,4.5144,4.4896,4.4493,4.4364,4.4023,4.3479,4.3014,4.258,4.2216,4.1788,4.1604,4.1648,4.1849,4.1418,4.0754,4.0334,3.9036,3.7354,3.6102,3.5204,3.4461,3.3919,3.4098,3.4424,3.4424,3.5292,3.6215,3.6215,3.6215,3.599,3.5101,3.5575,3.5736,3.4037,3.4288,3.4703,3.416,3.3992,3.3907,3.3386,3.1701,3.0441,3.0362,2.9443,2.8597,2.8265,2.7665,2.6733,2.5218,2.5228,2.4333,2.2068,2.1285,1.8984,1.4556,1.4028,1.2851,1.0531,1.0249,0.9753,0.8754,0.7935,0.7059,0.6042,0.4128,0.3324,0.3224,0.3224,0.3224,0.0,0.0,-1.7239,-1.7216,0.0,-1.6782,-1.6981,-1.7256,-1.7427,-1.7144,-1.7254,-1.7187,-1.6572,-1.6552,-1.675,-1.7083,-1.7022,-1.6966,0.0,-1.6346,-1.3679,-0.73,0.6503,1.6191,1.7906,2.4726,3.0086,3.26,3.7035,4.0551,4.2668,4.2539,4.2382,4.2341,4.1455,4.0944,4.0876,4.08,4.1603,4.3239,4.3217,4.384,4.5036,4.4988,4.4676,4.4181,4.4067,4.3929,4.3716,4.3032,4.2655,4.2458,4.1831,4.1498,4.13,4.122,4.1036,4.0642,3.9301,3.8437,3.7674,3.6415,3.5864,3.5529,3.4684,3.4574,3.4682,3.4482,3.483,3.5309,3.5645,3.5792,3.5789,3.548,3.5736,3.5976,3.5332,3.5588,3.583,3.5749,3.5277,3.4977,3.495,3.3139,3.1524,3.1104,3.1116,3.0714,2.9555,2.9112,2.8126,2.6072,2.5707,2.4528,2.2068,2.0561,1.8157,1.4347,1.4062,1.2671,0.9678,0.9514,0.898,0.7878,0.7064,0.6077,0.512,0.3849,0.2821,0.2116,0.1411,0.1108,-1.6713,-1.672,0.0,-1.6433,-1.6392,0.0,-1.6737,-1.7044,-1.7313,-1.7229,-1.7063,-1.6843,-1.6615,-1.6419,-1.6483,-1.7107,-1.7444,-1.7543,0.0,-1.7213,-1.705,-1.6508,-0.3372,0.6335,0.8197,1.7679,2.4811,2.7497,3.453,3.9626,4.1763,4.2182,4.2358,4.2341,4.1738,4.1221,4.0837,4.1055,4.1682,4.2744,4.3331,4.3958,4.4551,4.4874,4.4676,4.4091,4.4048,4.386,4.3529,4.2828,4.244,4.2198,4.1569,4.1226,4.1088,4.096,4.0819,4.0466,3.9265,3.8674,3.8342,3.7306,3.6964,3.6828,3.5854,3.5714,3.5798,3.5761,3.5985,3.6311,3.6931,3.7063,3.707,3.6746,3.7007,3.719,3.6346,3.6503,3.6738,3.6452,3.5763,3.5304,3.5521,3.4178,3.2834,3.2176,3.1989,3.1536,3.051,2.9988,2.8815,2.6775,2.5988,2.4487,2.1761,1.9698,1.7312,1.4239,1.348,1.1905,0.9327,0.8889,0.8275,0.7177,0.6208,0.5199,0.4136,0.2742,0.1713,0.1008,-0.0101,-0.0806]},{"header":{"parameterUnit":"m.s-1","parameterCategory":1,"la1":30.6,"la2":29.2853,"lo1":-89.7004,"lo2":-87.6739,"dy":0.0162,"dx":0.0183,"nx":112,"ny":82,"refTime":"2026-05-04T12:00:00:Z","depth":0,"parameterNumber":3,"parameterNumberName":"V-component_of_WINDS"},"data":[0.0,0.0,0.0,0.0,0.0,0.0,0.0,0.0,0.0,0.0,0.0,0.0,0.0,0.0,0.0,0.0,0.0,0.0,0.0,0.0,0.0,0.0,0.0,0.0,0.0,0.0,0.0,0.0,0.0,0.0,0.0,0.0,0.0,0.0,0.0,0.0,0.0,0.0,0.0,0.0,0.0,0.0,0.0,0.0,0.0,0.0,0.0,0.0,0.0,0.0,0.0,0.0,0.0,0.0,0.0,0.0,0.0,0.0,0.0,0.0,0.0,0.0,0.0,0.0,0.0,0.0,0.0,0.0,0.0,0.0,0.0,0.0,0.0,0.0,0.0,0.0,0.0,0.0,0.0,0.0,0.0,0.0,0.0,0.0,0.0,0.0,0.0,0.0,0.0,0.0,-3.0942,-3.1822,-3.3549,-3.4601,-3.4534,-3.3864,-3.2295,-2.9678,0.0,0.0,0.0,0.0,0.0,0.0,0.0,0.0,0.0,0.0,0.0,0.0,0.0,0.0,0.0,0.0,0.0,0.0,0.0,0.0,0.0,0.0,0.0,0.0,0.0,0.0,0.0,0.0,0.0,0.0,0.0,0.0,0.0,0.0,0.0,0.0,0.0,0.0,0.0,0.0,0.0,0.0,0.0,0.0,0.0,0.0,0.0,0.0,0.0,0.0,0.0,0.0,0.0,0.0,0.0,0.0,0.0,0.0,0.0,0.0,0.0,0.0,0.0,0.0,0.0,0.0,0.0,0.0,0.0,0.0,0.0,0.0,0.0,0.0,0.0,0.0,0.0,0.0,0.0,0.0,0.0,0.0,0.0,0.0,0.0,0.0,0.0,0.0,0.0,0.0,0.0,0.0,0.0,0.0,0.0,0.0,0.0,0.0,0.0,0.0,0.0,0.0,0.0,0.0,-3.1507,-3.4657,-3.5413,-3.5479,-3.5103,-3.3878,-3.224,-3.019,0.0,0.0,0.0,0.0,0.0,0.0,0.0,0.0,0.0,0.0,0.0,0.0,0.0,0.0,0.0,0.0,0.0,0.0,0.0,0.0,0.0,0.0,0.0,0.0,0.0,0.0,0.0,0.0,0.0,0.0,0.0,0.0,0.0,0.0,0.0,0.0,0.0,0.0,0.0,0.0,0.0,0.0,0.0,0.0,0.0,0.0,0.0,0.0,0.0,0.0,0.0,0.0,0.0,0.0,0.0,0.0,0.0,0.0,0.0,0.0,0.0,0.0,0.0,0.0,0.0,0.0,0.0,0.0,0.0,0.0,0.0,0.0,0.0,0.0,0.0,0.0,0.0,0.0,0.0,0.0,0.0,0.0,0.0,0.0,0.0,0.0,0.0,0.0,0.0,0.0,0.0,0.0,0.0,0.0,0.0,0.0,0.0,0.0,0.0,0.0,0.0,0.0,0.0,-3.0779,-3.2282,-3.5856,-3.6059,-3.5721,-3.5234,-3.3839,-3.2291,-3.0609,-2.804,0.0,0.0,0.0,0.0,0.0,0.0,0.0,0.0,0.0,0.0,0.0,0.0,0.0,0.0,0.0,0.0,0.0,0.0,0.0,0.0,0.0,0.0,0.0,0.0,0.0,0.0,0.0,0.0,0.0,0.0,0.0,0.0,0.0,0.0,0.0,0.0,0.0,0.0,0.0,0.0,0.0,0.0,0.0,0.0,0.0,0.0,0.0,0.0,0.0,0.0,0.0,0.0,0.0,0.0,0.0,0.0,0.0,0.0,0.0,0.0,0.0,0.0,0.0,0.0,0.0,0.0,0.0,0.0,0.0,0.0,0.0,0.0,0.0,0.0,0.0,0.0,0.0,0.0,0.0,0.0,0.0,0.0,0.0,0.0,0.0,0.0,0.0,0.0,0.0,0.0,0.0,0.0,0.0,0.0,0.0,0.0,0.0,0.0,0.0,0.0,0.0,0.0,-3.2688,-3.3621,-3.6596,-3.6507,-3.5991,-3.5365,-3.3794,-3.2211,-3.082,-2.7607,0.0,0.0,0.0,0.0,0.0,0.0,0.0,0.0,0.0,0.0,0.0,0.0,0.0,0.0,0.0,0.0,0.0,0.0,0.0,0.0,0.0,0.0,0.0,0.0,0.0,0.0,0.0,0.0,0.0,0.0,0.0,0.0,0.0,0.0,0.0,0.0,0.0,0.0,0.0,0.0,0.0,0.0,0.0,0.0,0.0,0.0,0.0,0.0,0.0,0.0,0.0,0.0,0.0,0.0,0.0,0.0,0.0,0.0,0.0,0.0,0.0,0.0,0.0,0.0,0.0,0.0,0.0,0.0,0.0,0.0,0.0,0.0,0.0,0.0,0.0,0.0,0.0,0.0,0.0,0.0,0.0,0.0,0.0,0.0,0.0,0.0,0.0,0.0,0.0,0.0,0.0,0.0,0.0,0.0,0.0,0.0,0.0,0.0,0.0,0.0,0.0,0.0,-3.3894,-3.5871,-3.7306,-3.7405,-3.6907,-3.5752,-3.356,-3.1742,-3.0568,-2.7012,0.0,0.0,0.0,0.0,0.0,0.0,0.0,0.0,0.0,0.0,0.0,0.0,0.0,0.0,0.0,0.0,0.0,0.0,0.0,0.0,0.0,0.0,0.0,0.0,0.0,0.0,0.0,0.0,0.0,0.0,0.0,0.0,0.0,0.0,0.0,0.0,0.0,0.0,0.0,0.0,0.0,0.0,0.0,0.0,0.0,0.0,0.0,0.0,0.0,0.0,0.0,0.0,0.0,0.0,0.0,0.0,0.0,0.0,0.0,0.0,0.0,0.0,0.0,0.0,0.0,0.0,0.0,0.0,0.0,0.0,0.0,0.0,0.0,0.0,0.0,0.0,0.0,0.0,0.0,0.0,0.0,0.0,0.0,0.0,0.0,0.0,0.0,0.0,0.0,0.0,0.0,0.0,0.0,0.0,0.0,0.0,0.0,0.0,0.0,0.0,0.0,0.0,-3.2336,-3.42,-3.5865,-3.5806,-3.5378,-3.4821,-3.2571,-3.0891,-3.0175,0.0,0.0,0.0,0.0,0.0,0.0,0.0,0.0,0.0,0.0,0.0,0.0,0.0,0.0,0.0,0.0,0.0,0.0,0.0,0.0,0.0,0.0,0.0,0.0,0.0,0.0,0.0,0.0,0.0,0.0,0.0,0.0,0.0,0.0,0.0,0.0,0.0,0.0,0.0,0.0,0.0,0.0,0.0,0.0,0.0,0.0,0.0,0.0,0.0,0.0,0.0,0.0,0.0,0.0,0.0,0.0,0.0,0.0,0.0,0.0,0.0,0.0,0.0,0.0,0.0,0.0,0.0,0.0,0.0,0.0,0.0,0.0,0.0,0.0,0.0,0.0,0.0,0.0,0.0,0.0,0.0,0.0,0.0,0.0,0.0,0.0,0.0,0.0,0.0,0.0,0.0,0.0,0.0,0.0,0.0,0.0,0.0,0.0,0.0,0.0,0.0,0.0,-2.988,-3.181,-3.3587,-3.5351,-3.5194,-3.4752,-3.4258,-3.2094,-3.0389,-2.9555,0.0,0.0,0.0,0.0,0.0,0.0,0.0,0.0,0.0,0.0,0.0,0.0,0.0,0.0,0.0,0.0,0.0,0.0,0.0,0.0,0.0,0.0,0.0,0.0,0.0,0.0,0.0,0.0,0.0,0.0,0.0,0.0,0.0,0.0,0.0,0.0,0.0,0.0,0.0,0.0,0.0,0.0,0.0,0.0,0.0,0.0,0.0,0.0,0.0,0.0,0.0,0.0,0.0,0.0,0.0,0.0,0.0,0.0,0.0,0.0,0.0,0.0,0.0,0.0,0.0,0.0,0.0,0.0,0.0,0.0,0.0,0.0,0.0,0.0,0.0,0.0,0.0,0.0,0.0,0.0,0.0,0.0,0.0,0.0,0.0,0.0,0.0,0.0,0.0,0.0,0.0,0.0,0.0,0.0,0.0,0.0,0.0,0.0,0.0,0.0,0.0,0.0,-3.0364,-3.2771,-3.4786,-3.6048,-3.6029,-3.5505,-3.4256,-3.2206,-3.0343,0.0,0.0,0.0,0.0,0.0,0.0,0.0,0.0,0.0,0.0,0.0,0.0,0.0,0.0,0.0,0.0,0.0,0.0,0.0,0.0,0.0,0.0,0.0,0.0,0.0,0.0,0.0,0.0,0.0,0.0,0.0,0.0,0.0,0.0,0.0,0.0,0.0,0.0,0.0,0.0,0.0,0.0,0.0,0.0,0.0,0.0,0.0,0.0,0.0,0.0,0.0,0.0,0.0,0.0,0.0,0.0,0.0,0.0,0.0,0.0,0.0,0.0,0.0,0.0,0.0,0.0,0.0,0.0,0.0,0.0,0.0,0.0,0.0,0.0,0.0,0.0,0.0,0.0,0.0,0.0,0.0,0.0,0.0,0.0,0.0,0.0,0.0,0.0,0.0,0.0,0.0,0.0,0.0,0.0,0.0,0.0,0.0,0.0,0.0,0.0,0.0,0.0,0.0,-2.9673,-3.239,-3.4279,-3.4555,-3.4484,-3.3804,-3.2376,-3.051,-2.8898,-2.7574,0.0,0.0,0.0,0.0,0.0,0.0,0.0,0.0,0.0,0.0,0.0,0.0,0.0,0.0,0.0,0.0,0.0,0.0,0.0,0.0,0.0,0.0,0.0,0.0,0.0,0.0,0.0,0.0,0.0,0.0,0.0,0.0,0.0,0.0,0.0,0.0,0.0,0.0,0.0,0.0,0.0,0.0,0.0,0.0,0.0,0.0,0.0,0.0,0.0,0.0,0.0,0.0,0.0,0.0,0.0,0.0,0.0,0.0,0.0,0.0,0.0,0.0,0.0,0.0,0.0,0.0,0.0,0.0,0.0,0.0,0.0,0.0,0.0,0.0,0.0,0.0,0.0,0.0,0.0,0.0,0.0,0.0,0.0,0.0,0.0,0.0,0.0,0.0,0.0,0.0,0.0,0.0,0.0,0.0,0.0,0.0,0.0,0.0,0.0,0.0,0.0,0.0,-2.8768,-3.1384,-3.3277,-3.3673,-3.3336,-3.2629,-3.1435,-2.969,-2.811,-2.6717,0.0,0.0,0.0,0.0,0.0,0.0,0.0,0.0,0.0,0.0,0.0,0.0,0.0,0.0,0.0,0.0,0.0,0.0,0.0,0.0,0.0,0.0,0.0,0.0,0.0,0.0,0.0,0.0,0.0,0.0,0.0,0.0,0.0,0.0,0.0,0.0,0.0,0.0,0.0,0.0,0.0,0.0,0.0,0.0,0.0,0.0,0.0,0.0,0.0,0.0,0.0,0.0,0.0,0.0,0.0,0.0,0.0,0.0,0.0,0.0,0.0,0.0,0.0,0.0,0.0,0.0,0.0,0.0,0.0,0.0,0.0,0.0,0.0,0.0,0.0,0.0,0.0,0.0,0.0,0.0,0.0,0.0,0.0,0.0,0.0,0.0,0.0,0.0,0.0,0.0,0.0,0.0,0.0,0.0,0.0,0.0,0.0,0.0,0.0,0.0,0.0,0.0,-2.789,-3.0191,-3.2122,-3.3238,-3.269,-3.1987,-3.1219,-2.9492,-2.7773,-2.6266,0.0,0.0,0.0,0.0,0.0,0.0,0.0,0.0,0.0,0.0,0.0,0.0,0.0,0.0,0.0,0.0,0.0,0.0,0.0,0.0,0.0,0.0,0.0,0.0,0.0,0.0,0.0,0.0,0.0,0.0,0.0,0.0,0.0,0.0,0.0,0.0,0.0,0.0,0.0,0.0,0.0,0.0,0.0,0.0,0.0,0.0,0.0,0.0,0.0,0.0,0.0,0.0,0.0,0.0,0.0,0.0,0.0,0.0,0.0,0.0,-1.2849,0.0,0.0,0.0,0.0,0.0,0.0,0.0,0.0,0.0,0.0,0.0,0.0,0.0,0.0,0.0,0.0,0.0,0.0,0.0,0.0,0.0,0.0,0.0,0.0,0.0,0.0,0.0,0.0,0.0,0.0,0.0,0.0,0.0,0.0,0.0,0.0,0.0,0.0,0.0,0.0,0.0,-2.7964,-3.0571,-3.2466,-3.3171,-3.2924,-3.2004,-3.0437,-2.8837,-2.7552,-2.6539,-2.3395,0.0,0.0,0.0,0.0,0.0,0.0,0.0,0.0,0.0,0.0,0.0,0.0,0.0,0.0,0.0,0.0,0.0,0.0,0.0,0.0,0.0,0.0,0.0,0.0,0.0,0.0,0.0,0.0,0.0,0.0,0.0,0.0,0.0,0.0,0.0,0.0,0.0,0.0,0.0,0.0,0.0,0.0,0.0,0.0,0.0,0.0,0.0,0.0,0.0,0.0,0.0,0.0,0.0,0.0,0.0,0.0,0.0,0.0,0.0,0.0,-1.13,0.0,0.0,0.0,0.0,0.0,0.0,0.0,0.0,0.0,0.0,0.0,0.0,0.0,0.0,0.0,0.0,0.0,0.0,0.0,0.0,0.0,0.0,0.0,0.0,0.0,0.0,0.0,0.0,0.0,0.0,0.0,0.0,0.0,0.0,0.0,0.0,0.0,0.0,0.0,0.0,-2.7299,-2.9704,-3.1455,-3.2019,-3.1635,-3.0917,-2.9847,-2.8546,-2.7561,-2.713,-2.447,0.0,0.0,0.0,0.0,0.0,0.0,0.0,0.0,0.0,0.0,0.0,0.0,0.0,0.0,0.0,0.0,0.0,0.0,0.0,0.0,0.0,0.0,0.0,0.0,0.0,0.0,0.0,0.0,0.0,0.0,0.0,0.0,0.0,0.0,0.0,0.0,0.0,0.0,0.0,0.0,0.0,0.0,0.0,0.0,0.0,0.0,0.0,0.0,0.0,0.0,0.0,0.0,0.0,-1.1798,-1.0947,-1.1414,-1.0121,-0.9396,-0.9258,-0.8858,-0.9213,-1.0024,-0.8864,0.0,0.0,0.0,0.0,0.0,0.0,0.0,0.0,0.0,0.0,0.0,0.0,0.0,0.0,0.0,0.0,0.0,0.0,0.0,0.0,0.0,0.0,0.0,0.0,-2.3692,-2.369,-2.2703,0.0,0.0,0.0,0.0,0.0,0.0,0.0,0.0,0.0,0.0,0.0,-2.662,-2.8595,-3.0163,-3.0705,-3.0133,-2.969,-2.9504,-2.8415,-2.7723,-2.7746,-2.5959,-2.4677,0.0,0.0,0.0,0.0,0.0,0.0,0.0,0.0,0.0,0.0,0.0,0.0,0.0,0.0,0.0,0.0,0.0,0.0,0.0,0.0,0.0,0.0,0.0,0.0,0.0,0.0,0.0,0.0,0.0,0.0,0.0,0.0,-1.0882,-1.0783,0.0,0.0,0.0,0.0,0.0,0.0,0.0,0.0,0.0,0.0,0.0,0.0,0.0,-1.2203,-1.0478,-1.0391,-1.0524,-1.0822,-1.0274,-0.9782,-0.9343,-0.9192,-0.8179,-0.6519,-0.6198,0.0,-0.9016,-0.9566,0.0,0.0,0.0,0.0,0.0,0.0,0.0,0.0,0.0,0.0,0.0,0.0,0.0,0.0,0.0,0.0,0.0,0.0,0.0,0.0,0.0,0.0,-2.4599,-2.4267,-2.4554,-2.4764,0.0,-2.3154,-2.2205,-2.2061,-2.1599,0.0,0.0,0.0,0.0,0.0,0.0,0.0,-2.6718,-2.8581,-2.9944,-3.0497,-2.995,-2.9504,-2.9504,-2.8415,-2.7903,-2.8438,-2.6625,-2.5745,-2.6198,-2.388,0.0,0.0,0.0,0.0,0.0,0.0,0.0,0.0,0.0,0.0,0.0,0.0,0.0,0.0,0.0,0.0,0.0,0.0,0.0,0.0,0.0,0.0,0.0,0.0,0.0,0.0,0.0,0.0,0.0,-1.0407,-0.9939,-0.9263,-0.9686,-0.9988,0.0,0.0,0.0,0.0,0.0,0.0,0.0,0.0,0.0,-1.0504,-1.0604,-1.0332,-0.977,-1.0372,-1.0769,-1.0861,-1.0567,-1.0199,-0.9848,-0.7731,-0.6062,-0.4856,-0.5084,-0.5695,-0.6554,-0.6938,-0.5812,-0.3721,0.0,0.0,0.0,0.0,0.1936,0.016,-0.455,-0.7278,-0.8871,-0.9354,0.0,0.0,0.0,0.0,0.0,0.0,0.0,0.0,0.0,0.0,-2.3319,-2.3746,-2.412,-2.4472,-2.457,-2.4075,-2.3687,0.0,-2.359,-2.3169,-2.2125,0.0,0.0,0.0,0.0,-2.5174,-2.6171,-2.8124,-2.9563,-2.9785,-2.9532,-2.933,-2.9298,-2.8483,-2.8033,-2.8338,-2.7298,-2.6612,-2.647,-2.509,-2.4394,0.0,0.0,0.0,0.0,0.0,0.0,0.0,0.0,0.0,0.0,0.0,0.0,0.0,0.0,0.0,0.0,0.0,0.0,0.0,0.0,0.0,0.0,0.0,0.0,0.0,0.0,0.0,0.0,-0.9352,-0.8546,-0.7659,-0.8129,-0.8349,0.0,0.0,0.0,0.0,0.0,0.0,-0.9611,-0.9372,-0.9213,-0.922,-0.9204,-0.9231,-0.9334,-1.0059,-1.0162,-0.9519,-0.9075,-0.8845,-0.8738,-0.5245,-0.3204,-0.256,-0.2724,-0.3223,-0.3833,-0.4313,-0.5698,-0.7098,-0.3916,-0.1219,0.0867,0.0949,0.0688,-0.0433,-0.5029,-0.6977,-0.7394,-0.7678,-0.9109,-0.9364,-0.2122,0.0,0.0,0.0,0.0,-1.7382,-1.8699,-2.018,-2.1618,-2.2774,-2.3327,-2.3717,-2.4143,-2.4484,-2.4682,0.0,-2.5031,-2.4713,-2.3353,0.0,0.0,-2.1918,-2.3821,-2.5544,-2.5975,-2.7737,-2.9012,-2.9178,-2.8969,-2.8878,-2.9109,-2.8372,-2.7989,-2.8213,-2.7802,-2.7357,-2.6788,-2.6246,-2.5848,-2.5544,0.0,0.0,0.0,0.0,0.0,0.0,0.0,0.0,0.0,0.0,0.0,0.0,0.0,0.0,0.0,0.0,0.0,0.0,0.0,0.0,0.0,0.0,0.0,0.0,0.0,0.0,0.0,0.0,0.0,-0.5814,-0.6616,0.0,0.0,0.0,0.0,-0.8012,-0.751,-0.7638,-0.8676,-0.8313,-0.8354,-0.8863,-0.9145,-0.8742,-0.7759,-0.78,-0.6655,-0.4351,-0.4095,-0.3908,-0.391,-0.1425,0.0435,0.1524,0.2139,0.1167,-0.1162,-0.3199,-0.5446,-0.7528,-0.7379,-0.2868,0.3025,-0.1831,-0.3668,-0.442,-0.9422,-1.1052,-1.0915,-1.1293,-0.8901,-0.5797,-0.5453,-0.5632,0.0,0.0,-1.2999,-1.6357,-1.9118,-1.9797,-2.011,-2.1517,-2.2242,-2.2754,-2.3054,-2.3756,-2.4496,0.0,-2.4593,-2.4423,-2.4307,0.0,-2.3752,-2.4179,-2.4857,-2.5714,-2.6897,-2.7624,-2.8336,-2.8939,-2.799,-2.7775,-2.9007,-2.7952,-2.7511,-2.8184,-2.8163,-2.801,-2.7725,-2.7278,-2.7196,-2.7561,-2.6428,0.0,0.0,0.0,0.0,0.0,0.0,0.0,0.0,0.0,0.0,0.0,0.0,0.0,0.0,0.0,0.0,0.0,0.0,0.0,0.0,0.0,0.0,0.0,0.0,0.0,0.0,0.0,0.0,-0.6177,-0.6409,0.0,-0.5362,-0.5965,-0.6502,-0.646,-0.6456,-0.6597,-0.6995,-0.5884,-0.5377,-0.5609,-0.4603,-0.3872,-0.3508,-0.2754,-0.1878,-0.0994,0.0778,0.1563,0.1675,0.2108,0.3433,0.5324,0.5567,0.3137,-0.0863,-0.1673,-0.225,-0.3017,-0.6168,-0.5779,-0.3721,-0.5665,-0.6441,-0.6706,-0.8718,-0.9468,-0.9669,-1.0247,-0.9777,-0.9009,-0.9573,-1.0611,-1.1857,-1.2994,-1.4572,-1.6191,-1.7624,-1.8292,-1.8912,-2.043,-2.1344,-2.2252,-2.3738,-2.4168,-2.463,-2.579,-2.5222,-2.4636,-2.4811,-2.477,-2.4702,-2.478,-2.5306,-2.5974,-2.6839,-2.7897,-2.8454,-2.8274,-2.8228,-2.8196,-2.8116,-2.7351,-2.6792,-2.6637,-2.6733,-2.6732,-2.6663,-2.6968,-2.735,-2.7762,-2.7931,-2.7151,0.0,0.0,0.0,0.0,0.0,0.0,0.0,0.0,0.0,0.0,0.0,0.0,0.0,0.0,0.0,0.0,0.0,0.0,0.0,0.0,0.0,0.0,0.0,0.0,0.0,-0.7435,-0.724,-0.6569,-0.6365,-0.5467,-0.3561,-0.4234,-0.4712,-0.4712,-0.4187,-0.3775,-0.3785,-0.2733,-0.2129,-0.2191,-0.0986,0.033,0.1784,0.2676,0.3233,0.3457,0.5144,0.5935,0.5935,0.5479,0.604,0.751,0.732,0.5393,0.241,0.1186,0.0848,0.0727,-0.2418,-0.4267,-0.5219,-0.6125,-0.6037,-0.5596,-0.6591,-0.7612,-0.851,-0.876,-0.9313,-1.0044,-1.1066,-1.2348,-1.3566,-1.4592,-1.5111,-1.5696,-1.6617,-1.718,-1.7802,-1.9335,-2.0285,-2.1292,-2.2972,-2.3634,-2.4231,-2.5113,-2.5183,-2.5225,-2.5514,-2.5793,-2.5923,-2.5536,-2.6065,-2.6607,-2.7039,-2.7824,-2.8403,-2.8417,-2.8415,-2.8292,-2.7981,-2.7015,-2.6357,-2.6133,-2.5806,-2.5828,-2.6278,-2.6587,-2.6965,-2.7523,-2.8037,-2.769,-2.6482,0.0,0.0,0.0,0.0,0.0,0.0,0.0,0.0,0.0,0.0,0.0,0.0,0.0,0.0,0.0,0.0,0.0,0.0,0.0,0.0,0.0,0.0,0.0,-0.8068,-0.7427,-0.6831,-0.6698,-0.6517,-0.4549,0.0,-0.1538,-0.2695,-0.2592,-0.0315,0.1067,0.1084,0.1191,0.1308,0.1332,0.1333,0.3563,0.7976,0.8088,0.8428,0.9113,0.9113,0.9109,0.9109,0.8631,0.8507,0.8507,0.7724,0.794,0.8589,0.5267,0.3665,0.3379,0.3327,0.1834,-0.06,-0.2997,-0.2595,-0.1197,-0.3597,-0.5937,-0.7721,-0.723,-0.7521,-0.8247,-0.9705,-1.0486,-1.1394,-1.4282,-1.4702,-1.4734,-1.6288,-1.6542,-1.6796,-1.8336,-1.9134,-1.9766,-2.0489,-2.2159,-2.3285,-2.2692,-2.442,-2.6106,-2.6414,-2.704,-2.7284,-2.6714,-2.7095,0.0,-2.7537,-2.755,-2.8065,-2.9359,-2.8415,-2.7991,-2.8554,-2.6958,-2.616,-2.6712,-2.5578,-2.5502,-2.6831,-2.6213,-2.6287,-2.7211,-2.6763,-2.673,-2.7125,0.0,0.0,0.0,0.0,0.0,0.0,0.0,0.0,0.0,0.0,0.0,0.0,0.0,0.0,0.0,0.0,0.0,0.0,0.0,0.0,0.0,-0.3776,-0.4819,-0.6068,-0.652,-0.6168,-0.469,-0.5611,-0.5921,-0.4624,-0.2216,0.0956,0.5285,0.6293,0.6684,0.6672,0.5656,0.5105,0.5131,0.5129,0.6239,0.8254,0.9783,1.1193,1.2591,1.3028,1.3449,1.3858,1.3111,1.2788,1.268,1.1502,1.0175,0.8937,0.8739,0.8491,0.7935,0.6254,0.3883,0.1303,0.04,-0.1299,-0.3196,-0.4098,-0.5792,-0.7668,-0.7654,-0.8165,-0.9056,-1.0129,-1.0968,-1.1983,-1.3843,-1.4269,-1.45,-1.5619,-1.5891,-1.6229,-1.761,-1.8567,-1.9724,-2.1943,-2.3144,-2.416,-2.5315,-2.5855,-2.6125,-2.6169,-2.6921,-2.7802,-2.8648,-2.8441,0.0,-2.8967,-2.903,-2.8712,-2.7934,-2.8026,-2.7856,-2.7056,-2.6524,-2.6118,-2.5806,-2.5477,-2.5634,-2.6428,-2.6934,-2.8005,-2.9759,-2.8493,-2.7799,0.0,0.0,0.0,0.0,0.0,0.0,0.0,0.0,0.0,0.0,0.0,0.0,0.0,0.0,0.0,0.0,0.0,0.0,0.0,0.0,0.0,0.0,-0.3329,-0.4124,-0.4782,-0.6216,-0.5972,-0.2469,-0.3044,-0.3531,-0.3046,0.1088,0.4707,0.6869,0.821,0.8913,0.8876,0.8066,0.7601,0.7601,0.8143,0.8682,0.934,1.1185,1.269,1.3853,1.45,1.5016,1.5523,1.5117,1.5016,1.491,1.3955,1.2851,1.1841,1.1928,1.1688,0.0,0.0,0.0,0.0,0.0,0.05,-0.3701,-0.2998,-0.4806,-0.7428,-0.7641,-0.8391,-0.9433,-1.0564,-1.1407,-1.2406,-1.3875,-1.4164,-1.4349,-1.5398,-1.5733,-1.6064,-1.7456,-1.8416,-1.9636,-2.1783,-2.3193,-2.4216,-2.4978,-2.5737,0.0,-2.584,-2.6828,-2.7802,-2.8519,-2.8661,-2.8917,-2.9435,-2.956,-2.9296,-2.8583,-2.8962,-2.8806,-2.7742,-2.7262,0.0,0.0,0.0,-2.5762,-2.6463,-2.7288,0.0,0.0,0.0,0.0,0.0,0.0,0.0,0.0,-2.8755,-2.9437,0.0,0.0,0.0,0.0,0.0,0.0,0.0,0.0,0.0,0.0,0.0,0.0,0.0,0.0,0.0,0.0,-0.3308,-0.3844,-0.3316,-0.5037,-0.4715,-0.0532,0.0108,0.0661,0.168,0.5844,0.7424,0.4929,0.7282,0.886,0.886,0.0,0.0,0.0,0.0,1.0781,1.1109,1.2398,1.3465,1.4212,1.4736,1.5252,1.5858,1.6076,1.6287,1.6287,1.5641,1.5553,1.5901,1.4382,1.3503,1.266,0.9572,0.7988,0.7332,0.6637,0.23,-0.2902,-0.11,0.0,0.0,-0.7444,-0.8233,-0.941,-1.0783,-1.1621,-1.2559,-1.4248,-1.4421,-1.4396,-1.554,-1.5763,-1.6147,-1.7546,-1.8496,-1.9423,-2.0894,-2.2722,-2.3938,-2.3342,-2.4838,-2.6058,-2.5664,-2.6748,-2.7604,-2.7417,-2.8417,-2.9212,-2.9373,-2.956,-2.9718,-3.0029,0.0,0.0,-2.9435,-2.8497,-2.8024,-2.83,-2.6783,-2.6264,-2.7074,-2.7688,-2.8379,-2.9123,-2.947,-3.0004,-3.0764,-3.1301,-3.1753,-3.2032,-3.1132,-3.1834,0.0,0.0,0.0,0.0,0.0,0.0,0.0,0.0,0.0,0.0,0.0,0.0,0.0,0.0,0.0,0.1212,-0.0481,-0.1283,0.0905,0.2905,0.3183,0.032,0.0867,0.1544,0.1792,0.4374,0.6056,0.6156,0.7844,0.8853,0.8947,0.894,0.9375,1.0351,1.0562,1.1655,1.3511,1.446,1.5624,1.7121,0.0,0.0,1.9509,1.931,1.962,2.0135,1.8464,1.7522,1.7108,1.5624,1.3984,1.2226,0.9472,0.7677,0.6634,0.6437,0.3403,-0.0699,-0.05,-0.3202,-0.6942,-0.7141,-0.7836,-0.8825,-1.0391,-1.1249,0.0,-1.4989,-1.5167,-1.496,-1.6297,-1.6362,-1.6245,-1.7049,-1.8292,-1.9769,-2.1237,-2.2755,-2.3969,-2.4741,-2.5058,-2.538,-2.5947,-2.7002,-2.792,-2.8556,-2.9219,-2.9699,-2.9913,-2.9974,-2.9577,-2.8504,-2.8774,-2.885,-2.8196,-2.8353,-2.8464,-2.8434,-2.8442,-2.8621,-2.9125,-2.9736,-3.0245,-3.0765,-3.0459,-3.0386,-3.0552,-3.2365,-3.3356,-3.3556,-3.2937,-3.3366,0.0,0.0,0.0,0.0,0.0,0.0,0.0,0.0,0.0,0.0,0.0,-0.0659,-0.0349,0.0,0.1844,0.1919,0.1374,0.1196,0.1912,0.4757,0.56,0.2232,0.2614,0.333,0.3805,0.5826,0.7057,0.6821,0.8168,0.895,0.894,0.894,0.9154,0.9809,1.0895,1.2091,1.329,1.5013,1.6399,1.7569,1.7989,1.893,2.0285,2.0483,2.0901,2.1623,2.0063,1.9117,1.8359,1.6138,1.4283,1.248,1.0132,0.8251,0.6933,0.6537,0.441,0.1399,0.02,-0.23,-0.5218,-0.6534,-0.7932,-0.9217,-1.0293,-1.138,-1.2796,-1.4987,-1.5255,-1.5137,-1.641,-1.6826,-1.7049,-1.7529,-1.9,-2.07,-2.2081,-2.3185,-2.4186,-2.5135,-2.5218,-2.5302,-2.6062,-2.6824,-2.7512,-2.8112,-2.8927,-2.9414,-2.929,-2.9308,-2.9059,-2.8249,-2.8488,-2.8613,-2.8339,-2.9074,-2.9657,-2.9925,-3.04,-3.0824,-3.1145,-3.1545,-3.193,-3.2353,-3.1909,-3.2081,-3.2866,-3.3826,-3.4651,-3.5317,-3.5652,-3.6163,0.0,0.0,0.0,0.0,0.0,0.0,0.0,0.1029,0.0,0.0768,0.1892,0.2535,0.1759,0.2837,0.346,0.2454,0.3194,0.3527,0.2616,0.5122,0.6362,0.4744,0.4684,0.5119,0.6017,0.782,0.8501,0.7479,0.8813,0.9592,0.9592,0.9372,0.9375,0.9592,1.1437,1.2521,1.2743,1.5018,1.6424,1.6935,1.7358,1.8297,1.9554,2.0063,2.0783,2.1615,2.0475,1.9708,1.889,1.6025,1.411,1.2822,1.0694,0.8929,0.7531,0.6734,0.5016,0.2902,0.0699,-0.1399,-0.3604,-0.5929,-0.7928,-0.9509,-1.0096,-1.1473,-1.3199,-1.4871,-1.4937,-1.4883,-1.632,-1.7048,-1.761,-1.8095,-1.9788,-2.1552,-2.2723,-2.361,-2.4337,-2.5158,-2.53,-2.5511,-2.622,-2.6837,-2.7181,-2.7304,-2.8211,-2.8685,-2.8232,-2.8344,-2.8422,-2.8236,-2.8554,-2.8847,-2.9065,-3.014,-3.0979,-3.1486,-3.2161,-3.2627,-3.2855,-3.3093,-3.3413,-3.3776,-3.3504,-3.402,-3.5339,-3.5345,-3.5911,-3.6938,-3.8112,-3.8663,-0.2488,-0.2435,-0.1254,0.0551,0.109,0.1801,0.0,0.378,0.3137,0.3513,0.412,0.5014,0.681,0.5366,0.4417,0.5615,0.5954,0.5964,0.5854,0.7677,0.8794,0.8163,0.6629,0.58,0.6243,0.785,0.8896,0.8673,1.0765,1.1982,1.1982,1.1,1.1,1.1982,1.2309,1.2965,1.3948,1.5244,1.5998,1.6099,1.6099,1.6624,1.7562,1.7779,1.8826,2.0285,1.8902,1.8019,1.7244,1.4733,1.3244,1.2274,1.0393,0.8832,0.7531,0.6734,0.5016,0.2902,0.0699,-0.1399,-0.3604,-0.5724,-0.7531,-0.9019,-0.9509,-1.0694,-1.2252,-1.4702,-1.46,-1.4283,-1.6242,-1.6792,-1.7025,-1.7836,-1.9847,-2.1845,-2.2798,-2.361,-2.4337,-2.5158,-2.5134,-2.5392,-2.6688,-2.7377,-2.7565,-2.7213,-2.7642,-2.7913,-2.7488,-2.7642,-2.7723,-2.7553,-2.8204,-2.9067,-2.9984,-3.1166,-3.1868,-3.199,-3.2937,-3.3529,-3.3728,-3.4119,-3.4493,-3.4818,-3.4905,-3.5226,-3.5823,-3.6626,-3.7368,-3.8034,-3.9024,-3.9214,-0.008,0.0399,0.1521,0.3248,0.3725,0.4148,0.5822,0.615,0.6009,0.5633,0.7031,0.7966,0.7226,0.7042,0.6787,0.6126,0.6457,0.6966,0.7563,0.8501,0.9381,0.9981,0.965,0.9359,0.957,1.0598,1.1138,1.1138,1.2032,1.254,1.2422,1.1982,1.1873,1.2413,1.3073,1.3938,1.4894,1.6086,1.6624,1.6624,1.6624,1.6836,1.7252,1.747,1.8003,1.861,1.7328,1.6367,1.5341,1.2572,1.1894,1.2329,0.99,0.8638,0.7942,0.6836,0.5016,0.2902,0.0699,-0.1399,-0.3504,-0.5724,-0.7531,-0.8821,-0.9217,-1.04,-1.2068,-1.4364,-1.4353,-1.4283,-1.6705,-1.7484,-1.7819,-1.8567,-2.073,-2.2723,-2.2957,-2.3975,-2.4933,-2.5229,-2.5511,-2.5988,-2.6824,-2.7717,-2.8213,-2.8018,-2.8193,-2.8239,-2.8056,-2.7857,-2.7769,-2.7817,-2.8152,-2.887,-3.0085,-3.0939,-3.1753,-3.2446,-3.3668,-3.4146,-3.363,-3.4771,-3.5082,-3.4323,-3.5172,-3.5915,-3.6526,-3.7405,-3.8238,-3.9019,-3.963,-3.9806,0.1824,0.2496,0.3441,0.5284,0.5722,0.5968,0.7076,0.7674,0.7886,0.7753,0.9192,0.9951,0.8014,0.8762,0.9164,0.7505,0.7738,0.8367,0.9222,0.9737,1.0488,1.1576,1.2398,1.2931,1.3043,1.3262,1.328,1.328,1.3608,1.3622,1.3403,1.3068,1.2852,1.2852,1.3727,1.4482,1.5108,1.6499,1.7252,1.7252,1.7252,1.7252,1.7252,1.7364,1.7259,1.6909,1.594,1.4855,1.3575,1.1239,1.0795,1.1276,0.8892,0.754,0.6939,0.5627,0.4312,0.2902,0.0699,-0.1399,-0.3504,-0.5724,-0.7531,-0.8825,-0.9019,-1.0395,-1.2257,-1.4082,-1.4409,-1.465,-1.7064,-1.8054,-1.8521,-1.9161,-2.1298,-2.3202,-2.3032,-2.4204,-2.5382,-2.5523,-2.6013,-2.6564,-2.7108,-2.8052,-2.8785,-2.9053,-2.8876,-2.8661,-2.8498,-2.8212,-2.8134,-2.8458,-2.8442,-2.8872,-3.0035,-3.0778,-3.1622,-3.2714,-3.4028,-3.4493,-3.3862,-3.5064,-3.5385,-3.4621,-3.567,-3.6638,-3.7558,-3.8207,-3.8944,-3.9735,-3.9994,-4.0176,0.2364,0.3078,0.362,0.5706,0.634,0.6905,0.7981,0.809,0.8383,0.9905,1.0056,1.0232,1.081,1.084,1.0847,1.1043,1.0874,1.0839,1.1129,1.2186,1.3012,1.3002,1.4482,1.5491,1.5755,1.5035,1.4514,1.4514,1.5615,1.6054,1.5797,1.4708,1.4164,1.4164,1.4164,1.4169,1.4272,1.6187,1.7252,1.7252,1.7252,1.7252,1.7252,1.7252,1.6605,1.5399,1.471,1.362,1.2269,1.1415,1.0125,0.8457,0.703,0.5225,0.3222,0.2513,0.2607,0.2902,0.0699,-0.1399,-0.3504,-0.5724,-0.7531,-0.8825,-0.8825,-1.0583,-1.292,-1.398,-1.4728,-1.5636,-1.7309,-1.8074,-1.8624,-1.9145,-2.1201,-2.3032,-2.3032,-2.4204,-2.5453,-2.6082,-2.6633,-2.7175,-2.7709,-2.8276,-2.8985,-3.0169,-2.965,-2.8878,-2.8312,-2.8365,-2.8776,-2.945,-2.9249,-2.9289,-2.9848,-3.1021,-3.1984,-3.2659,-3.3842,-3.4616,-3.4836,-3.4925,-3.5474,-3.6588,-3.687,-3.7625,-3.8943,-3.9216,-3.9604,-4.0096,-4.0096,-4.0177,0.3592,0.4746,0.6189,0.8125,0.8778,0.9389,1.0891,1.1043,1.1104,1.1899,1.2466,1.2847,1.2951,1.2949,1.2773,1.2178,1.1576,1.1447,1.2168,1.2951,1.373,1.432,1.517,1.5861,1.6127,1.5896,1.573,1.573,1.6059,1.6169,1.5903,1.5565,1.5351,1.5351,1.5351,1.5232,1.5001,1.6499,1.6387,1.4866,1.5108,1.5559,1.6305,1.6074,1.5441,1.4317,1.2898,1.1746,1.095,0.909,0.7691,0.6531,0.6458,0.3321,-0.1107,-0.1307,-0.1304,-0.1199,-0.19,-0.3504,-0.552,-0.683,-0.7928,-0.8924,-0.9422,-1.1077,-1.292,-1.398,-1.4735,-1.5874,-1.8282,-1.8955,-1.9331,-2.0985,-2.2366,-2.3426,-2.3677,-2.4564,-2.5453,-2.6082,-2.6633,-2.7175,-2.7709,-2.8571,-2.9501,-3.0345,-3.0608,-3.0499,-2.974,-3.0018,-3.0179,-3.0033,-3.0209,-3.0251,-2.9908,-3.0972,-3.1735,-3.1943,-3.3261,-3.3847,-3.3402,-3.5134,-3.5769,-3.5112,-3.7241,-3.8188,-3.7948,-3.9051,-3.967,-3.9848,-3.9933,-4.0017,0.5709,0.7139,0.8512,1.0523,1.1057,1.1417,1.2797,1.3006,1.3008,1.3752,1.4365,1.4836,1.4913,1.4238,1.3958,1.457,1.3657,1.3115,1.3825,1.4551,1.482,1.4579,1.514,1.5743,1.6127,1.6223,1.6278,1.6278,1.6284,1.6169,1.5903,1.5891,1.5891,1.5891,1.5891,1.5773,1.5541,1.618,1.5843,1.4325,1.4572,1.5125,1.5885,1.5122,1.4245,1.3246,1.1681,1.0374,0.9365,0.7516,0.6458,0.5746,0.4547,0.0605,-0.434,-0.4338,-0.4329,-0.4214,-0.3506,-0.4612,-0.6537,-0.7332,-0.8127,-0.8924,-0.9723,-1.157,-1.3403,-1.4076,-1.5188,-1.6692,-1.9001,-1.9748,-2.038,-2.2231,-2.3423,-2.4122,-2.4306,-2.4848,-2.5523,-2.6358,-2.6769,-2.7242,-2.7987,-2.9002,-2.9845,-3.0256,-3.1256,-3.1632,-3.1039,-3.1125,-3.1254,-3.11,-3.1257,-3.1324,-3.1137,-3.1653,-3.209,-3.2366,-3.3301,-3.363,-3.3229,-3.5193,-3.5987,-3.5309,-3.7379,-3.8264,-3.7956,-3.9127,-3.967,-3.9628,-3.9848,-3.9914,0.8698,0.9907,1.06,1.2794,1.2934,1.2814,1.3835,1.4056,1.4254,1.5368,1.5641,1.5922,1.6669,1.4833,1.4365,1.7683,1.656,1.5301,1.5581,1.6449,1.615,1.4024,1.4482,1.525,1.5891,1.6115,1.626,1.626,1.629,1.6187,1.5903,1.5885,1.5998,1.5891,1.5891,1.5891,1.5885,1.5429,1.531,1.531,1.5204,1.5423,1.5749,1.4323,1.3041,1.2044,1.1039,0.9575,0.7654,0.6721,0.6279,0.5979,0.1414,-0.2727,-0.6284,-0.638,-0.6369,-0.6152,-0.4111,-0.4712,-0.6637,-0.7431,-0.8226,-0.9019,-0.9916,-1.2145,-1.4364,-1.4459,-1.6089,-1.8103,-1.9368,-2.0533,-2.1778,-2.3012,-2.4205,-2.4975,-2.4952,-2.5144,-2.5721,-2.6824,-2.7095,-2.7443,-2.8457,-2.9435,-3.004,-3.0097,-3.1422,-3.2272,-3.1936,-3.1789,-3.1972,-3.2654,-3.2399,-3.2524,-3.3246,-3.3026,-3.311,-3.3828,-3.3879,-3.4031,-3.4339,-3.5145,-3.6067,-3.7071,-3.7339,-3.7945,-3.8942,-3.9433,-3.9642,-3.9583,-3.9845,-3.9892,1.0282,1.1812,1.3187,1.4235,1.4415,1.4507,1.5651,1.5814,1.5806,1.5919,1.6645,1.7078,1.6834,1.5389,1.4542,1.5541,1.382,1.2791,1.3842,1.4341,1.4669,1.503,1.5464,1.5678,1.5891,1.5952,1.5988,1.5988,1.6832,1.6825,1.5903,1.6518,1.6518,1.5891,1.5891,1.5773,1.5535,1.3675,1.3357,1.4482,1.2733,1.2759,1.4312,1.224,1.0998,1.0203,0.9101,0.8099,0.711,0.5352,0.5352,0.5672,-0.1816,-0.4446,-0.4237,-0.5856,-0.6356,-0.6342,-0.6032,-0.6528,-0.7531,-0.8718,-0.9604,-1.0583,-1.2328,-1.3968,-1.5216,-1.5886,-1.7483,-1.933,-2.039,-2.1905,-2.3408,-2.4767,-2.5496,-2.5878,-2.6031,-2.61,-2.6346,-2.7217,-2.8222,-2.9022,-2.9289,-2.9637,-3.0054,-3.0539,-3.1349,-3.1864,-3.1879,-3.2625,-3.3163,-3.3097,-3.3512,-3.3802,-3.3761,-3.4144,-3.4481,-3.4695,-3.4936,-3.5101,-3.5199,-3.6154,-3.6808,-3.7089,-3.8033,-3.887,-3.957,-3.937,-3.9631,-4.0378,-3.9873,-3.975,1.3059,1.4549,1.5735,1.6795,1.6937,1.6944,1.7259,1.753,1.7482,1.7077,1.7431,1.7752,1.7397,1.5162,1.3795,1.5342,1.3695,1.2471,1.3234,1.4366,1.5097,1.4696,1.5137,1.5571,1.5891,1.5994,1.6012,1.5897,1.6882,1.7009,1.5897,1.673,1.6829,1.5891,1.5891,1.5339,1.4132,1.4003,1.3798,1.3181,1.222,1.2326,1.3477,1.1294,1.0071,0.9361,0.0,0.7932,0.6971,0.5653,0.4444,0.2929,-0.3739,-0.5667,-0.4742,-0.5957,-0.6353,-0.6437,-0.6539,-0.7434,-0.8619,-0.9505,-1.0194,-1.117,-1.3295,-1.4638,-1.5596,-1.6358,-1.8133,-1.9886,-2.0773,-2.2669,-2.4746,-2.5787,-2.6572,-2.7152,-2.7249,-2.7011,-2.6993,-2.7736,-2.8817,-2.9665,-2.9803,-2.9913,-3.019,-3.0911,-3.158,-3.2074,-3.2351,-3.314,-3.3738,-3.3826,-3.4464,-3.5069,-3.5508,-3.5492,-3.5651,-3.606,-3.6396,-3.6438,-3.6226,-3.7461,-3.8012,-3.7726,-3.8389,-3.8927,-3.9323,-3.9305,-3.9485,-3.9861,-3.9797,-3.9772,1.5993,1.7239,1.7827,1.9171,1.9414,1.9204,1.86,1.869,1.878,1.8124,1.8119,1.8175,1.8046,1.4851,1.3139,1.5921,1.4479,1.3046,1.3283,1.5176,1.5895,1.4234,1.4696,1.5357,1.5891,1.6097,1.6133,1.5903,1.673,1.6836,1.6099,1.6935,1.6942,1.5891,1.6099,1.4905,1.2417,1.5108,1.4888,1.176,1.2214,1.2524,1.2575,1.0643,0.9458,0.8925,0.8807,0.7962,0.6673,0.6486,0.3537,-0.1212,-0.4653,-0.6178,-0.6374,-0.6364,-0.645,-0.6534,-0.6637,-0.7925,-0.9706,-0.9998,-1.0583,-1.1653,-1.368,-1.493,-1.588,-1.6648,-1.8495,-2.0249,-2.0962,-2.3365,-2.5764,-2.6472,-2.749,-2.8396,-2.8332,-2.79,-2.7734,-2.8502,-2.9253,-2.9851,-3.0111,-3.0233,-3.0522,-3.1321,-3.1962,-3.2555,-3.3108,-3.3559,-3.4068,-3.4673,-3.5249,-3.6146,-3.7453,-3.6784,-3.6646,-3.7505,-3.781,-3.7729,-3.7289,-3.8631,-3.9097,-3.851,-3.851,-3.8645,-3.8854,-3.9219,-3.9272,-3.9039,-3.9717,-3.9813,1.6736,1.788,1.8621,1.9124,1.9213,1.9006,1.8285,1.8309,1.8344,1.7706,1.8109,1.837,1.7745,1.606,1.4739,1.4491,1.3018,1.2109,1.2904,1.3593,1.4339,1.5423,1.5672,1.5785,1.5891,1.5934,1.594,1.5891,1.673,1.7147,1.6935,1.7786,1.747,1.5998,1.7041,1.5843,1.2091,1.4438,1.3788,1.0233,0.9962,0.991,0.9955,0.8639,0.7687,0.7175,0.7366,0.0,0.4033,0.567,0.1816,-0.5164,-0.4138,-0.4843,-0.6364,-0.6448,-0.6836,-0.7431,-0.7637,-0.8829,-1.0306,-1.028,-1.2027,-1.4268,-1.571,-1.6655,-1.7498,-1.8257,-1.9894,-2.1427,-2.1516,-2.4159,-2.6812,-2.6987,-2.7885,-2.8787,-2.8636,-2.873,-2.916,-3.0319,-3.0487,-3.0462,-3.0507,-3.0807,-3.1321,-3.2018,-3.2555,-3.3108,-3.3815,-3.4415,-3.4911,-3.5278,-3.5907,-3.6602,-3.7281,-3.7339,-3.747,-3.781,-3.8088,-3.8201,-3.8107,-3.8455,-3.8624,-3.851,-3.8609,-3.9019,-3.9774,-3.9206,-3.9407,-4.0288,-3.9752,-3.9721,1.8157,1.9497,2.0329,2.0337,2.064,2.0458,1.8982,1.892,1.8929,1.8155,1.8222,1.8311,1.7979,1.659,1.5252,1.4488,1.3114,1.2448,1.3265,1.3634,1.4333,1.5713,1.5891,1.5891,1.5891,1.5891,1.5891,1.5891,1.673,1.7252,1.7252,1.7575,1.7153,1.5891,1.6736,1.5429,1.1982,1.4239,1.3633,1.0105,1.0359,1.0072,0.9476,0.8103,0.7199,0.6642,0.6662,0.5347,0.3224,0.313,-0.0706,-0.6287,-0.5256,-0.5452,-0.6461,-0.6842,-0.7428,-0.8124,-0.8623,-1.0002,-1.1468,-1.1838,-1.3097,-1.4752,-1.6197,-1.7138,-1.7971,-1.9263,-2.0619,-2.1784,-2.2306,-2.4777,-2.7069,-2.7069,-2.8536,-2.9918,-2.9709,-3.0254,-3.0807,-3.0984,-3.1141,-3.1081,-3.0746,-3.1204,-3.1792,-3.2351,-3.3024,-3.3614,-3.4234,-3.4913,-3.5345,-3.5504,-3.5994,-3.6748,-3.7789,-3.7567,-3.7737,-3.8528,-3.879,-3.8776,-3.8419,-3.8866,-3.8949,-3.8609,-3.8701,-3.8964,-3.9381,-3.9192,-3.9333,-3.9742,-3.9652,-3.975,1.967,2.097,2.1697,2.1748,2.2,2.1763,1.9853,1.96,1.9434,1.8634,1.8462,1.8405,1.8337,1.7149,1.6058,1.5471,1.4431,1.3827,1.4072,1.4552,1.5062,1.5611,1.5855,1.5891,1.5891,1.5891,1.5891,1.5891,1.6836,1.7358,1.7252,1.7358,1.6942,1.5891,1.6111,1.4911,1.2091,1.4094,1.355,1.0305,1.0711,1.0416,0.9259,0.7892,0.7036,0.6442,0.6366,0.5457,0.0,0.111,-0.2222,-0.577,-0.6176,-0.6369,-0.6456,-0.7141,-0.7925,-0.8711,-0.9406,-1.0877,-1.2635,-1.3494,-1.4262,-1.5038,-1.6386,-1.7326,-1.8249,-1.9886,-2.097,-2.1961,-2.3086,-2.5199,-2.7232,-2.7568,-2.9344,-3.0913,-3.0916,-3.1694,-3.2192,-3.1475,-3.1598,-3.1628,-3.0998,-3.1522,-3.217,-3.2641,-3.3407,-3.4136,-3.4594,-3.5211,-3.5588,-3.5582,-3.5907,-3.6634,-3.7897,-3.7542,-3.7735,-3.8798,-3.9132,-3.9043,-3.8528,-3.9163,-3.925,-3.8738,-3.8792,-3.8822,-3.8833,-3.9237,-3.9317,-3.9101,-3.9571,-3.984,2.0506,2.1418,2.1771,2.2302,2.2,2.137,2.0308,1.959,1.8957,1.8389,1.8539,1.8674,1.8549,1.8492,1.8242,1.7385,1.7056,1.648,1.5164,1.5675,1.5985,1.5249,1.5635,1.5891,1.5891,1.5891,1.5891,1.5891,1.7364,1.7996,1.7252,1.7891,1.7477,1.5589,1.601,1.5018,1.2413,1.3726,1.2866,0.998,0.9546,0.8973,0.8245,0.7092,0.6445,0.6361,0.6372,0.6279,0.0,0.1717,-0.1412,-0.3729,-0.566,-0.6361,-0.6439,-0.6742,-0.8028,-0.9509,-0.9899,-1.1277,-1.3238,-1.428,-1.5425,-1.6574,-1.7318,-1.8071,-1.8912,-1.9985,-2.097,-2.212,-2.3826,-2.5703,-2.7476,-2.9131,-3.0254,-3.1106,-3.1788,-3.2277,-3.2587,-3.2576,-3.2214,-3.181,-3.1191,-3.1894,-3.2625,-3.2949,-3.3783,-3.4594,-3.4994,-3.535,-3.5622,-3.5756,-3.6088,-3.6402,-3.6719,-3.7147,-3.7485,-3.7811,-3.831,-3.8551,-3.851,-3.8756,-3.8865,-3.8792,-3.8851,-3.8939,-3.8979,-3.9264,-3.9427,-3.9477,-3.9705,-3.9944,2.1301,2.2418,2.3009,2.2629,2.2055,2.1422,2.035,1.958,1.9105,1.9059,1.9008,1.9008,1.8952,1.9085,1.891,1.818,1.7502,1.7026,1.7107,1.6552,1.619,1.6173,1.6343,1.6257,1.5761,1.5791,1.6031,1.6292,1.7654,1.795,1.6625,1.7583,1.718,1.5041,1.503,1.3879,1.1305,1.2596,1.1756,0.864,0.8922,0.8708,0.7811,0.6856,0.6445,0.6361,0.5046,0.5256,0.0,-0.1009,-0.3835,-0.3927,-0.5954,-0.6856,-0.7036,-0.8223,-0.9406,-1.0489,-1.1668,-1.3125,-1.4675,-1.5527,-1.6473,-1.7318,-1.7598,-1.8611,-1.9903,-2.0889,-2.2189,-2.3664,-2.4872,-2.6625,-2.8359,-3.0088,-3.1057,-3.1842,-3.272,-3.3405,-3.3819,-3.3504,-3.3421,-3.3075,-3.2434,-3.2967,-3.3597,-3.3729,-3.4366,-3.5024,-3.5543,-3.5766,-3.6011,-3.6291,-3.6451,-3.6655,-3.7034,-3.7394,-3.7756,-3.8168,-3.8364,-3.8541,-3.8683,-3.8762,-3.8822,-3.8881,-3.8939,-3.8979,-3.8979,-3.9298,-3.9458,-3.9483,-3.9705,-4.021,2.1771,2.2793,2.3434,2.2948,2.2208,2.1365,2.0728,1.9802,1.9162,1.9297,1.9142,1.8942,1.9142,1.9142,1.9019,1.8684,1.8291,1.809,1.8213,1.7853,1.7493,1.7127,1.7469,1.7279,1.5811,1.5817,1.6197,1.6925,1.791,1.7782,1.628,1.7081,1.6594,1.4665,1.4348,1.3211,1.1182,1.2059,1.1235,0.866,0.8914,0.8528,0.773,0.6839,0.6147,0.555,0.3729,0.3533,0.0,-0.2825,-0.5354,-0.5138,-0.6553,-0.7153,-0.7434,-0.911,-1.0194,-1.1077,-1.2646,-1.4196,-1.5534,-1.6298,-1.7232,-1.7963,-1.8419,-1.933,-2.052,-2.1774,-2.3577,-2.5441,-2.6389,-2.7799,-2.9328,-3.0657,-3.1636,-3.2519,-3.3367,-3.4235,-3.4692,-3.4159,-3.4203,-3.4145,-3.3569,-3.3942,-3.4298,-3.4509,-3.4903,-3.535,-3.5864,-3.6054,-3.6207,-3.6545,-3.6678,-3.6878,-3.7246,-3.7596,-3.7913,-3.8314,-3.8491,-3.8634,-3.8773,-3.8851,-3.8881,-3.8921,-3.9007,-3.9036,-3.9036,-3.9408,-3.9585,-3.9585,-4.0148,-4.1132,2.1742,2.2451,2.2627,2.358,2.2271,2.0953,2.1594,2.0315,1.8894,1.8832,1.8684,1.8549,1.8741,1.8808,1.8808,1.8808,1.9996,2.0268,1.8217,1.9808,2.0196,1.7699,1.9055,1.9107,1.6239,1.5831,1.64,1.7789,1.8086,1.769,1.6386,1.6293,1.5695,1.4384,1.4078,1.3459,1.254,1.2435,1.1711,1.0685,0.9402,0.8524,0.7922,0.6853,0.5448,0.3729,0.2823,0.1514,0.0,-0.2924,-0.5249,-0.7181,-0.7366,-0.735,-0.7335,-0.8722,-0.9899,-1.0974,-1.2242,-1.389,-1.5534,-1.6298,-1.7419,-1.8703,-2.0141,-2.0421,-2.0701,-2.2561,-2.5041,-2.7313,-2.8211,-2.9263,-3.0292,-3.1044,-3.1942,-3.2903,-3.3659,-3.4505,-3.502,-3.4337,-3.433,-3.4482,-3.4417,-3.4391,-3.4585,-3.521,-3.5313,-3.5503,-3.6011,-3.6097,-3.6182,-3.6374,-3.6799,-3.7073,-3.702,-3.756,-3.7893,-3.7911,-3.846,-3.8792,-3.8792,-3.8939,-3.8997,-3.8979,-3.9045,-3.9101,-3.9101,-3.9571,-3.9797,-3.9838,-4.1238,-4.2799,2.1699,2.2256,2.2568,2.2211,2.1209,2.0274,2.0068,1.9141,1.8315,1.83,1.8212,1.8212,1.8405,1.8539,1.8809,1.9424,1.9626,1.99,2.0328,2.0017,1.9185,1.7687,1.7028,1.6407,1.5751,1.6256,1.689,1.7483,1.7956,1.753,1.6079,1.5983,1.5199,1.3512,1.3418,1.243,1.058,1.1618,1.0686,0.7792,0.845,0.7624,0.5529,0.5236,0.4029,0.2218,0.1714,0.0504,-0.1313,-0.3932,-0.5443,-0.6353,-0.725,-0.8137,-0.9015,-1.0096,-1.1268,-1.2339,-1.3986,-1.5507,-1.6835,-1.7591,-1.8972,-2.0602,-2.1667,-2.2022,-2.2532,-2.5525,-2.736,-2.8676,-2.9574,-3.0406,-3.122,-3.2028,-3.2875,-3.3659,-3.4587,-3.5001,-3.5154,-3.5076,-3.5561,-3.5906,-3.5859,-3.6222,-3.6685,-3.6904,-3.6932,-3.7051,-3.7374,-3.7255,-3.7189,-3.7279,-3.7301,-3.7188,-3.6825,-3.7524,-3.8016,-3.8114,-3.8554,-3.8851,-3.8921,-3.8997,-3.9007,-3.9073,-3.9101,-3.9101,-3.9101,-3.9571,-4.0289,-4.1257,-4.2298,-4.3395,2.1446,2.1599,2.1568,2.1412,2.0518,1.9639,1.9458,1.8666,1.7973,1.8057,1.794,1.8008,1.8731,1.8798,1.8914,1.9543,2.0233,2.0639,2.0252,2.0449,2.0139,1.9,1.6922,1.6031,1.6905,1.6863,1.6964,1.7354,1.745,1.6951,1.5615,1.5229,1.4449,1.3068,1.2974,1.2008,1.0096,1.1282,1.01,0.6736,0.7928,0.7126,0.4632,0.3623,0.2616,0.1511,0.0504,-0.0908,0.0,-0.4433,-0.5741,-0.6851,-0.7939,-0.8821,-0.9805,-1.1268,-1.2242,-1.3113,-1.5032,-1.6459,-1.7669,-1.868,-2.0584,-2.2551,-2.3664,-2.4084,-2.4681,-2.7128,-2.845,-2.9328,-3.0203,-3.1009,-3.1796,-3.2591,-3.3437,-3.4206,-3.5148,-3.5344,-3.5394,-3.5539,-3.6165,-3.6794,-3.6943,-3.7371,-3.7774,-3.8069,-3.8072,-3.8174,-3.8491,-3.8315,-3.816,-3.8277,-3.7864,-3.7469,-3.7079,-3.7667,-3.8117,-3.818,-3.8615,-3.8892,-3.8997,-3.9036,-3.9064,-3.9101,-3.9101,-3.9137,-3.9234,-4.0079,-4.113,-4.2406,-4.3274,-4.4153,0.0,2.0611,2.011,2.0851,1.9999,1.9035,1.9459,1.8695,0.0,1.8202,1.794,1.8008,1.9483,1.9396,1.9142,1.9435,2.1498,2.1931,1.8563,2.0639,2.205,2.078,1.8263,1.7333,1.9099,1.7677,1.6864,1.7232,1.6864,1.6103,1.5146,1.4382,1.3522,1.2861,1.2759,1.2068,1.0685,1.1184,1.0002,0.7138,0.7627,0.693,0.5039,0.2314,0.1308,0.0,-0.0706,-0.2423,0.0,-0.4526,-0.6037,-0.7965,-0.9126,-0.9706,-0.9998,-1.195,-1.2926,-1.3505,-1.5589,-1.7016,-1.8133,-1.9926,-2.2161,-2.4382,-2.5786,-2.6378,-2.6801,-2.7718,-2.8518,-2.9406,-3.0203,-3.1158,-3.2074,-3.2749,-3.3671,-3.4595,-3.5344,-3.5589,-3.5688,-3.5688,-3.6415,-3.7175,-3.769,-3.7877,-3.8179,-3.8824,-3.887,-3.9007,-3.9453,-3.9289,-3.9175,-3.9265,-3.8543,-3.7969,-3.7703,-3.7998,-3.8212,-3.8212,-3.8707,-3.9007,-3.9007,-3.9073,-3.9147,-3.9203,-3.923,-3.938,-3.9647,-4.096,-4.2181,-4.3322,-4.4134,-4.4959,2.093,0.0,2.001,1.9184,1.8933,1.8783,0.0,1.8544,1.8472,1.8337,1.8405,1.8708,1.9431,1.9494,1.9744,2.0736,2.0991,2.0607,1.9496,1.862,1.789,1.7651,1.6822,1.6577,1.721,1.7232,1.7138,1.7326,1.6669,1.5906,1.5146,1.4382,1.3522,1.2861,1.1965,1.1077,0.9903,0.96,0.8414,0.6239,0.6833,0.6029,0.393,0.2415,0.1309,0.0302,-0.1009,0.0,-0.3425,-0.4425,-0.5629,-0.6942,-0.8817,-1.0194,-1.1268,-1.2538,-1.3709,-1.4873,-1.6749,-1.811,-1.9538,-2.2785,-2.4221,-2.5009,-2.6505,-2.7383,-2.8176,-2.8991,-2.9871,-3.0596,-3.0836,-3.1882,-3.2932,-3.3073,-3.4312,-3.5415,-3.5638,-3.5767,-3.591,-3.591,-3.6919,-3.7774,-3.7946,-3.8846,-3.9649,-3.9884,-4.0182,-4.0401,-4.0376,-4.0415,-4.0369,-4.0131,-3.9211,-3.86,-3.8509,-3.8305,-3.8245,-3.8355,-3.8766,-3.9007,-3.9073,-3.9101,-3.9517,-4.039,-4.0594,-4.0848,-4.1094,-4.1451,-4.2486,-4.4211,-4.4457,-4.5012,2.0996,2.072,2.0096,1.9437,1.9172,1.9104,1.8978,1.8873,1.8798,1.8875,1.8865,1.8993,1.95,1.9131,1.9061,2.0277,1.973,1.9325,1.9675,1.8541,1.7705,1.7609,1.7584,1.7397,1.6958,1.7138,1.7138,1.685,1.6096,1.5337,1.4573,1.3811,1.2942,1.2063,1.1077,1.0194,0.9608,0.8909,0.772,0.5839,0.6237,0.5331,0.3224,0.2216,0.1108,-0.0202,-0.1212,0.0,-0.4024,-0.4524,-0.5727,-0.7335,-0.96,-1.0974,-1.176,-1.342,-1.4867,-1.6103,-1.749,-1.9472,-2.1789,-2.4135,-2.5359,-2.6185,-2.7406,-2.8347,-2.9069,-2.9549,-3.0343,-3.1048,-3.1394,-3.2376,-3.3283,-3.3768,-3.4795,-3.5752,-3.5831,-3.5958,-3.6148,-3.643,-3.7397,-3.8246,-3.8564,-3.9489,-4.0238,-4.0387,-4.0784,-4.1146,-4.1262,-4.1274,-4.1247,-4.132,-4.0468,-3.9924,-4.0045,-3.9827,-3.9323,-3.8473,-3.9176,-3.9472,-3.912,-3.9472,-4.0215,-4.1324,-4.177,-4.2049,-4.2194,-4.2714,-4.352,-4.4554,-4.4954,-4.5374,2.1469,2.093,2.0307,2.019,1.9949,1.9717,1.9802,1.9391,1.911,1.9539,1.9253,1.9121,1.9449,1.8793,1.8463,1.9193,1.8555,1.818,1.9082,1.887,1.8562,1.8525,1.8688,1.8419,1.7419,1.7326,1.6951,1.6285,1.5527,1.4765,1.3908,1.3238,1.2262,1.1268,1.0096,0.9505,0.9312,0.8414,0.7123,0.5636,0.5739,0.4832,0.3021,0.2016,0.0908,-0.0202,0.0,0.0,-0.4524,-0.4724,-0.5927,-0.8035,-1.0386,-1.1463,-1.1955,-1.41,-1.573,-1.6929,-1.8295,-2.0998,-2.3973,-2.4925,-2.6102,-2.7336,-2.8347,-2.9201,-2.9909,-3.0075,-3.0633,-3.1334,-3.1942,-3.272,-3.363,-3.438,-3.5204,-3.5816,-3.5958,-3.6148,-3.6445,-3.7071,-3.7822,-3.8557,-3.9315,-3.9952,-4.0387,-4.0534,-4.1019,-4.1569,-4.1997,-4.1947,-4.2085,-4.2533,-4.1899,-4.1501,-4.1693,-4.1674,-4.0898,-3.8988,-3.9949,-4.0253,-3.9538,-4.0384,-4.1274,-4.2095,-4.2795,-4.3143,-4.3162,-4.4124,-4.4659,-4.4794,-4.5471,-4.58,2.3069,2.1864,2.0488,1.9828,2.0189,2.0539,1.9918,1.9823,1.9901,1.9868,1.9802,1.9481,1.8537,1.9694,2.0429,1.9245,1.8434,1.7744,1.7405,1.6748,1.6641,1.7468,1.7426,1.7434,1.7628,1.7426,1.6951,1.6285,1.5527,1.4765,1.3908,1.3238,1.2262,1.1268,0.9989,0.8806,0.7928,0.6631,0.5934,0.5634,0.5135,0.4736,0.4135,0.242,0.1412,0.0908,0.0,-0.2321,-0.3524,-0.4425,-0.5529,-0.6933,-0.9304,-1.0877,-1.2047,-1.3511,-1.4867,-1.6372,-1.943,-2.1966,-2.4135,-2.6174,-2.701,-2.7499,-2.8991,-3.0037,-3.0817,-3.1756,-3.1928,-3.1942,-3.2074,-3.3269,-3.4394,-3.4595,-3.54,-3.6133,-3.6133,-3.6352,-3.6646,-3.737,-3.8051,-3.8723,-3.9437,-4.0054,-4.0534,-4.0648,-4.1383,-4.1955,-4.2157,-4.2849,-4.3311,-4.3398,-4.2862,-4.2477,-4.2508,-4.2569,-4.2173,-4.1167,-4.1301,-4.1378,-4.1315,-4.253,-4.297,-4.2517,-4.3665,-4.4279,-4.4346,-4.451,-4.4949,-4.5626,-4.5742,-4.58,2.3256,2.2479,2.1431,2.03,1.9425,1.8778,1.8567,1.8408,1.8395,1.8934,1.9153,1.8844,1.7896,1.8267,1.8231,1.6408,1.7087,1.7613,1.7051,1.7462,1.7848,1.7925,1.8064,1.7971,1.752,1.7333,1.6857,1.5717,1.5337,1.4573,1.3335,1.2953,1.2068,1.0391,0.9596,0.8411,0.6736,0.5837,0.5338,0.5338,0.5035,0.4433,0.3729,0.2218,0.121,0.0504,0.0,-0.222,-0.3324,-0.4325,-0.5427,-0.6634,-0.9008,-1.0779,-1.2237,-1.5386,-1.6922,-1.7855,-2.0926,-2.2726,-2.4135,-2.5975,-2.7139,-2.8039,-2.9303,-3.0443,-3.1341,-3.1809,-3.2376,-3.3003,-3.3478,-3.4177,-3.4876,-3.5335,-3.5864,-3.6211,-3.6352,-3.6754,-3.7266,-3.7937,-3.8613,-3.9332,-4.0054,-4.0419,-4.0631,-4.0793,-4.1401,-4.1931,-4.2221,-4.2885,-4.3442,-4.3716,-4.35,-4.3341,-4.3404,-4.3417,-4.3113,-4.2296,-4.1872,-4.1864,-4.2321,-4.3245,-4.3814,-4.3952,-4.4771,-4.5225,-4.5258,-4.5258,-4.5432,-4.58,-4.58,-4.58,2.3397,2.2759,2.1881,2.0695,1.9146,1.7877,1.751,1.7216,1.7164,1.7884,1.8081,1.7877,1.7104,1.6763,1.6254,1.4943,1.6433,1.7453,1.6749,1.7934,1.8643,1.8025,1.8133,1.8041,1.7326,1.6951,1.6285,1.5146,1.4956,1.4196,1.2856,1.2764,1.1873,0.9805,0.93,0.8113,0.6139,0.5441,0.514,0.524,0.4937,0.4332,0.3426,0.2418,0.131,0.0202,-0.0808,-0.1917,-0.2923,-0.4225,-0.5327,-0.6232,-0.8715,-1.0583,-1.2522,-1.6619,-1.8427,-1.9155,-2.1329,-2.2833,-2.4049,-2.5703,-2.7186,-2.8585,-2.9471,-3.0696,-3.1776,-3.185,-3.2818,-3.4056,-3.4543,-3.4942,-3.5335,-3.607,-3.6274,-3.6336,-3.6538,-3.7042,-3.7706,-3.8446,-3.9102,-3.9765,-4.0631,-4.0793,-4.084,-4.0965,-4.1418,-4.1906,-4.2306,-4.2829,-4.3389,-4.3865,-4.3897,-4.3961,-4.4055,-4.4067,-4.3806,-4.3193,-4.2433,-4.2369,-4.3218,-4.3761,-4.4388,-4.5118,-4.5524,-4.5771,-4.58,-4.58,-4.58,-4.58,-4.58,-4.58,2.44,2.2564,2.0764,2.0428,2.0344,1.9858,1.8099,1.7731,1.7734,1.7313,1.6967,1.6526,1.5921,1.6339,1.7055,1.8086,1.771,1.6994,1.6082,1.6266,1.6567,1.6676,1.6298,1.6386,1.7232,1.6096,1.5242,1.5146,1.4382,1.3619,1.2856,1.2764,1.2068,1.0391,0.9399,0.8018,0.6437,0.5336,0.4937,0.524,0.4937,0.4636,0.4236,0.3224,0.2116,0.1008,-0.0,-0.0909,-0.1919,-0.3924,-0.4824,-0.5125,-0.7528,-1.0096,-1.2533,-1.5045,-1.7217,-1.888,-1.9761,-2.164,-2.4135,-2.5891,-2.7371,-2.8585,-2.9639,-3.1071,-3.2417,-3.2561,-3.3796,-3.4957,-3.4356,-3.5139,-3.6133,-3.6211,-3.6461,-3.6662,-3.6662,-3.6952,-3.7562,-3.8635,-3.9049,-3.9627,-4.084,-4.1047,-4.1093,-4.1163,-4.1701,-4.2151,-4.2444,-4.3069,-4.3582,-4.3865,-4.3961,-4.4055,-4.4184,-4.4226,-4.4248,-4.421,-4.333,-4.3266,-4.4252,-4.4568,-4.4862,-4.5201,-4.5473,-4.5677,-4.58,-4.58,-4.58,-4.58,-4.58,-4.58,2.4696,2.2333,2.0083,2.0811,2.0093,1.8715,1.6541,1.6312,1.6738,1.736,1.6644,1.6077,1.666,1.5792,1.5521,1.7157,1.6741,1.6116,1.5947,1.6217,1.6494,1.6588,1.6676,1.6857,1.7232,1.6379,1.5622,1.5146,1.4382,1.3426,1.237,1.2273,1.158,0.9998,0.8909,0.7723,0.6437,0.5334,0.4834,0.4937,0.4834,0.4734,0.4636,0.3525,0.2719,0.2116,0.0504,-0.0404,-0.101,-0.3021,-0.4225,-0.5125,-0.8212,-1.0485,-1.2334,-1.4727,-1.6908,-1.8972,-1.9778,-2.1747,-2.3963,-2.5189,-2.6849,-2.8505,-2.9238,-3.0709,-3.2009,-3.1823,-3.3199,-3.481,-3.4876,-3.5672,-3.6414,-3.6461,-3.6585,-3.6723,-3.6862,-3.7373,-3.8026,-3.8837,-3.9404,-4.0003,-4.0977,-4.1123,-4.1123,-4.1209,-4.1888,-4.2382,-4.2302,-4.3195,-4.3781,-4.3716,-4.3961,-4.4165,-4.4255,-4.4304,-4.4314,-4.4373,-4.4026,-4.3988,-4.4364,-4.4662,-4.4938,-4.5201,-4.5418,-4.5626,-4.58,-4.58,-4.58,-4.58,-4.58,-4.58,2.3741,2.1628,1.9584,1.9949,1.9785,1.8807,1.6114,1.5873,1.6282,1.6641,1.6392,1.627,1.6795,1.5946,1.5569,1.6628,1.6089,1.5747,1.5953,1.6402,1.6487,1.6204,1.6669,1.6857,1.6662,1.5906,1.5235,1.4567,1.3709,1.2845,1.1785,1.178,1.1189,0.9908,0.8916,0.7826,0.6637,0.5636,0.5035,0.4834,0.4834,0.4834,0.4734,0.3929,0.3123,0.2317,0.1008,-0.0101,-0.0909,-0.252,-0.4026,-0.5627,-0.8901,-1.0877,-1.2139,-1.425,-1.6619,-1.888,-1.9613,-2.1569,-2.3877,-2.4607,-2.6273,-2.8199,-2.8688,-3.0012,-3.1408,-3.1172,-3.2777,-3.4581,-3.5059,-3.5864,-3.6616,-3.6662,-3.6785,-3.6907,-3.7044,-3.761,-3.8254,-3.887,-3.956,-4.0252,-4.096,-4.1152,-4.1244,-4.149,-4.2098,-4.2523,-4.258,-4.3371,-4.3892,-4.3828,-4.4085,-4.4285,-4.4344,-4.4344,-4.4373,-4.4411,-4.4411,-4.4411,-4.4411,-4.4688,-4.4962,-4.5201,-4.5437,-4.561,-4.58,-4.58,-4.58,-4.58,-4.58,-4.58,2.1289,2.0269,1.9173,1.7479,1.939,2.0727,1.7309,1.6967,1.6929,1.5055,1.6223,1.7146,1.6092,1.6988,1.7681,1.7186,1.6379,1.5932,1.6226,1.6491,1.6298,1.5527,1.5906,1.5906,1.5146,1.4382,1.3709,1.3119,1.2457,1.1785,1.1194,1.1194,1.09,1.0408,0.9608,0.852,0.7235,0.6439,0.5636,0.4832,0.4834,0.4834,0.4734,0.4537,0.3328,0.1613,0.131,0.0101,-0.1718,-0.2723,-0.4427,-0.6634,-0.93,-1.0974,-1.2145,-1.3709,-1.617,-1.8796,-1.8788,-2.1025,-2.379,-2.4049,-2.5652,-2.7592,-2.7983,-2.9291,-3.062,-3.0898,-3.2577,-3.4312,-3.4528,-3.5657,-3.6723,-3.6708,-3.6952,-3.7194,-3.7194,-3.7711,-3.823,-3.8678,-3.9454,-4.0153,-4.0707,-4.1117,-4.1569,-4.2133,-4.2297,-4.2637,-4.3336,-4.356,-4.386,-4.4255,-4.4373,-4.4383,-4.4383,-4.444,-4.4515,-4.4515,-4.4496,-4.4515,-4.4515,-4.4764,-4.4988,-4.5201,-4.5455,-4.5661,-4.58,-4.58,-4.58,-4.58,-4.58,-4.58,2.3554,2.0896,1.8468,1.9748,1.8907,1.7623,1.736,1.8232,1.8596,1.6738,1.6957,1.7421,1.6829,1.626,1.6203,1.6916,1.6327,1.5858,1.5945,1.5879,1.5913,1.6204,1.5717,1.5527,1.5812,1.5146,1.4478,1.3709,1.3125,1.2355,1.1292,1.0665,1.0202,0.9723,0.8737,0.7866,0.7091,0.6214,0.5431,0.4747,0.4806,0.4431,0.3626,0.3627,0.2722,0.131,0.0605,-0.0101,-0.0909,-0.252,-0.4126,-0.5732,-0.7223,-0.9587,-1.2242,-1.2732,-1.4924,-1.7878,-1.8511,-2.0223,-2.2277,-2.3521,-2.5294,-2.7046,-2.7406,-2.8767,-3.0254,-3.0419,-3.1829,-3.3518,-3.438,-3.5593,-3.6662,-3.6952,-3.7134,-3.7298,-3.7594,-3.7812,-3.8214,-3.9082,-3.9594,-4.0086,-4.0819,-4.118,-4.1569,-4.2133,-4.2462,-4.2996,-4.3846,-4.3841,-4.3936,-4.4325,-4.4383,-4.4411,-4.4487,-4.4487,-4.456,-4.4688,-4.4714,-4.4655,-4.4515,-4.4714,-4.4962,-4.5201,-4.5437,-4.561,-4.58,-4.58,-4.58,-4.58,-4.58,-4.58,2.187,1.9386,1.7124,1.8212,1.7599,1.6924,1.7694,1.8286,1.8232,1.6828,1.7197,1.7566,1.7023,1.6469,1.623,1.6621,1.625,1.5927,1.5927,1.5913,1.5926,1.6026,1.5638,1.5256,1.5068,1.4797,1.4088,1.2937,1.2549,1.1868,1.0605,1.0127,0.954,0.8968,0.8328,0.7628,0.6948,0.6472,0.5802,0.5037,0.5092,0.443,0.3153,0.3202,0.2418,0.1109,-0.0101,-0.0707,-0.101,-0.2722,-0.4126,-0.5329,-0.6628,-0.9193,-1.2339,-1.2436,-1.4727,-1.7963,-1.8611,-2.0141,-2.2129,-2.3617,-2.5136,-2.6554,-2.7267,-2.8462,-2.9793,-3.0393,-3.1669,-3.3241,-3.4581,-3.5672,-3.6616,-3.7074,-3.7358,-3.7535,-3.7828,-3.8116,-3.8439,-3.9028,-3.9506,-4.002,-4.0676,-4.1024,-4.148,-4.2198,-4.2847,-4.3458,-4.4055,-4.4048,-4.414,-4.4411,-4.444,-4.4458,-4.4515,-4.4515,-4.4587,-4.4795,-4.48,-4.4795,-4.4783,-4.4966,-4.5163,-4.5304,-4.5526,-4.5673,-4.58,-4.58,-4.58,-4.58,-4.58,-4.58,1.8259,1.7042,1.5955,1.4648,1.6079,1.7814,1.8109,1.7505,1.6667,1.6166,1.6939,1.7512,1.6817,1.7051,1.7116,1.638,1.6211,1.6224,1.6218,1.6357,1.6176,1.5424,1.5503,1.5034,1.3549,1.3767,1.3227,1.1389,1.1292,1.0801,0.9727,0.9441,0.9044,0.8368,0.8193,0.764,0.6807,0.6807,0.6338,0.5497,0.5506,0.4656,0.3141,0.3064,0.2314,0.0806,-0.0908,-0.1617,-0.1718,-0.3126,-0.4329,-0.5429,-0.703,-0.9497,-1.2242,-1.2533,-1.5102,-1.8419,-1.8696,-2.043,-2.2696,-2.3983,-2.4988,-2.5997,-2.7371,-2.8407,-2.9303,-3.0443,-3.1742,-3.3171,-3.4832,-3.5864,-3.66,-3.7118,-3.7594,-3.7943,-3.8001,-3.8399,-3.8805,-3.886,-3.9451,-4.002,-4.0368,-4.0754,-4.1401,-4.24,-4.3284,-4.3897,-4.4005,-4.4218,-4.4411,-4.4487,-4.4515,-4.4515,-4.4515,-4.4515,-4.4613,-4.48,-4.4825,-4.4966,-4.5244,-4.5418,-4.549,-4.549,-4.5708,-4.58,-4.58,-4.58,-4.58,-4.58,-4.58,-4.58,2.1596,1.9836,1.7794,1.7343,1.7447,1.7408,1.6337,1.7149,1.8008,1.753,1.694,1.6576,1.6453,1.6299,1.6224,1.6211,1.6171,1.6312,1.6494,1.6156,1.5927,1.5732,1.5442,1.4861,1.3915,1.4447,1.3998,1.1975,1.1965,1.157,1.031,0.9515,0.9059,0.8965,0.8659,0.784,0.6676,0.6676,0.5939,0.0,0.4725,0.4474,0.3905,0.2536,0.0796,-0.101,-0.1617,-0.1921,-0.2021,-0.3325,-0.4626,-0.5929,-0.712,-0.9193,-1.156,-1.2436,-1.3788,-1.5609,-1.7948,-1.9239,-2.0314,-2.2668,-2.4402,-2.5746,-2.6528,-2.7742,-2.9028,-2.9781,-3.0957,-3.2335,-3.3696,-3.526,-3.66,-3.7222,-3.7653,-3.8059,-3.8511,-3.8694,-3.886,-3.9148,-3.9799,-4.0319,-4.04,-4.1128,-4.1941,-4.2711,-4.3303,-4.373,-4.3974,-4.4097,-4.4248,-4.4487,-4.4515,-4.4515,-4.4515,-4.4515,-4.4674,-4.5074,-4.5118,-4.5284,-4.5658,-4.5577,-4.549,-4.549,-4.5708,-4.58,-4.58,-4.58,-4.58,-4.58,-4.58,-4.58,2.027,1.9233,1.8092,1.7459,1.7474,1.7505,1.6842,1.7356,1.7866,1.7582,1.7057,1.6684,1.6684,1.6441,1.6334,1.6519,1.6504,1.6501,1.6784,1.6175,1.5792,1.5792,1.4848,1.4093,1.372,1.3831,1.3426,1.1878,1.177,1.1179,0.9715,0.8979,0.8419,0.8056,0.7734,0.7255,0.6538,0.6538,0.5995,0.4915,0.497,0.4483,0.3618,0.2451,0.08,-0.101,-0.1313,-0.1616,-0.2122,-0.3626,-0.4926,-0.6129,-0.7322,-0.9197,-1.1365,-1.2339,-1.3788,-1.5501,-1.8025,-1.9422,-2.0421,-2.2833,-2.4231,-2.5168,-2.6102,-2.7244,-2.853,-2.9266,-3.0631,-3.2191,-3.3642,-3.5014,-3.6337,-3.7401,-3.7985,-3.8399,-3.875,-3.8914,-3.9148,-3.9537,-3.9986,-4.0449,-4.0784,-4.1622,-4.2333,-4.2709,-4.3178,-4.3545,-4.3828,-4.4017,-4.4199,-4.4468,-4.4515,-4.4515,-4.4515,-4.4515,-4.47,-4.518,-4.5201,-4.5381,-4.5766,-4.5708,-4.5642,-4.5642,-4.5737,-4.58,-4.58,-4.58,-4.58,-4.58,-4.58,-4.58,1.8243,1.7904,1.7795,1.7031,1.747,1.7987,1.8133,1.7963,1.7785,1.7598,1.718,1.6864,1.6864,1.6667,1.6594,1.687,1.6654,1.6588,1.6885,1.6171,1.553,1.5444,1.4229,1.3297,1.3019,1.2827,1.2365,1.1487,1.1194,1.0408,0.9023,0.8474,0.7832,0.7017,0.6703,0.6479,0.6254,0.6254,0.5902,0.5193,0.5141,0.4328,0.2951,0.2577,0.1412,-0.0404,-0.0706,-0.1312,-0.2324,-0.4028,-0.5227,-0.6226,-0.7723,-0.9406,-1.1077,-1.2339,-1.3968,-1.5859,-1.811,-1.9786,-2.115,-2.3086,-2.4135,-2.484,-2.5768,-2.6917,-2.8108,-2.8917,-3.0592,-3.2407,-3.3739,-3.4912,-3.6117,-3.7342,-3.8214,-3.8733,-3.886,-3.9094,-3.9379,-3.9746,-4.0087,-4.0625,-4.1445,-4.2169,-4.2649,-4.2709,-4.305,-4.3408,-4.3712,-4.3968,-4.4199,-4.4468,-4.4515,-4.4515,-4.4515,-4.4515,-4.4674,-4.5118,-4.518,-4.5362,-4.5737,-4.58,-4.5814,-4.5814,-4.5786,-4.5771,-4.5771,-4.5771,-4.5786,-4.58,-4.58,-4.58,2.0288,1.9282,1.8031,1.8626,1.8985,1.897,1.8456,1.9155,1.9613,1.8788,1.7196,1.5945,1.5945,1.5919,1.5987,1.6279,1.6245,1.6312,1.6588,1.5778,1.4893,1.4232,1.3736,1.2962,1.1633,1.2042,1.1863,1.0605,1.0511,1.0216,0.9525,0.8672,0.8119,0.7861,0.7069,0.63,0.5549,0.5549,0.5191,0.4478,0.4177,0.3503,0.267,0.2678,0.1613,-0.0403,-0.0706,-0.1513,-0.2825,-0.5225,-0.6224,-0.6523,-0.8623,-0.9525,-1.0113,-1.2247,-1.3216,-1.3974,-1.7117,-1.9147,-2.0477,-2.1676,-2.3444,-2.5115,-2.5285,-2.6741,-2.8347,-2.8493,-3.0467,-3.2676,-3.2975,-3.4618,-3.6196,-3.6554,-3.7472,-3.8535,-3.9094,-3.9272,-3.9325,-3.9501,-4.0286,-4.1202,-4.2251,-4.253,-4.2747,-4.3124,-4.3267,-4.3477,-4.3968,-4.4079,-4.4199,-4.4468,-4.4515,-4.4515,-4.4515,-4.4515,-4.464,-4.4938,-4.5096,-4.5342,-4.5613,-4.5786,-4.5893,-4.5893,-4.5727,-4.5629,-4.5629,-4.5629,-4.5692,-4.58,-4.58,-4.58,1.9963,1.9599,1.9062,1.927,1.9713,1.9981,1.9555,1.9629,1.9712,1.9255,1.8064,1.7052,1.685,1.685,1.6763,1.6494,1.6312,1.6312,1.6588,1.5818,1.486,1.3998,1.3414,1.2543,1.1292,1.1482,1.138,1.0703,1.0511,1.0015,0.9225,0.8466,0.7731,0.6926,0.64,0.5637,0.4567,0.4565,0.4208,0.3494,0.3377,0.3168,0.2764,0.2423,0.1582,0.0504,-0.0303,-0.121,-0.2319,-0.4726,-0.6124,-0.6816,-0.852,-0.9525,-1.031,-1.2543,-1.3505,-1.4262,-1.739,-1.9422,-2.0845,-2.1765,-2.328,-2.4786,-2.4786,-2.6329,-2.8039,-2.8039,-3.0025,-3.2304,-3.2763,-3.3998,-3.5474,-3.6639,-3.7757,-3.8689,-3.9306,-3.9429,-3.952,-4.0037,-4.0879,-4.1692,-4.2274,-4.299,-4.357,-4.398,-4.44,-4.4871,-4.5425,-4.5519,-4.5581,-4.5875,-4.5472,-4.5378,-4.5866,-4.5453,-4.5319,-4.5661,-4.5802,-4.5822,-4.5719,-4.5819,-4.586,-4.58,-4.5712,-4.5696,-4.5757,-4.5645,-4.5661,-4.58,-4.58,-4.58,2.0021,2.0133,2.0125,2.025,2.0377,2.0512,2.0447,1.9949,1.9612,1.9795,1.9263,1.8627,1.787,1.7598,1.7138,1.6305,1.6028,1.6028,1.6211,1.5439,1.4669,1.3902,1.2845,1.178,1.1096,1.0703,1.0502,1.031,1.0113,0.9616,0.8825,0.8233,0.7306,0.6078,0.5698,0.4849,0.3671,0.3671,0.3314,0.2689,0.2718,0.2685,0.2573,0.1828,0.1277,0.0909,-0.0101,-0.1109,-0.2218,-0.4427,-0.5924,-0.6915,-0.8319,-0.9616,-1.0801,-1.2737,-1.3884,-1.4835,-1.7475,-1.9596,-2.1311,-2.2031,-2.3367,-2.47,-2.47,-2.6174,-2.7879,-2.7947,-2.9973,-3.235,-3.2946,-3.4051,-3.5354,-3.6903,-3.8169,-3.9253,-3.9969,-4.0017,-4.0152,-4.0979,-4.1714,-4.2335,-4.2703,-4.3593,-4.4385,-4.4821,-4.537,-4.5956,-4.6517,-4.6549,-4.6663,-4.6963,-4.643,-4.6298,-4.6936,-4.6411,-4.6158,-4.6499,-4.6606,-4.647,-4.605,-4.6134,-4.606,-4.578,-4.5712,-4.5727,-4.5847,-4.5692,-4.5673,-4.5827,-4.5827,-4.5827,2.1589,2.1325,2.0955,2.2236,2.1348,2.0226,2.0594,2.0184,1.9944,2.0486,2.0727,2.0257,1.8311,1.7217,1.6298,1.5363,1.5178,1.5178,1.5178,1.4292,1.3607,1.3511,1.177,1.0507,1.0413,0.9517,0.8924,0.8924,0.8924,0.8825,0.8825,0.8028,0.7104,0.5981,0.5128,0.4198,0.2957,0.2956,0.2689,0.2244,0.2242,0.1999,0.1528,0.0793,0.0504,0.0404,-0.0706,-0.1916,-0.3229,-0.4933,-0.6027,-0.6915,-0.8513,-1.0006,-1.1292,-1.264,-1.3878,-1.5203,-1.6553,-1.9123,-2.1658,-2.1747,-2.325,-2.52,-2.52,-2.6565,-2.8084,-2.8299,-3.0701,-3.3262,-3.3662,-3.5172,-3.6739,-3.6965,-3.8497,-4.0248,-4.151,-4.1342,-4.127,-4.2483,-4.2823,-4.3266,-4.4218,-4.4446,-4.4737,-4.5512,-4.568,-4.5901,-4.6448,-4.6512,-4.6645,-4.6963,-4.6974,-4.6955,-4.7012,-4.6974,-4.7024,-4.7154,-4.7283,-4.7133,-4.6666,-4.6844,-4.6646,-4.5999,-4.5723,-4.5645,-4.5718,-4.5703,-4.5761,-4.5886,-4.5886,-4.5886,2.0514,2.0932,2.1488,2.1319,2.0873,2.0329,1.9906,1.9764,1.9558,1.9264,1.9389,1.8988,1.721,1.721,1.6936,1.5363,1.5083,1.5083,1.5083,1.479,1.4004,1.2732,1.1863,1.0886,0.9517,0.9023,0.8825,0.8825,0.8825,0.8825,0.8825,0.8241,0.7504,0.6355,0.5155,0.3682,0.1973,0.1973,0.1883,0.1705,0.173,0.1582,0.1431,0.0097,-0.0986,-0.1615,-0.2922,-0.3324,-0.3024,-0.4634,-0.6426,-0.8199,-0.8901,-1.0489,-1.237,-1.3426,-1.4561,-1.569,-1.721,-1.9588,-2.1933,-2.2199,-2.3943,-2.5863,-2.5863,-2.6987,-2.851,-2.9408,-3.084,-3.2675,-3.451,-3.554,-3.6626,-3.8611,-3.9914,-4.1132,-4.2593,-4.2344,-4.1965,-4.243,-4.2757,-4.3242,-4.3937,-4.4725,-4.5545,-4.6353,-4.6925,-4.7407,-4.7807,-4.8077,-4.8239,-4.8359,-4.8163,-4.8258,-4.8749,-4.8305,-4.8094,-4.8226,-4.8357,-4.8162,-4.7569,-4.7728,-4.7478,-4.6713,-4.6607,-4.6308,-4.5766,-4.5623,-4.5658,-4.5833,-4.588,-4.5905,2.0551,2.1161,2.2129,2.2085,2.1279,2.044,2.0189,1.9524,1.8877,1.8305,1.8395,1.8218,1.6835,1.7023,1.6741,1.4879,1.4598,1.4598,1.4598,1.4598,1.4016,1.2549,1.1858,1.0877,0.9509,0.8726,0.8432,0.8432,0.8432,0.8333,0.823,0.7993,0.734,0.6114,0.4704,0.3177,0.1436,0.1436,0.1436,0.1436,0.1355,0.1385,0.1145,-0.0479,-0.1957,-0.3328,-0.4634,-0.4531,-0.3624,-0.4935,-0.6822,-0.8886,-0.9296,-1.0979,-1.3152,-1.3913,-1.5045,-1.6452,-1.7584,-1.9861,-2.2473,-2.2892,-2.4542,-2.6351,-2.6517,-2.7766,-2.9279,-3.0194,-3.1457,-3.3061,-3.5291,-3.6445,-3.7685,-4.02,-4.1135,-4.1876,-4.3158,-4.3059,-4.2743,-4.3014,-4.3299,-4.3786,-4.4445,-4.5293,-4.6132,-4.7034,-4.7627,-4.8093,-4.8383,-4.8676,-4.89,-4.9118,-4.8942,-4.907,-4.9759,-4.934,-4.9079,-4.9201,-4.93,-4.906,-4.8431,-4.8527,-4.8105,-4.7042,-4.6993,-4.6572,-4.5771,-4.5677,-4.5712,-4.5844,-4.5893,-4.5941,0.0,0.0,0.0,2.4653,2.27,2.0626,2.1675,1.9823,1.7882,1.7986,1.8111,1.8014,1.7345,1.6655,1.5615,1.3727,1.3443,1.3539,1.3539,1.3539,1.3346,1.3147,1.1473,1.0391,1.0391,0.8627,0.7547,0.7547,0.7547,0.7444,0.7238,0.7104,0.6432,0.509,0.3713,0.2419,0.1346,0.1345,0.1345,0.1346,0.1373,0.1122,0.0668,-0.0971,-0.2672,-0.4438,-0.5541,-0.5639,-0.4935,-0.5739,-0.7123,-0.8985,-0.9694,-1.1473,-1.3539,-1.3811,-1.5412,-1.739,-1.7591,-2.0124,-2.3173,-2.3567,-2.5031,-2.661,-2.7115,-2.8674,-3.0306,-3.0637,-3.2488,-3.4757,-3.5985,-3.8075,-4.0162,-4.1449,-4.2061,-4.2506,-4.3185,-4.3347,-4.3673,-4.4434,-4.457,-4.4923,-4.5918,-4.6098,-4.6454,-4.7511,-4.7699,-4.7806,-4.8075,-4.8114,-4.8384,-4.9118,-4.9196,-4.937,-4.9852,-4.9898,-4.9906,-4.9986,-5.0005,-4.9752,-4.925,-4.9252,-4.851,-4.6957,-4.6799,-4.6394,-4.568,-4.5819,-4.5893,-4.5906,-4.5983,-4.6005,2.1706,0.0,0.0,0.0,0.0,0.0,2.2257,2.0599,1.8903,1.8903,1.7746,1.6484,1.5773,1.5498,1.4816,1.321,1.3244,1.3539,1.3539,1.3539,1.3249,1.237,1.1179,1.0096,0.9312,0.8031,0.7341,0.7341,0.7341,0.7238,0.7238,0.7018,0.6304,0.489,0.4495,0.3226,0.0897,0.0538,0.0359,0.0359,0.0361,0.0276,0.0,-0.2966,-0.4592,-0.5142,-0.6339,-0.6836,-0.683,-0.6836,-0.8219,-1.028,-1.0667,-1.2334,-1.44,-1.4688,-1.6001,-1.7677,-1.8311,-2.072,-2.3654,-2.4286,-2.583,-2.7615,-2.8046,-2.8833,-2.9996,-3.2111,-3.3221,-3.4458,-3.7476,-3.9495,-4.0868,-4.1241,-4.2045,-4.2892,-4.3075,-4.3846,-4.4504,-4.439,-4.4665,-4.5069,-4.5768,-4.6182,-4.6613,-4.7302,-4.7705,-4.7951,-4.8014,-4.8327,-4.8586,-4.8748,-4.9067,-4.9412,-4.9731,-4.9579,-4.9693,-5.0207,-4.9974,-4.9905,-4.9981,-5.0076,-4.9374,-4.7722,-4.7665,-4.6953,-4.5566,-4.5601,-4.5715,-4.5906,-4.5983,-4.5997,2.1672,2.147,2.1713,2.2986,0.0,0.0,2.1788,2.0334,1.861,1.7437,1.6076,1.512,1.5154,1.4734,1.4239,1.3779,1.3183,1.2844,1.2549,1.2565,1.2268,1.1585,1.0694,0.9805,0.9225,0.7935,0.7238,0.7238,0.6939,0.6594,0.6393,0.6255,0.5603,0.4218,0.3671,0.2327,0.0179,-0.0179,-0.0359,-0.0628,-0.0628,-0.0639,-0.0753,-0.3982,-0.5615,-0.5879,-0.7114,-0.7832,-0.8127,-0.7932,-0.911,-1.117,-1.1843,-1.3307,-1.5064,-1.5261,-1.6386,-1.787,-1.878,-2.0828,-2.3231,-2.4638,-2.6174,-2.7615,-2.8703,-2.9682,-3.0842,-3.3047,-3.4499,-3.6017,-3.8355,-3.9905,-4.0882,-4.1153,-4.2045,-4.2953,-4.2953,-4.3922,-4.4797,-4.4648,-4.4814,-4.5177,-4.5684,-4.602,-4.6489,-4.7214,-4.7518,-4.7788,-4.7992,-4.8249,-4.8458,-4.8605,-4.8885,-4.9177,-4.9502,-4.9512,-4.9674,-5.0076,-5.0051,-5.012,-5.0302,-5.0374,-4.9635,-4.7947,-4.791,-4.7086,-4.5419,-4.5476,-4.5651,-4.5906,-4.5983,-4.5997,2.2015,2.1861,2.2522,2.4085,2.3509,0.0,2.1437,2.0128,1.8401,1.5948,1.5165,1.5034,1.5639,1.486,1.4269,1.4734,1.3252,1.1883,1.1453,1.1292,1.1096,1.09,1.0105,0.9612,0.9624,0.8131,0.7138,0.7138,0.6439,0.5745,0.5339,0.5329,0.4671,0.3321,0.2059,0.0627,-0.0897,-0.0807,-0.1076,-0.1525,-0.1529,-0.1456,-0.158,-0.4448,-0.5984,-0.639,-0.7882,-0.863,-0.8924,-0.9217,-1.019,-1.1755,-1.2926,-1.428,-1.5534,-1.5825,-1.6669,-1.7963,-1.9155,-2.0683,-2.2551,-2.4882,-2.6235,-2.7242,-2.91,-3.0586,-3.2072,-3.3621,-3.6066,-3.831,-3.8913,-3.9804,-4.0699,-4.1189,-4.2045,-4.2785,-4.2785,-4.3806,-4.4763,-4.4906,-4.5032,-4.5194,-4.5684,-4.5786,-4.6168,-4.7017,-4.7214,-4.7389,-4.7811,-4.7933,-4.8093,-4.8458,-4.8586,-4.8816,-4.9158,-4.9435,-4.9674,-4.973,-5.0006,-5.0212,-5.0236,-5.0183,-4.9423,-4.7837,-4.7627,-4.6787,-4.5319,-4.5476,-4.5668,-4.588,-4.5953,-4.5997,2.4343,2.3905,2.3654,2.4348,2.4611,0.0,2.5111,2.4304,2.3456,2.3394,2.2271,2.064,1.8578,1.8002,1.6985,1.4407,1.2892,1.2138,1.2399,1.1683,1.1194,1.1096,1.0203,0.9608,0.9612,0.7932,0.6842,0.6842,0.6137,0.5546,0.5339,0.5329,0.4578,0.305,0.17,0.009,-0.1885,-0.1705,-0.1884,-0.2244,-0.2099,-0.2047,-0.2184,-0.4536,-0.5796,-0.6189,-0.8216,-0.9327,-0.9916,-1.1551,-1.2231,-1.2242,-1.2716,-1.416,-1.6096,-1.6393,-1.7232,-1.8427,-1.967,-2.1453,-2.3481,-2.563,-2.6894,-2.7904,-2.9355,-3.0473,-3.1771,-3.4498,-3.6668,-3.8391,-3.947,-4.02,-4.0851,-4.139,-4.219,-4.2785,-4.2785,-4.3806,-4.4708,-4.4763,-4.5069,-4.5371,-4.5459,-4.5854,-4.6186,-4.6381,-4.6742,-4.6999,-4.7089,-4.7421,-4.7548,-4.7273,-4.7937,-4.8365,-4.8329,-4.8476,-4.8832,-4.9345,-4.9453,-4.9618,-4.9903,-4.9539,-4.885,-4.7818,-4.6481,-4.5665,-4.5457,-4.5715,-4.5791,-4.5746,-4.5929,-4.5997,2.5142,2.4504,2.4312,2.4757,2.5067,0.0,0.0,2.435,2.386,2.3364,2.2351,2.1371,2.0707,2.0101,1.9447,1.8743,1.5797,1.3896,1.4815,1.2111,1.001,1.001,0.9513,0.9217,0.9422,0.8233,0.7039,0.6037,0.5035,0.4362,0.4197,0.3806,0.3082,0.1705,0.0716,-0.0627,-0.2154,-0.2064,-0.2154,-0.2334,-0.22,-0.2326,-0.2727,-0.5017,-0.6182,-0.6726,-0.8882,-0.992,-1.031,-1.2032,-1.2904,-1.3397,-1.4256,-1.5507,-1.6763,-1.6857,-1.7785,-1.9063,-2.0223,-2.1878,-2.3882,-2.587,-2.7128,-2.8283,-3.0119,-3.2006,-3.3819,-3.5357,-3.69,-3.8427,-3.9602,-4.0115,-4.0547,-4.1374,-4.2142,-4.2678,-4.2678,-4.3529,-4.4243,-4.4243,-4.4485,-4.4835,-4.5318,-4.5615,-4.5905,-4.6137,-4.6411,-4.6631,-4.6863,-4.7115,-4.716,-4.6908,-4.7309,-4.7656,-4.7846,-4.808,-4.844,-4.9015,-4.9363,-4.9429,-4.9189,-4.9129,-4.8512,-4.7275,-4.5969,-4.54,-4.5601,-4.5731,-4.5791,-4.5805,-4.5941,-4.5997,2.6183,2.5487,2.537,2.5556,2.5667,2.5416,0.0,0.0,0.0,2.2656,2.2262,2.2393,2.3079,2.2256,2.1898,2.3239,1.9413,1.6671,1.7854,1.402,1.0607,0.9239,0.8954,0.8879,0.928,0.8463,0.7081,0.5227,0.4105,0.3349,0.3053,0.2476,0.1683,0.0449,-0.0179,-0.1075,-0.2243,-0.2333,-0.2427,-0.2529,-0.2581,-0.2889,-0.3368,-0.5605,-0.6961,-0.7644,-0.9743,-1.0797,-1.1179,-1.242,-1.3669,-1.4841,-1.6089,-1.6857,-1.7419,-1.7419,-1.8342,-1.9704,-2.0683,-2.224,-2.4118,-2.6036,-2.7522,-2.9028,-3.0984,-3.3463,-3.5686,-3.5963,-3.6985,-3.8266,-3.9448,-3.9763,-3.9975,-4.1024,-4.1738,-4.2126,-4.2126,-4.2707,-4.33,-4.33,-4.3436,-4.3922,-4.4944,-4.514,-4.5283,-4.57,-4.568,-4.5778,-4.6389,-4.6424,-4.6429,-4.64,-4.6682,-4.6972,-4.7204,-4.7715,-4.8179,-4.8676,-4.9333,-4.9343,-4.854,-4.8571,-4.7922,-4.6455,-4.5705,-4.5457,-4.57,-4.5731,-4.5791,-4.5906,-4.5983,-4.5997,2.9294,2.8683,2.8093,2.7131,2.7469,2.7528,2.5591,0.0,2.8289,2.7749,0.0,2.9314,2.6984,0.0,0.0,2.3218,2.1342,2.0243,2.0772,1.9993,1.7104,1.1049,0.9287,0.8999,0.9853,0.8284,0.6594,0.4922,0.4495,0.3924,0.3049,0.2953,0.2151,0.0449,0.0359,-0.0628,-0.2424,-0.2869,-0.3258,-0.3597,-0.4139,-0.4405,-0.4574,-0.6547,-0.7892,-0.8762,-1.0676,-1.2252,-1.359,-1.4638,-1.5596,-1.6358,-1.6264,-1.6929,-1.7986,-1.7986,-1.8804,-1.9977,-2.0944,-2.26,-2.4586,-2.6461,-2.8627,-3.0745,-3.1716,-3.317,-3.4651,-3.5885,-3.6809,-3.7682,-3.8883,-3.9162,-3.9364,-3.9975,-4.0255,-4.0478,-4.0478,-4.0982,-4.1433,-4.1433,-4.1725,-4.2499,-4.3939,-4.4145,-4.4202,-4.4243,-4.3743,-4.3724,-4.4807,-4.4785,-4.4689,-4.4576,-4.5988,-4.665,-4.5962,-4.6988,-4.7879,-4.8326,-4.8982,-4.9006,-4.8187,-4.7295,-4.6366,-4.5491,-4.5477,-4.5549,-4.57,-4.5819,-4.5893,-4.5906,-4.5983,-4.5997,2.99,2.9489,2.9122,2.8155,2.7869,2.7628,2.6663,2.7218,2.7964,2.8141,0.0,0.0,0.0,0.0,0.0,0.0,2.508,2.3383,2.3601,2.1054,1.7733,1.3838,1.2689,1.1445,0.9404,0.7482,0.6136,0.564,0.4227,0.3048,0.2192,0.2192,0.1411,-0.0183,-0.0902,-0.1881,-0.3139,-0.3585,-0.3984,-0.4254,-0.4436,-0.5186,-0.6343,-0.7645,-0.9091,-1.0471,-1.177,-1.2657,-1.342,-1.4937,-1.5792,-1.6264,-1.7304,-1.7978,-1.8373,-1.8904,-1.9894,-2.106,-2.2189,-2.4159,-2.6532,-2.8414,-3.0063,-3.1429,-3.216,-3.3715,-3.5368,-3.6385,-3.7403,-3.8399,-3.9247,-3.9466,-3.961,-4.0146,-4.0216,-4.0216,-4.0216,-4.0378,-4.0607,-4.0607,-4.0831,-4.1201,-4.1821,-4.2642,-4.3343,-4.363,-4.344,-4.3489,-4.4078,-4.433,-4.4314,-4.392,-4.5164,-4.5835,-4.5357,-4.6472,-4.7378,-4.7856,-4.8333,-4.8399,-4.7934,-4.7018,-4.616,-4.5419,-4.5476,-4.5599,-4.5805,-4.588,-4.5932,-4.596,-4.5986,-4.6018,3.0859,3.0379,2.991,2.9176,2.8379,2.7591,2.6855,2.728,2.7855,2.7958,2.872,0.0,0.0,0.0,2.9756,3.0638,0.0,2.6778,2.6909,2.4062,2.0692,1.7173,1.5729,1.372,1.0573,0.797,0.6367,0.6114,0.4483,0.2901,0.143,0.1518,0.1033,-0.0093,-0.1359,-0.2599,-0.3948,-0.4302,-0.454,-0.4844,-0.5009,-0.6059,-0.7851,-0.8743,-1.0075,-1.1858,-1.2657,-1.3244,-1.3721,-1.5514,-1.6358,-1.6828,-1.8527,-1.9112,-1.902,-1.9637,-2.0619,-2.1863,-2.2824,-2.5031,-2.7626,-2.9484,-3.0633,-3.1355,-3.2101,-3.3824,-3.5551,-3.6086,-3.7128,-3.8234,-3.8679,-3.8767,-3.8914,-3.9565,-3.9391,-3.9247,-3.9707,-3.9621,-3.955,-3.9707,-3.9834,-3.9945,-4.0015,-4.1299,-4.2472,-4.2814,-4.2867,-4.3015,-4.3453,-4.3656,-4.3755,-4.3545,-4.45,-4.5165,-4.4997,-4.617,-4.7212,-4.8004,-4.8085,-4.8117,-4.8159,-4.7322,-4.6546,-4.584,-4.5858,-4.588,-4.5893,-4.5949,-4.5986,-4.6027,-4.6027,-4.6044,3.3043,3.2124,3.0908,3.0276,2.931,2.7909,2.5841,2.7574,2.9332,2.8384,3.0577,3.2402,3.1568,3.0834,3.0577,3.1181,3.0902,0.0,0.0,3.1481,2.8892,2.0905,1.7286,1.5156,1.44,1.0542,0.758,0.6159,0.5697,0.4109,0.095,0.1311,0.1482,0.1295,-0.0,-0.2062,-0.4761,-0.4755,-0.512,-0.579,-0.6267,-0.7254,-0.8799,-0.9596,-1.0779,-1.2339,-1.3141,-1.4304,-1.5825,-1.6835,-1.7855,-1.8796,-1.982,-2.0292,-2.0201,-1.9737,-2.0538,-2.1784,-2.2473,-2.4511,-2.7139,-2.8846,-2.9935,-3.0758,-3.1355,-3.2928,-3.4574,-3.4574,-3.5446,-3.6373,-3.6373,-3.6373,-3.6624,-3.7477,-3.7,-3.6844,-3.8472,-3.8248,-3.7872,-3.8441,-3.859,-3.8664,-3.909,-4.0393,-4.1327,-4.1409,-4.1278,-4.1609,-4.2704,-4.2397,-4.2369,-4.3242,-4.4139,-4.4816,-4.4997,-4.617,-4.7583,-4.9139,-4.8521,-4.8381,-4.9018,-4.822,-4.7406,-4.6666,-4.6793,-4.6538,-4.5893,-4.6026,-4.6091,-4.6098,-4.6098,-4.6098,0.0,0.0,3.1422,3.0742,0.0,2.8491,2.7044,2.7886,2.872,2.784,2.9437,3.0848,3.0206,3.0328,3.0531,3.066,3.1028,3.0925,0.0,3.0106,2.9503,2.7484,2.268,1.9381,1.9034,1.4204,0.9921,0.7078,0.4794,0.328,0.2703,0.13,0.0277,-0.0462,-0.0905,-0.2415,-0.4928,-0.5371,-0.5847,-0.6269,-0.6555,-0.7928,-1.0087,-1.0386,-1.1658,-1.3613,-1.4106,-1.4592,-1.5159,-1.6842,-1.7777,-1.8241,-1.9729,-2.0464,-2.0817,-2.0889,-2.1248,-2.1952,-2.4084,-2.5441,-2.6625,-2.845,-2.9172,-2.9549,-3.0417,-3.1681,-3.2912,-3.3009,-3.4527,-3.6088,-3.5645,-3.6106,-3.6738,-3.7063,-3.6844,-3.661,-3.7232,-3.7014,-3.678,-3.6858,-3.7337,-3.7672,-3.7644,-3.9145,-4.0531,-4.0904,-4.0551,-4.0758,-4.2013,-4.1965,-4.2093,-4.2756,-4.3861,-4.471,-4.4997,-4.6454,-4.7926,-4.9221,-4.9039,-4.8993,-4.9214,-4.8947,-4.8452,-4.7713,-4.7268,-4.6952,-4.6752,-4.6325,-4.6125,-4.6162,-4.617,-4.6178,3.2277,3.2119,0.0,3.1234,3.0348,0.0,2.8132,2.879,2.9538,2.9248,3.0313,3.1347,3.1579,3.1373,3.1163,3.1182,3.1308,3.1006,0.0,2.9664,2.9983,3.0884,2.6505,2.3436,2.3473,1.7147,1.1307,0.7175,0.5084,0.3554,0.2463,0.0644,-0.0647,-0.1386,-0.2553,-0.3697,-0.4924,-0.5953,-0.6509,-0.6674,-0.696,-0.8147,-1.0285,-1.036,-1.1658,-1.3902,-1.41,-1.4675,-1.5629,-1.7304,-1.8234,-1.8788,-2.0275,-2.1006,-2.1275,-2.1436,-2.1704,-2.2315,-2.418,-2.5115,-2.5619,-2.7105,-2.7602,-2.7752,-2.8905,-2.9967,-3.0982,-3.15,-3.2975,-3.4458,-3.4139,-3.4714,-3.5332,-3.5641,-3.5426,-3.5292,-3.6188,-3.6029,-3.5789,-3.6136,-3.6872,-3.7366,-3.7106,-3.8294,-3.9478,-4.0091,-4.0216,-4.0547,-4.1421,-4.1656,-4.2122,-4.285,-4.39,-4.4866,-4.5623,-4.6975,-4.8217,-4.9252,-4.9445,-4.9587,-4.9719,-4.9779,-4.9449,-4.8752,-4.7959,-4.747,-4.728,-4.6501,-4.616,-4.62,-4.6211,-4.6204]}]]